Wetterdaten: aktuell Sonntag, 07.06.2020 09:06
Datum Zeit Temperatur Luftfeuchte Luftdruck Regen Wind Richtung Richtung Sonnenschein UV Solar Taupunkt Windchill Windben
07.06.2020 09:06 11,7 C 57 % 1007,4 hPa 0,0 l/m 1,0 km/h (0 Bft) N 355 0 min 0,7 UV-I 163 W/m 3,5 C 11,7 C 1,6 km/h (1 Bft)
07.06.2020 09:05 11,7 C 57 % 1007,5 hPa 0,0 l/m 0,3 km/h (0 Bft) N 355 0 min 0,6 UV-I 159 W/m 3,5 C 11,7 C 1,6 km/h (1 Bft)
07.06.2020 09:04 11,7 C 57 % 1007,5 hPa 0,0 l/m 1,1 km/h (1 Bft) N 355 0 min 0,6 UV-I 157 W/m 3,5 C 11,7 C 1,6 km/h (1 Bft)
07.06.2020 09:03 11,7 C 56 % 1007,5 hPa 0,0 l/m 1,2 km/h (1 Bft) N 355 0 min 0,6 UV-I 159 W/m 3,2 C 11,7 C 1,6 km/h (1 Bft)
07.06.2020 09:02 11,7 C 56 % 1007,5 hPa 0,0 l/m 1,0 km/h (0 Bft) N 355 0 min 0,6 UV-I 163 W/m 3,2 C 11,7 C 1,6 km/h (1 Bft)
07.06.2020 09:01 11,6 C 56 % 1007,5 hPa 0,0 l/m 0,5 km/h (0 Bft) N 355 0 min 0,6 UV-I 169 W/m 3,1 C 11,6 C 1,6 km/h (1 Bft)
07.06.2020 09:00 11,6 C 56 % 1007,5 hPa 0,0 l/m 0,6 km/h (0 Bft) N 355 0 min 0,7 UV-I 175 W/m 3,1 C 11,6 C 1,6 km/h (1 Bft)
07.06.2020 08:59 11,6 C 57 % 1007,5 hPa 0,0 l/m 1,1 km/h (1 Bft) N 355 0 min 0,7 UV-I 175 W/m 3,4 C 11,6 C 1,6 km/h (1 Bft)
07.06.2020 08:58 11,5 C 56 % 1007,5 hPa 0,0 l/m 1,2 km/h (1 Bft) N 355 0 min 0,7 UV-I 172 W/m 3,0 C 11,5 C 3,2 km/h (1 Bft)
07.06.2020 08:57 11,5 C 56 % 1007,5 hPa 0,0 l/m 0,7 km/h (0 Bft) W-NW 302 0 min 0,7 UV-I 165 W/m 3,0 C 11,5 C 1,6 km/h (1 Bft)
07.06.2020 08:56 11,4 C 57 % 1007,5 hPa 0,0 l/m 0,1 km/h (0 Bft) W-NW 296 0 min 0,6 UV-I 156 W/m 3,2 C 11,4 C 1,6 km/h (1 Bft)
07.06.2020 08:55 11,4 C 57 % 1007,5 hPa 0,0 l/m 0,4 km/h (0 Bft) W-NW 296 0 min 0,6 UV-I 146 W/m 3,2 C 11,4 C 1,6 km/h (1 Bft)
07.06.2020 08:54 11,4 C 57 % 1007,5 hPa 0,0 l/m 0,6 km/h (0 Bft) W-NW 296 0 min 0,5 UV-I 138 W/m 3,2 C 11,4 C 1,6 km/h (1 Bft)
07.06.2020 08:53 11,3 C 57 % 1007,5 hPa 0,0 l/m 1,1 km/h (1 Bft) W-NW 296 0 min 0,5 UV-I 134 W/m 3,1 C 11,3 C 1,6 km/h (1 Bft)
07.06.2020 08:52 11,3 C 57 % 1007,5 hPa 0,0 l/m 0,3 km/h (0 Bft) W-NW 300 0 min 0,5 UV-I 134 W/m 3,1 C 11,3 C 1,6 km/h (1 Bft)
07.06.2020 08:51 11,3 C 57 % 1007,5 hPa 0,0 l/m 0,8 km/h (0 Bft) W-NW 300 0 min 0,5 UV-I 135 W/m 3,1 C 11,3 C 1,6 km/h (1 Bft)
07.06.2020 08:50 11,3 C 57 % 1007,4 hPa 0,0 l/m 0,6 km/h (0 Bft) W-NW 300 0 min 0,5 UV-I 137 W/m 3,1 C 11,3 C 1,6 km/h (1 Bft)
07.06.2020 08:49 11,3 C 57 % 1007,4 hPa 0,0 l/m 0,1 km/h (0 Bft) W-NW 300 0 min 0,5 UV-I 137 W/m 3,1 C 11,3 C 1,6 km/h (1 Bft)
07.06.2020 08:48 11,3 C 57 % 1007,4 hPa 0,0 l/m 0,3 km/h (0 Bft) W-NW 300 0 min 0,5 UV-I 136 W/m 3,1 C 11,3 C 1,6 km/h (1 Bft)
07.06.2020 08:47 11,2 C 57 % 1007,4 hPa 0,0 l/m 0,3 km/h (0 Bft) W-NW 300 0 min 0,5 UV-I 134 W/m 3,0 C 11,2 C 1,6 km/h (1 Bft)
07.06.2020 08:46 11,2 C 57 % 1007,4 hPa 0,0 l/m 0,4 km/h (0 Bft) W-NW 300 0 min 0,5 UV-I 134 W/m 3,0 C 11,2 C 1,6 km/h (1 Bft)
07.06.2020 08:45 11,2 C 57 % 1007,4 hPa 0,0 l/m 0,5 km/h (0 Bft) W-NW 300 0 min 0,5 UV-I 134 W/m 3,0 C 11,2 C 1,6 km/h (1 Bft)
07.06.2020 08:44 11,2 C 57 % 1007,3 hPa 0,0 l/m 0,9 km/h (0 Bft) W-NW 300 0 min 0,5 UV-I 134 W/m 3,0 C 11,2 C 1,6 km/h (1 Bft)
07.06.2020 08:43 11,2 C 57 % 1007,3 hPa 0,0 l/m 0,8 km/h (0 Bft) W-NW 300 0 min 0,5 UV-I 136 W/m 3,0 C 11,2 C 1,6 km/h (1 Bft)
07.06.2020 08:42 11,2 C 57 % 1007,3 hPa 0,0 l/m 0,9 km/h (0 Bft) W-NW 300 0 min 0,5 UV-I 141 W/m 3,0 C 11,2 C 1,6 km/h (1 Bft)
07.06.2020 08:41 11,2 C 57 % 1007,3 hPa 0,0 l/m 1,0 km/h (0 Bft) W-NW 300 0 min 0,5 UV-I 142 W/m 3,0 C 11,2 C 1,6 km/h (1 Bft)
07.06.2020 08:40 11,2 C 57 % 1007,3 hPa 0,0 l/m 1,3 km/h (1 Bft) W-NW 300 0 min 0,5 UV-I 140 W/m 3,0 C 11,2 C 1,6 km/h (1 Bft)
07.06.2020 08:39 11,2 C 57 % 1007,3 hPa 0,0 l/m 0,8 km/h (0 Bft) W-NW 300 0 min 0,5 UV-I 133 W/m 3,0 C 11,2 C 3,2 km/h (1 Bft)
07.06.2020 08:38 11,2 C 57 % 1007,3 hPa 0,0 l/m 1,5 km/h (1 Bft) W-NW 300 0 min 0,5 UV-I 126 W/m 3,0 C 11,2 C 3,2 km/h (1 Bft)
07.06.2020 08:37 11,2 C 57 % 1007,3 hPa 0,0 l/m 0,5 km/h (0 Bft) W 277 0 min 0,5 UV-I 120 W/m 3,0 C 11,2 C 3,2 km/h (1 Bft)
07.06.2020 08:36 11,2 C 57 % 1007,3 hPa 0,0 l/m 0,9 km/h (0 Bft) W 276 0 min 0,5 UV-I 117 W/m 3,0 C 11,2 C 1,6 km/h (1 Bft)
07.06.2020 08:35 11,1 C 57 % 1007,3 hPa 0,0 l/m 1,3 km/h (1 Bft) W 276 0 min 0,1 UV-I 115 W/m 2,9 C 11,1 C 3,2 km/h (1 Bft)
07.06.2020 08:34 11,1 C 57 % 1007,2 hPa 0,0 l/m 1,5 km/h (1 Bft) W 281 0 min 0,0 UV-I 115 W/m 2,9 C 11,1 C 3,2 km/h (1 Bft)
07.06.2020 08:33 11,1 C 57 % 1007,2 hPa 0,0 l/m 1,7 km/h (1 Bft) W 281 0 min 0,1 UV-I 120 W/m 2,9 C 11,1 C 3,2 km/h (1 Bft)
07.06.2020 08:32 11,1 C 57 % 1007,2 hPa 0,0 l/m 1,8 km/h (1 Bft) W 281 0 min 0,5 UV-I 126 W/m 2,9 C 11,1 C 3,2 km/h (1 Bft)
07.06.2020 08:31 11,2 C 57 % 1007,2 hPa 0,0 l/m 2,4 km/h (1 Bft) W 271 0 min 0,5 UV-I 130 W/m 3,0 C 11,2 C 3,2 km/h (1 Bft)
07.06.2020 08:30 11,2 C 57 % 1007,2 hPa 0,0 l/m 1,3 km/h (1 Bft) W 271 0 min 0,2 UV-I 129 W/m 3,0 C 11,2 C 3,2 km/h (1 Bft)
07.06.2020 08:29 11,1 C 57 % 1007,2 hPa 0,0 l/m 1,1 km/h (1 Bft) W 271 0 min 0,0 UV-I 126 W/m 2,9 C 11,1 C 1,6 km/h (1 Bft)
07.06.2020 08:28 11,1 C 57 % 1007,2 hPa 0,0 l/m 0,5 km/h (0 Bft) W 265 0 min 0,0 UV-I 121 W/m 2,9 C 11,1 C 1,6 km/h (1 Bft)
07.06.2020 08:27 11,1 C 57 % 1007,2 hPa 0,0 l/m 0,4 km/h (0 Bft) W 265 0 min 0,0 UV-I 116 W/m 2,9 C 11,1 C 1,6 km/h (1 Bft)
07.06.2020 08:26 11,1 C 57 % 1007,2 hPa 0,0 l/m 1,8 km/h (1 Bft) W 265 0 min 0,0 UV-I 114 W/m 2,9 C 11,1 C 3,2 km/h (1 Bft)
07.06.2020 08:25 11,1 C 57 % 1007,2 hPa 0,0 l/m 2,1 km/h (1 Bft) W 262 0 min 0,0 UV-I 112 W/m 2,9 C 11,1 C 3,2 km/h (1 Bft)
07.06.2020 08:24 11,1 C 57 % 1007,2 hPa 0,0 l/m 1,3 km/h (1 Bft) W-SW 242 0 min 0,0 UV-I 110 W/m 2,9 C 11,1 C 3,2 km/h (1 Bft)
07.06.2020 08:23 11,1 C 57 % 1007,2 hPa 0,0 l/m 1,3 km/h (1 Bft) W-SW 240 0 min 0,0 UV-I 110 W/m 2,9 C 11,1 C 3,2 km/h (1 Bft)
07.06.2020 08:22 11,1 C 57 % 1007,1 hPa 0,0 l/m 2,0 km/h (1 Bft) W-SW 240 0 min 0,0 UV-I 113 W/m 2,9 C 11,1 C 3,2 km/h (1 Bft)
07.06.2020 08:21 11,1 C 57 % 1007,1 hPa 0,0 l/m 2,1 km/h (1 Bft) W-SW 244 0 min 0,0 UV-I 118 W/m 2,9 C 11,1 C 4,8 km/h (1 Bft)
07.06.2020 08:20 11,1 C 57 % 1007,1 hPa 0,0 l/m 1,3 km/h (1 Bft) W-SW 243 0 min 0,0 UV-I 118 W/m 2,9 C 11,1 C 1,6 km/h (1 Bft)
07.06.2020 08:19 11,1 C 57 % 1007,1 hPa 0,0 l/m 1,9 km/h (1 Bft) SW 214 0 min 0,0 UV-I 115 W/m 2,9 C 11,1 C 3,2 km/h (1 Bft)
07.06.2020 08:18 11,1 C 57 % 1007,1 hPa 0,0 l/m 1,5 km/h (1 Bft) SW 221 0 min 0,0 UV-I 114 W/m 2,9 C 11,1 C 3,2 km/h (1 Bft)
07.06.2020 08:17 11,1 C 57 % 1007,1 hPa 0,0 l/m 1,7 km/h (1 Bft) S 189 0 min 0,0 UV-I 118 W/m 2,9 C 11,1 C 4,8 km/h (1 Bft)
07.06.2020 08:16 11,1 C 57 % 1007,0 hPa 0,0 l/m 1,2 km/h (1 Bft) S 182 0 min 0,0 UV-I 121 W/m 2,9 C 11,1 C 3,2 km/h (1 Bft)
07.06.2020 08:15 11,1 C 57 % 1007,0 hPa 0,0 l/m 2,3 km/h (1 Bft) S 177 0 min 0,0 UV-I 127 W/m 2,9 C 11,1 C 3,2 km/h (1 Bft)
07.06.2020 08:14 11,0 C 58 % 1007,0 hPa 0,0 l/m 2,3 km/h (1 Bft) S 183 0 min 0,0 UV-I 135 W/m 3,1 C 11,0 C 3,2 km/h (1 Bft)
07.06.2020 08:13 11,0 C 58 % 1007,0 hPa 0,0 l/m 1,9 km/h (1 Bft) S 187 0 min 0,0 UV-I 144 W/m 3,1 C 11,0 C 4,8 km/h (1 Bft)
07.06.2020 08:12 11,0 C 58 % 1007,0 hPa 0,0 l/m 2,6 km/h (1 Bft) S-SW 202 0 min 0,0 UV-I 153 W/m 3,1 C 11,0 C 4,8 km/h (1 Bft)
07.06.2020 08:11 10,9 C 58 % 1007,0 hPa 0,0 l/m 1,7 km/h (1 Bft) S-SW 213 0 min 0,4 UV-I 165 W/m 3,0 C 10,9 C 3,2 km/h (1 Bft)
07.06.2020 08:10 10,9 C 58 % 1007,1 hPa 0,0 l/m 2,0 km/h (1 Bft) S-SW 213 0 min 0,5 UV-I 176 W/m 3,0 C 10,9 C 3,2 km/h (1 Bft)
07.06.2020 08:09 10,9 C 58 % 1007,1 hPa 0,0 l/m 3,0 km/h (1 Bft) SW 223 0 min 0,5 UV-I 183 W/m 3,0 C 10,9 C 4,8 km/h (1 Bft)
07.06.2020 08:08 10,9 C 58 % 1007,0 hPa 0,0 l/m 1,7 km/h (1 Bft) SW 221 0 min 0,5 UV-I 186 W/m 3,0 C 10,9 C 3,2 km/h (1 Bft)
07.06.2020 08:07 10,9 C 58 % 1007,1 hPa 0,0 l/m 1,7 km/h (1 Bft) SW 217 0 min 0,5 UV-I 187 W/m 3,0 C 10,9 C 3,2 km/h (1 Bft)
07.06.2020 08:06 10,9 C 58 % 1007,0 hPa 0,0 l/m 0,6 km/h (0 Bft) S-SW 198 0 min 0,5 UV-I 185 W/m 3,0 C 10,9 C 1,6 km/h (1 Bft)
07.06.2020 08:05 10,8 C 58 % 1007,0 hPa 0,0 l/m 1,1 km/h (1 Bft) S-SW 198 0 min 0,5 UV-I 182 W/m 2,9 C 10,8 C 1,6 km/h (1 Bft)
07.06.2020 08:04 10,8 C 58 % 1007,0 hPa 0,0 l/m 0,6 km/h (0 Bft) S 190 0 min 0,5 UV-I 175 W/m 2,9 C 10,8 C 1,6 km/h (1 Bft)
07.06.2020 08:03 10,8 C 58 % 1007,0 hPa 0,0 l/m 0,0 km/h (0 Bft) S 188 0 min 0,4 UV-I 168 W/m 2,9 C 10,8 C 0,0 km/h (0 Bft)
07.06.2020 08:02 10,7 C 58 % 1007,0 hPa 0,0 l/m 0,1 km/h (0 Bft) S 188 0 min 0,0 UV-I 157 W/m 2,8 C 10,7 C 1,6 km/h (1 Bft)
07.06.2020 08:01 10,7 C 58 % 1006,9 hPa 0,0 l/m 0,1 km/h (0 Bft) S 188 0 min 0,0 UV-I 145 W/m 2,8 C 10,7 C 1,6 km/h (1 Bft)
07.06.2020 08:00 10,7 C 58 % 1006,9 hPa 0,0 l/m 0,6 km/h (0 Bft) S 188 0 min 0,0 UV-I 134 W/m 2,8 C 10,7 C 1,6 km/h (1 Bft)
07.06.2020 07:59 10,7 C 58 % 1006,9 hPa 0,0 l/m 0,8 km/h (0 Bft) S 188 0 min 0,0 UV-I 124 W/m 2,8 C 10,7 C 1,6 km/h (1 Bft)
07.06.2020 07:58 10,6 C 58 % 1006,9 hPa 0,0 l/m 0,9 km/h (0 Bft) S 188 0 min 0,0 UV-I 115 W/m 2,7 C 10,6 C 3,2 km/h (1 Bft)
07.06.2020 07:57 10,6 C 58 % 1006,9 hPa 0,0 l/m 0,0 km/h (0 Bft) S 189 0 min 0,0 UV-I 108 W/m 2,7 C 10,6 C 0,0 km/h (0 Bft)
07.06.2020 07:56 10,6 C 58 % 1006,9 hPa 0,0 l/m 0,2 km/h (0 Bft) S 190 0 min 0,0 UV-I 103 W/m 2,7 C 10,6 C 1,6 km/h (1 Bft)
07.06.2020 07:55 10,6 C 58 % 1006,9 hPa 0,0 l/m 1,2 km/h (1 Bft) S 190 0 min 0,0 UV-I 101 W/m 2,7 C 10,6 C 1,6 km/h (1 Bft)
07.06.2020 07:54 10,6 C 58 % 1006,9 hPa 0,0 l/m 0,5 km/h (0 Bft) S 189 0 min 0,0 UV-I 99 W/m 2,7 C 10,6 C 1,6 km/h (1 Bft)
07.06.2020 07:53 10,6 C 58 % 1006,9 hPa 0,0 l/m 1,7 km/h (1 Bft) S 189 0 min 0,0 UV-I 98 W/m 2,7 C 10,6 C 3,2 km/h (1 Bft)
07.06.2020 07:52 10,6 C 58 % 1006,9 hPa 0,2 l/m 0,6 km/h (0 Bft) S-SW 205 0 min 0,0 UV-I 97 W/m 2,7 C 10,6 C 1,6 km/h (1 Bft)
07.06.2020 07:51 10,6 C 58 % 1006,9 hPa 0,0 l/m 0,9 km/h (0 Bft) S-SW 205 0 min 0,0 UV-I 93 W/m 2,7 C 10,6 C 3,2 km/h (1 Bft)
07.06.2020 07:50 10,5 C 58 % 1006,9 hPa 0,0 l/m 1,6 km/h (1 Bft) S-SW 205 0 min 0,0 UV-I 91 W/m 2,6 C 10,5 C 3,2 km/h (1 Bft)
07.06.2020 07:49 10,5 C 58 % 1006,9 hPa 0,0 l/m 0,9 km/h (0 Bft) S-SW 195 0 min 0,0 UV-I 88 W/m 2,6 C 10,5 C 3,2 km/h (1 Bft)
07.06.2020 07:48 10,5 C 58 % 1006,9 hPa 0,0 l/m 0,9 km/h (0 Bft) S-SW 202 0 min 0,0 UV-I 83 W/m 2,6 C 10,5 C 3,2 km/h (1 Bft)
07.06.2020 07:47 10,5 C 58 % 1006,8 hPa 0,0 l/m 1,9 km/h (1 Bft) S 178 0 min 0,0 UV-I 77 W/m 2,6 C 10,5 C 4,8 km/h (1 Bft)
07.06.2020 07:46 10,5 C 58 % 1006,8 hPa 0,0 l/m 1,5 km/h (1 Bft) S-SW 209 0 min 0,0 UV-I 72 W/m 2,6 C 10,5 C 3,2 km/h (1 Bft)
07.06.2020 07:45 10,5 C 58 % 1006,8 hPa 0,0 l/m 1,1 km/h (1 Bft) S 188 0 min 0,0 UV-I 69 W/m 2,6 C 10,5 C 1,6 km/h (1 Bft)
07.06.2020 07:44 10,5 C 58 % 1006,8 hPa 0,0 l/m 0,9 km/h (0 Bft) S 188 0 min 0,0 UV-I 66 W/m 2,6 C 10,5 C 1,6 km/h (1 Bft)
07.06.2020 07:43 10,4 C 58 % 1006,8 hPa 0,0 l/m 1,0 km/h (0 Bft) S 188 0 min 0,0 UV-I 64 W/m 2,5 C 10,4 C 3,2 km/h (1 Bft)
07.06.2020 07:42 10,5 C 58 % 1006,8 hPa 0,0 l/m 1,1 km/h (1 Bft) S-SO 163 0 min 0,0 UV-I 62 W/m 2,6 C 10,5 C 1,6 km/h (1 Bft)
07.06.2020 07:41 10,4 C 58 % 1006,8 hPa 0,0 l/m 0,1 km/h (0 Bft) S-SO 163 0 min 0,0 UV-I 62 W/m 2,5 C 10,4 C 1,6 km/h (1 Bft)
07.06.2020 07:40 10,4 C 58 % 1006,9 hPa 0,2 l/m 0,0 km/h (0 Bft) O-SO 113 0 min 0,0 UV-I 62 W/m 2,5 C 10,4 C 0,0 km/h (0 Bft)
07.06.2020 07:39 10,4 C 58 % 1006,9 hPa 0,0 l/m 0,1 km/h (0 Bft) O-SO 113 0 min 0,0 UV-I 62 W/m 2,5 C 10,4 C 1,6 km/h (1 Bft)
07.06.2020 07:38 10,4 C 58 % 1006,8 hPa 0,0 l/m 1,5 km/h (1 Bft) O-SO 113 0 min 0,0 UV-I 60 W/m 2,5 C 10,4 C 3,2 km/h (1 Bft)
07.06.2020 07:37 10,4 C 58 % 1006,8 hPa 0,0 l/m 0,9 km/h (0 Bft) O-SO 112 0 min 0,0 UV-I 60 W/m 2,5 C 10,4 C 3,2 km/h (1 Bft)
07.06.2020 07:36 10,4 C 58 % 1006,8 hPa 0,0 l/m 1,6 km/h (1 Bft) O-SO 112 0 min 0,0 UV-I 59 W/m 2,5 C 10,4 C 3,2 km/h (1 Bft)
07.06.2020 07:35 10,4 C 58 % 1006,9 hPa 0,0 l/m 1,3 km/h (1 Bft) S 176 0 min 0,0 UV-I 58 W/m 2,5 C 10,4 C 1,6 km/h (1 Bft)
07.06.2020 07:34 10,4 C 58 % 1006,9 hPa 0,0 l/m 1,0 km/h (0 Bft) S 178 0 min 0,0 UV-I 54 W/m 2,5 C 10,4 C 1,6 km/h (1 Bft)
07.06.2020 07:33 10,4 C 58 % 1006,9 hPa 0,0 l/m 1,2 km/h (1 Bft) S 178 0 min 0,0 UV-I 52 W/m 2,5 C 10,4 C 1,6 km/h (1 Bft)
07.06.2020 07:32 10,4 C 58 % 1006,9 hPa 0,2 l/m 0,3 km/h (0 Bft) SW 223 0 min 0,0 UV-I 48 W/m 2,5 C 10,4 C 1,6 km/h (1 Bft)
07.06.2020 07:31 10,4 C 58 % 1007,0 hPa 0,0 l/m 0,4 km/h (0 Bft) SW 223 0 min 0,0 UV-I 44 W/m 2,5 C 10,4 C 1,6 km/h (1 Bft)
07.06.2020 07:30 10,4 C 58 % 1007,0 hPa 0,0 l/m 0,1 km/h (0 Bft) SW 223 0 min 0,0 UV-I 40 W/m 2,5 C 10,4 C 1,6 km/h (1 Bft)
07.06.2020 07:29 10,4 C 58 % 1007,0 hPa 0,0 l/m 0,1 km/h (0 Bft) SW 223 0 min 0,0 UV-I 37 W/m 2,5 C 10,4 C 1,6 km/h (1 Bft)
07.06.2020 07:28 10,4 C 58 % 1007,0 hPa 0,0 l/m 0,1 km/h (0 Bft) SW 223 0 min 0,0 UV-I 35 W/m 2,5 C 10,4 C 1,6 km/h (1 Bft)
07.06.2020 07:27 10,4 C 58 % 1007,1 hPa 0,2 l/m 0,2 km/h (0 Bft) SW 223 0 min 0,0 UV-I 33 W/m 2,5 C 10,4 C 1,6 km/h (1 Bft)
07.06.2020 07:26 10,4 C 58 % 1007,1 hPa 0,0 l/m 1,3 km/h (1 Bft) SW 223 0 min 0,0 UV-I 31 W/m 2,5 C 10,4 C 3,2 km/h (1 Bft)
07.06.2020 07:25 10,4 C 58 % 1007,1 hPa 0,0 l/m 0,9 km/h (0 Bft) SW 225 0 min 0,0 UV-I 29 W/m 2,5 C 10,4 C 3,2 km/h (1 Bft)
07.06.2020 07:24 10,4 C 58 % 1007,1 hPa 0,0 l/m 0,0 km/h (0 Bft) S-SW 213 0 min 0,0 UV-I 27 W/m 2,5 C 10,4 C 0,0 km/h (0 Bft)
07.06.2020 07:23 10,4 C 58 % 1007,0 hPa 0,0 l/m 0,0 km/h (0 Bft) S-SW 213 0 min 0,0 UV-I 26 W/m 2,5 C 10,4 C 0,0 km/h (0 Bft)
07.06.2020 07:22 10,4 C 58 % 1007,1 hPa 0,0 l/m 0,0 km/h (0 Bft) S-SW 213 0 min 0,0 UV-I 25 W/m 2,5 C 10,4 C 0,0 km/h (0 Bft)
07.06.2020 07:21 10,4 C 58 % 1007,0 hPa 0,0 l/m 0,0 km/h (0 Bft) S-SW 213 0 min 0,0 UV-I 25 W/m 2,5 C 10,4 C 0,0 km/h (0 Bft)
07.06.2020 07:20 10,4 C 58 % 1007,0 hPa 0,0 l/m 0,0 km/h (0 Bft) S-SW 213 0 min 0,0 UV-I 25 W/m 2,5 C 10,4 C 0,0 km/h (0 Bft)
07.06.2020 07:19 10,4 C 58 % 1007,0 hPa 0,0 l/m 0,0 km/h (0 Bft) S-SW 213 0 min 0,0 UV-I 25 W/m 2,5 C 10,4 C 0,0 km/h (0 Bft)
07.06.2020 07:18 10,4 C 58 % 1006,9 hPa 0,0 l/m 0,0 km/h (0 Bft) S-SW 213 0 min 0,0 UV-I 25 W/m 2,5 C 10,4 C 0,0 km/h (0 Bft)
07.06.2020 07:17 10,3 C 58 % 1006,9 hPa 0,0 l/m 0,0 km/h (0 Bft) S-SW 213 0 min 0,0 UV-I 25 W/m 2,4 C 10,3 C 0,0 km/h (0 Bft)
07.06.2020 07:16 10,3 C 58 % 1006,9 hPa 0,0 l/m 0,0 km/h (0 Bft) S-SW 213 0 min 0,0 UV-I 25 W/m 2,4 C 10,3 C 0,0 km/h (0 Bft)
07.06.2020 07:15 10,3 C 58 % 1006,9 hPa 0,0 l/m 0,0 km/h (0 Bft) S-SW 213 0 min 0,0 UV-I 25 W/m 2,4 C 10,3 C 0,0 km/h (0 Bft)
07.06.2020 07:14 10,3 C 58 % 1006,8 hPa 0,0 l/m 0,0 km/h (0 Bft) S-SW 213 0 min 0,0 UV-I 25 W/m 2,4 C 10,3 C 0,0 km/h (0 Bft)
07.06.2020 07:13 10,3 C 58 % 1006,8 hPa 0,0 l/m 0,0 km/h (0 Bft) S-SW 213 0 min 0,0 UV-I 26 W/m 2,4 C 10,3 C 0,0 km/h (0 Bft)
07.06.2020 07:12 10,3 C 58 % 1006,8 hPa 0,0 l/m 0,0 km/h (0 Bft) S 185 0 min 0,0 UV-I 26 W/m 2,4 C 10,3 C 0,0 km/h (0 Bft)
07.06.2020 07:11 10,3 C 58 % 1006,8 hPa 0,0 l/m 0,0 km/h (0 Bft) S 185 0 min 0,0 UV-I 28 W/m 2,4 C 10,3 C 0,0 km/h (0 Bft)
07.06.2020 07:10 10,3 C 58 % 1006,8 hPa 0,2 l/m 0,0 km/h (0 Bft) S 185 0 min 0,0 UV-I 30 W/m 2,4 C 10,3 C 0,0 km/h (0 Bft)
07.06.2020 07:09 10,3 C 58 % 1006,7 hPa 0,0 l/m 0,0 km/h (0 Bft) S 185 0 min 0,0 UV-I 32 W/m 2,4 C 10,3 C 0,0 km/h (0 Bft)
07.06.2020 07:08 10,3 C 58 % 1006,7 hPa 0,0 l/m 0,0 km/h (0 Bft) S 185 0 min 0,0 UV-I 33 W/m 2,4 C 10,3 C 0,0 km/h (0 Bft)
07.06.2020 07:07 10,3 C 58 % 1006,7 hPa 0,0 l/m 0,1 km/h (0 Bft) S 185 0 min 0,0 UV-I 32 W/m 2,4 C 10,3 C 1,6 km/h (1 Bft)
07.06.2020 07:06 10,3 C 58 % 1006,7 hPa 0,0 l/m 0,0 km/h (0 Bft) S 185 0 min 0,0 UV-I 29 W/m 2,4 C 10,3 C 0,0 km/h (0 Bft)
07.06.2020 07:05 10,3 C 58 % 1006,7 hPa 0,0 l/m 0,5 km/h (0 Bft) S 185 0 min 0,0 UV-I 26 W/m 2,4 C 10,3 C 1,6 km/h (1 Bft)
07.06.2020 07:04 10,3 C 58 % 1006,7 hPa 0,0 l/m 0,6 km/h (0 Bft) S 185 0 min 0,0 UV-I 25 W/m 2,4 C 10,3 C 1,6 km/h (1 Bft)
07.06.2020 07:03 10,3 C 58 % 1006,7 hPa 0,0 l/m 0,2 km/h (0 Bft) S 185 0 min 0,0 UV-I 25 W/m 2,4 C 10,3 C 1,6 km/h (1 Bft)
07.06.2020 07:02 10,3 C 58 % 1006,6 hPa 0,0 l/m 0,5 km/h (0 Bft) S 185 0 min 0,0 UV-I 25 W/m 2,4 C 10,3 C 1,6 km/h (1 Bft)
07.06.2020 07:01 10,3 C 58 % 1006,7 hPa 0,0 l/m 0,5 km/h (0 Bft) S 185 0 min 0,0 UV-I 26 W/m 2,4 C 10,3 C 1,6 km/h (1 Bft)
07.06.2020 07:00 10,3 C 58 % 1006,6 hPa 0,0 l/m 0,5 km/h (0 Bft) S 185 0 min 0,0 UV-I 26 W/m 2,4 C 10,3 C 1,6 km/h (1 Bft)
07.06.2020 06:59 10,3 C 58 % 1006,6 hPa 0,0 l/m 0,6 km/h (0 Bft) S 185 0 min 0,0 UV-I 28 W/m 2,4 C 10,3 C 1,6 km/h (1 Bft)
07.06.2020 06:58 10,3 C 58 % 1006,6 hPa 0,0 l/m 0,8 km/h (0 Bft) S 185 0 min 0,0 UV-I 28 W/m 2,4 C 10,3 C 1,6 km/h (1 Bft)
07.06.2020 06:57 10,3 C 58 % 1006,5 hPa 0,0 l/m 0,6 km/h (0 Bft) S 186 0 min 0,0 UV-I 28 W/m 2,4 C 10,3 C 1,6 km/h (1 Bft)
07.06.2020 06:56 10,3 C 58 % 1006,6 hPa 0,0 l/m 1,1 km/h (1 Bft) S 186 0 min 0,0 UV-I 27 W/m 2,4 C 10,3 C 1,6 km/h (1 Bft)
07.06.2020 06:55 10,3 C 58 % 1006,6 hPa 0,0 l/m 0,5 km/h (0 Bft) S 186 0 min 0,0 UV-I 26 W/m 2,4 C 10,3 C 1,6 km/h (1 Bft)
07.06.2020 06:54 10,3 C 58 % 1006,6 hPa 0,2 l/m 0,0 km/h (0 Bft) S 186 0 min 0,0 UV-I 26 W/m 2,4 C 10,3 C 0,0 km/h (0 Bft)
07.06.2020 06:53 10,3 C 58 % 1006,6 hPa 0,0 l/m 0,4 km/h (0 Bft) S 186 0 min 0,0 UV-I 26 W/m 2,4 C 10,3 C 1,6 km/h (1 Bft)
07.06.2020 06:52 10,3 C 58 % 1006,7 hPa 0,0 l/m 0,5 km/h (0 Bft) S 186 0 min 0,0 UV-I 26 W/m 2,4 C 10,3 C 1,6 km/h (1 Bft)
07.06.2020 06:51 10,3 C 58 % 1006,6 hPa 0,0 l/m 0,1 km/h (0 Bft) S 186 0 min 0,0 UV-I 26 W/m 2,4 C 10,3 C 1,6 km/h (1 Bft)
07.06.2020 06:50 10,3 C 58 % 1006,7 hPa 0,0 l/m 0,1 km/h (0 Bft) S 186 0 min 0,0 UV-I 26 W/m 2,4 C 10,3 C 1,6 km/h (1 Bft)
07.06.2020 06:49 10,3 C 58 % 1006,7 hPa 0,0 l/m 0,2 km/h (0 Bft) S 186 0 min 0,0 UV-I 26 W/m 2,4 C 10,3 C 1,6 km/h (1 Bft)
07.06.2020 06:48 10,3 C 58 % 1006,7 hPa 0,0 l/m 0,4 km/h (0 Bft) S 186 0 min 0,0 UV-I 28 W/m 2,4 C 10,3 C 1,6 km/h (1 Bft)
07.06.2020 06:47 10,3 C 58 % 1006,7 hPa 0,0 l/m 0,5 km/h (0 Bft) S 186 0 min 0,0 UV-I 28 W/m 2,4 C 10,3 C 1,6 km/h (1 Bft)
07.06.2020 06:46 10,3 C 58 % 1006,7 hPa 0,0 l/m 0,3 km/h (0 Bft) S 186 0 min 0,0 UV-I 30 W/m 2,4 C 10,3 C 1,6 km/h (1 Bft)
07.06.2020 06:45 10,3 C 58 % 1006,7 hPa 0,0 l/m 0,3 km/h (0 Bft) S 186 0 min 0,0 UV-I 30 W/m 2,4 C 10,3 C 1,6 km/h (1 Bft)
07.06.2020 06:44 10,3 C 58 % 1006,7 hPa 0,0 l/m 0,6 km/h (0 Bft) S 186 0 min 0,0 UV-I 29 W/m 2,4 C 10,3 C 1,6 km/h (1 Bft)
07.06.2020 06:43 10,3 C 58 % 1006,7 hPa 0,0 l/m 0,7 km/h (0 Bft) S 187 0 min 0,0 UV-I 27 W/m 2,4 C 10,3 C 1,6 km/h (1 Bft)
07.06.2020 06:42 10,3 C 58 % 1006,7 hPa 0,0 l/m 0,8 km/h (0 Bft) S 187 0 min 0,0 UV-I 25 W/m 2,4 C 10,3 C 1,6 km/h (1 Bft)
07.06.2020 06:41 10,3 C 58 % 1006,8 hPa 0,0 l/m 1,7 km/h (1 Bft) S 187 0 min 0,0 UV-I 25 W/m 2,4 C 10,3 C 3,2 km/h (1 Bft)
07.06.2020 06:40 10,3 C 58 % 1006,8 hPa 0,0 l/m 1,7 km/h (1 Bft) S 188 0 min 0,0 UV-I 26 W/m 2,4 C 10,3 C 3,2 km/h (1 Bft)
07.06.2020 06:39 10,3 C 58 % 1006,8 hPa 0,0 l/m 1,1 km/h (1 Bft) SW 218 0 min 0,0 UV-I 26 W/m 2,4 C 10,3 C 1,6 km/h (1 Bft)
07.06.2020 06:38 10,3 C 58 % 1006,8 hPa 0,0 l/m 1,1 km/h (1 Bft) SW 218 0 min 0,0 UV-I 26 W/m 2,4 C 10,3 C 1,6 km/h (1 Bft)
07.06.2020 06:37 10,3 C 58 % 1006,7 hPa 0,0 l/m 0,9 km/h (0 Bft) SW 218 0 min 0,0 UV-I 26 W/m 2,4 C 10,3 C 1,6 km/h (1 Bft)
07.06.2020 06:36 10,3 C 58 % 1006,8 hPa 0,0 l/m 0,5 km/h (0 Bft) SW 218 0 min 0,0 UV-I 26 W/m 2,4 C 10,3 C 1,6 km/h (1 Bft)
07.06.2020 06:35 10,3 C 58 % 1006,8 hPa 0,0 l/m 0,5 km/h (0 Bft) SW 218 0 min 0,0 UV-I 26 W/m 2,4 C 10,3 C 1,6 km/h (1 Bft)
07.06.2020 06:34 10,3 C 58 % 1006,8 hPa 0,0 l/m 1,0 km/h (0 Bft) SW 218 0 min 0,0 UV-I 26 W/m 2,4 C 10,3 C 1,6 km/h (1 Bft)
07.06.2020 06:33 10,2 C 58 % 1006,8 hPa 0,0 l/m 1,1 km/h (1 Bft) SW 218 0 min 0,0 UV-I 25 W/m 2,3 C 10,2 C 1,6 km/h (1 Bft)
07.06.2020 06:32 10,2 C 58 % 1006,8 hPa 0,0 l/m 1,1 km/h (1 Bft) SW 218 0 min 0,0 UV-I 24 W/m 2,3 C 10,2 C 1,6 km/h (1 Bft)
07.06.2020 06:31 10,2 C 58 % 1006,8 hPa 0,0 l/m 0,5 km/h (0 Bft) SW 218 0 min 0,0 UV-I 23 W/m 2,3 C 10,2 C 1,6 km/h (1 Bft)
07.06.2020 06:30 10,2 C 58 % 1006,8 hPa 0,2 l/m 0,4 km/h (0 Bft) SW 218 0 min 0,0 UV-I 21 W/m 2,3 C 10,2 C 1,6 km/h (1 Bft)
07.06.2020 06:29 10,2 C 58 % 1006,8 hPa 0,0 l/m 0,1 km/h (0 Bft) SW 218 0 min 0,0 UV-I 21 W/m 2,3 C 10,2 C 1,6 km/h (1 Bft)
07.06.2020 06:28 10,2 C 58 % 1006,8 hPa 0,0 l/m 0,2 km/h (0 Bft) SW 218 0 min 0,0 UV-I 19 W/m 2,3 C 10,2 C 1,6 km/h (1 Bft)
07.06.2020 06:27 10,2 C 58 % 1006,8 hPa 0,0 l/m 0,1 km/h (0 Bft) SW 218 0 min 0,0 UV-I 19 W/m 2,3 C 10,2 C 1,6 km/h (1 Bft)
07.06.2020 06:26 10,2 C 58 % 1006,8 hPa 0,0 l/m 0,3 km/h (0 Bft) SW 218 0 min 0,0 UV-I 18 W/m 2,3 C 10,2 C 1,6 km/h (1 Bft)
07.06.2020 06:25 10,2 C 58 % 1006,8 hPa 0,0 l/m 0,2 km/h (0 Bft) SW 218 0 min 0,0 UV-I 18 W/m 2,3 C 10,2 C 1,6 km/h (1 Bft)
07.06.2020 06:24 10,2 C 58 % 1006,8 hPa 0,0 l/m 0,5 km/h (0 Bft) SW 218 0 min 0,0 UV-I 16 W/m 2,3 C 10,2 C 1,6 km/h (1 Bft)
07.06.2020 06:23 10,2 C 58 % 1006,8 hPa 0,0 l/m 0,7 km/h (0 Bft) SW 218 0 min 0,0 UV-I 14 W/m 2,3 C 10,2 C 1,6 km/h (1 Bft)
07.06.2020 06:22 10,2 C 58 % 1006,8 hPa 0,0 l/m 1,0 km/h (0 Bft) SW 218 0 min 0,0 UV-I 13 W/m 2,3 C 10,2 C 1,6 km/h (1 Bft)
07.06.2020 06:21 10,2 C 58 % 1006,8 hPa 0,0 l/m 0,4 km/h (0 Bft) SW 221 0 min 0,0 UV-I 12 W/m 2,3 C 10,2 C 1,6 km/h (1 Bft)
07.06.2020 06:20 10,2 C 58 % 1006,8 hPa 0,0 l/m 0,0 km/h (0 Bft) W-NW 282 0 min 0,0 UV-I 12 W/m 2,3 C 10,2 C 0,0 km/h (0 Bft)
07.06.2020 06:19 10,2 C 58 % 1006,8 hPa 0,0 l/m 0,0 km/h (0 Bft) W-NW 282 0 min 0,0 UV-I 12 W/m 2,3 C 10,2 C 0,0 km/h (0 Bft)
07.06.2020 06:18 10,2 C 58 % 1006,8 hPa 0,0 l/m 0,0 km/h (0 Bft) W-NW 282 0 min 0,0 UV-I 12 W/m 2,3 C 10,2 C 0,0 km/h (0 Bft)
07.06.2020 06:17 10,2 C 58 % 1006,8 hPa 0,0 l/m 0,0 km/h (0 Bft) W-NW 282 0 min 0,0 UV-I 12 W/m 2,3 C 10,2 C 0,0 km/h (0 Bft)
07.06.2020 06:16 10,2 C 58 % 1006,8 hPa 0,0 l/m 0,4 km/h (0 Bft) W-NW 282 0 min 0,0 UV-I 14 W/m 2,3 C 10,2 C 1,6 km/h (1 Bft)
07.06.2020 06:15 10,2 C 58 % 1006,8 hPa 0,0 l/m 0,3 km/h (0 Bft) W-NW 282 0 min 0,0 UV-I 14 W/m 2,3 C 10,2 C 1,6 km/h (1 Bft)
07.06.2020 06:14 10,2 C 58 % 1006,8 hPa 0,0 l/m 0,1 km/h (0 Bft) W-NW 282 0 min 0,0 UV-I 14 W/m 2,3 C 10,2 C 1,6 km/h (1 Bft)
07.06.2020 06:13 10,1 C 58 % 1006,8 hPa 0,0 l/m 0,1 km/h (0 Bft) W-NW 282 0 min 0,0 UV-I 14 W/m 2,2 C 10,1 C 1,6 km/h (1 Bft)
07.06.2020 06:12 10,2 C 58 % 1006,8 hPa 0,0 l/m 0,2 km/h (0 Bft) W-NW 282 0 min 0,0 UV-I 14 W/m 2,3 C 10,2 C 1,6 km/h (1 Bft)
07.06.2020 06:11 10,2 C 58 % 1006,7 hPa 0,0 l/m 0,0 km/h (0 Bft) W-NW 282 0 min 0,0 UV-I 14 W/m 2,3 C 10,2 C 0,0 km/h (0 Bft)
07.06.2020 06:10 10,2 C 58 % 1006,7 hPa 0,0 l/m 0,0 km/h (0 Bft) W-NW 282 0 min 0,0 UV-I 14 W/m 2,3 C 10,2 C 0,0 km/h (0 Bft)
07.06.2020 06:09 10,1 C 58 % 1006,7 hPa 0,0 l/m 0,0 km/h (0 Bft) W-NW 282 0 min 0,0 UV-I 14 W/m 2,2 C 10,1 C 0,0 km/h (0 Bft)
07.06.2020 06:08 10,1 C 58 % 1006,7 hPa 0,0 l/m 0,0 km/h (0 Bft) W-NW 282 0 min 0,0 UV-I 14 W/m 2,2 C 10,1 C 0,0 km/h (0 Bft)
07.06.2020 06:07 10,2 C 58 % 1006,7 hPa 0,0 l/m 0,0 km/h (0 Bft) W-NW 282 0 min 0,0 UV-I 14 W/m 2,3 C 10,2 C 0,0 km/h (0 Bft)
07.06.2020 06:06 10,2 C 58 % 1006,7 hPa 0,0 l/m 0,0 km/h (0 Bft) W-NW 282 0 min 0,0 UV-I 14 W/m 2,3 C 10,2 C 0,0 km/h (0 Bft)
07.06.2020 06:05 10,1 C 58 % 1006,8 hPa 0,0 l/m 0,0 km/h (0 Bft) W-NW 282 0 min 0,0 UV-I 14 W/m 2,2 C 10,1 C 0,0 km/h (0 Bft)
07.06.2020 06:04 10,2 C 58 % 1006,7 hPa 0,0 l/m 0,3 km/h (0 Bft) W-NW 282 0 min 0,0 UV-I 12 W/m 2,3 C 10,2 C 1,6 km/h (1 Bft)
07.06.2020 06:03 10,1 C 58 % 1006,8 hPa 0,2 l/m 0,4 km/h (0 Bft) W-NW 282 0 min 0,0 UV-I 12 W/m 2,2 C 10,1 C 1,6 km/h (1 Bft)
07.06.2020 06:02 10,1 C 58 % 1006,8 hPa 0,0 l/m 0,7 km/h (0 Bft) W-NW 282 0 min 0,0 UV-I 12 W/m 2,2 C 10,1 C 3,2 km/h (1 Bft)
07.06.2020 06:01 10,1 C 58 % 1006,7 hPa 0,0 l/m 0,5 km/h (0 Bft) W 281 0 min 0,0 UV-I 11 W/m 2,2 C 10,1 C 1,6 km/h (1 Bft)
07.06.2020 06:00 10,1 C 58 % 1006,8 hPa 0,0 l/m 1,1 km/h (1 Bft) W 281 0 min 0,0 UV-I 9 W/m 2,2 C 10,1 C 3,2 km/h (1 Bft)
07.06.2020 05:59 10,1 C 58 % 1006,7 hPa 0,0 l/m 0,2 km/h (0 Bft) W 281 0 min 0,0 UV-I 6 W/m 2,2 C 10,1 C 1,6 km/h (1 Bft)
07.06.2020 05:58 10,1 C 58 % 1006,8 hPa 0,0 l/m 0,5 km/h (0 Bft) W 281 0 min 0,0 UV-I 3 W/m 2,2 C 10,1 C 1,6 km/h (1 Bft)
07.06.2020 05:57 10,1 C 58 % 1006,8 hPa 0,0 l/m 1,3 km/h (1 Bft) W 281 0 min 0,0 UV-I 0 W/m 2,2 C 10,1 C 3,2 km/h (1 Bft)
07.06.2020 05:56 10,1 C 58 % 1006,7 hPa 0,2 l/m 1,5 km/h (1 Bft) W 281 0 min 0,0 UV-I 0 W/m 2,2 C 10,1 C 3,2 km/h (1 Bft)
07.06.2020 05:55 10,1 C 58 % 1006,7 hPa 0,2 l/m 0,6 km/h (0 Bft) NW 312 0 min 0,0 UV-I 0 W/m 2,2 C 10,1 C 1,6 km/h (1 Bft)
07.06.2020 05:54 10,1 C 58 % 1006,7 hPa 0,0 l/m 0,7 km/h (0 Bft) NW 313 0 min 0,0 UV-I 0 W/m 2,2 C 10,1 C 1,6 km/h (1 Bft)
07.06.2020 05:53 10,1 C 58 % 1006,7 hPa 0,0 l/m 2,5 km/h (1 Bft) NW 313 0 min 0,0 UV-I 0 W/m 2,2 C 10,1 C 3,2 km/h (1 Bft)
07.06.2020 05:52 10,2 C 58 % 1006,7 hPa 0,2 l/m 3,2 km/h (1 Bft) NW 313 0 min 0,0 UV-I 0 W/m 2,3 C 10,2 C 4,8 km/h (1 Bft)
07.06.2020 05:51 10,1 C 58 % 1006,6 hPa 0,0 l/m 4,3 km/h (1 Bft) W-NW 302 0 min 0,0 UV-I 0 W/m 2,2 C 10,1 C 6,4 km/h (2 Bft)
07.06.2020 05:50 10,1 C 58 % 1006,4 hPa 0,0 l/m 2,3 km/h (1 Bft) NW 306 0 min 0,0 UV-I 0 W/m 2,2 C 10,1 C 4,8 km/h (1 Bft)
07.06.2020 05:49 10,1 C 58 % 1006,4 hPa 0,0 l/m 1,4 km/h (1 Bft) O-SO 111 0 min 0,0 UV-I 0 W/m 2,2 C 10,1 C 3,2 km/h (1 Bft)
07.06.2020 05:48 10,1 C 58 % 1006,3 hPa 0,0 l/m 1,4 km/h (1 Bft) O-SO 113 0 min 0,0 UV-I 0 W/m 2,2 C 10,1 C 1,6 km/h (1 Bft)
07.06.2020 05:47 10,1 C 58 % 1006,3 hPa 0,2 l/m 0,3 km/h (0 Bft) O-SO 113 0 min 0,0 UV-I 0 W/m 2,2 C 10,1 C 1,6 km/h (1 Bft)
07.06.2020 05:46 10,1 C 58 % 1006,4 hPa 0,0 l/m 0,1 km/h (0 Bft) O-SO 113 0 min 0,0 UV-I 2 W/m 2,2 C 10,1 C 1,6 km/h (1 Bft)
07.06.2020 05:45 10,1 C 58 % 1006,4 hPa 0,0 l/m 0,1 km/h (0 Bft) O-SO 113 0 min 0,0 UV-I 5 W/m 2,2 C 10,1 C 1,6 km/h (1 Bft)
07.06.2020 05:44 10,1 C 58 % 1006,4 hPa 0,0 l/m 0,5 km/h (0 Bft) O-SO 113 0 min 0,0 UV-I 5 W/m 2,2 C 10,1 C 1,6 km/h (1 Bft)
07.06.2020 05:43 10,1 C 58 % 1006,3 hPa 0,0 l/m 0,1 km/h (0 Bft) O-SO 114 0 min 0,0 UV-I 5 W/m 2,2 C 10,1 C 1,6 km/h (1 Bft)
07.06.2020 05:42 10,1 C 58 % 1006,3 hPa 0,0 l/m 0,0 km/h (0 Bft) O-SO 114 0 min 0,0 UV-I 7 W/m 2,2 C 10,1 C 0,0 km/h (0 Bft)
07.06.2020 05:41 10,1 C 58 % 1006,3 hPa 0,0 l/m 0,0 km/h (0 Bft) O-SO 114 0 min 0,0 UV-I 8 W/m 2,2 C 10,1 C 0,0 km/h (0 Bft)
07.06.2020 05:40 10,1 C 58 % 1006,3 hPa 0,0 l/m 0,0 km/h (0 Bft) O-SO 114 0 min 0,0 UV-I 8 W/m 2,2 C 10,1 C 0,0 km/h (0 Bft)
07.06.2020 05:39 10,1 C 58 % 1006,3 hPa 0,0 l/m 0,0 km/h (0 Bft) O-SO 114 0 min 0,0 UV-I 7 W/m 2,2 C 10,1 C 0,0 km/h (0 Bft)
07.06.2020 05:38 10,1 C 58 % 1006,3 hPa 0,0 l/m 0,0 km/h (0 Bft) O-SO 114 0 min 0,0 UV-I 7 W/m 2,2 C 10,1 C 0,0 km/h (0 Bft)
07.06.2020 05:37 10,1 C 58 % 1006,2 hPa 0,0 l/m 0,0 km/h (0 Bft) O-SO 114 0 min 0,0 UV-I 7 W/m 2,2 C 10,1 C 0,0 km/h (0 Bft)
07.06.2020 05:36 10,1 C 58 % 1006,2 hPa 0,0 l/m 0,0 km/h (0 Bft) O-SO 114 0 min 0,0 UV-I 7 W/m 2,2 C 10,1 C 0,0 km/h (0 Bft)
07.06.2020 05:35 10,1 C 58 % 1006,2 hPa 0,2 l/m 0,0 km/h (0 Bft) O-SO 114 0 min 0,0 UV-I 3 W/m 2,2 C 10,1 C 0,0 km/h (0 Bft)
07.06.2020 05:34 10,1 C 58 % 1006,2 hPa 0,0 l/m 0,0 km/h (0 Bft) O-SO 114 0 min 0,0 UV-I 0 W/m 2,2 C 10,1 C 0,0 km/h (0 Bft)
07.06.2020 05:33 10,1 C 58 % 1006,2 hPa 0,0 l/m 0,0 km/h (0 Bft) O-SO 114 0 min 0,0 UV-I 0 W/m 2,2 C 10,1 C 0,0 km/h (0 Bft)
07.06.2020 05:32 10,1 C 58 % 1006,2 hPa 0,0 l/m 0,0 km/h (0 Bft) O-SO 114 0 min 0,0 UV-I 0 W/m 2,2 C 10,1 C 0,0 km/h (0 Bft)
07.06.2020 05:31 10,1 C 58 % 1006,2 hPa 0,2 l/m 0,0 km/h (0 Bft) O-SO 114 0 min 0,0 UV-I 0 W/m 2,2 C 10,1 C 0,0 km/h (0 Bft)
07.06.2020 05:30 10,0 C 58 % 1006,2 hPa 0,0 l/m 0,0 km/h (0 Bft) O-SO 114 0 min 0,0 UV-I 0 W/m 2,1 C 10,0 C 0,0 km/h (0 Bft)
07.06.2020 05:29 10,0 C 58 % 1006,2 hPa 0,0 l/m 0,0 km/h (0 Bft) O-SO 114 0 min 0,0 UV-I 0 W/m 2,1 C 10,0 C 0,0 km/h (0 Bft)
07.06.2020 05:28 10,0 C 58 % 1006,2 hPa 0,0 l/m 0,1 km/h (0 Bft) O-SO 114 0 min 0,0 UV-I 2 W/m 2,1 C 10,0 C 1,6 km/h (1 Bft)
07.06.2020 05:27 10,0 C 58 % 1006,2 hPa 0,0 l/m 0,0 km/h (0 Bft) O-SO 114 0 min 0,0 UV-I 5 W/m 2,1 C 10,0 C 0,0 km/h (0 Bft)
07.06.2020 05:26 10,0 C 58 % 1006,2 hPa 0,0 l/m 0,0 km/h (0 Bft) O-SO 114 0 min 0,0 UV-I 1 W/m 2,1 C 10,0 C 0,0 km/h (0 Bft)
07.06.2020 05:25 10,0 C 58 % 1006,2 hPa 0,0 l/m 0,0 km/h (0 Bft) O-SO 114 0 min 0,0 UV-I 0 W/m 2,1 C 10,0 C 0,0 km/h (0 Bft)
07.06.2020 05:24 10,0 C 58 % 1006,2 hPa 0,0 l/m 0,0 km/h (0 Bft) O-SO 114 0 min 0,0 UV-I 0 W/m 2,1 C 10,0 C 0,0 km/h (0 Bft)
07.06.2020 05:23 10,0 C 58 % 1006,2 hPa 0,0 l/m 0,1 km/h (0 Bft) O-SO 114 0 min 0,0 UV-I 0 W/m 2,1 C 10,0 C 1,6 km/h (1 Bft)
07.06.2020 05:22 10,0 C 58 % 1006,2 hPa 0,0 l/m 0,0 km/h (0 Bft) O-SO 114 0 min 0,0 UV-I 0 W/m 2,1 C 10,0 C 0,0 km/h (0 Bft)
07.06.2020 05:21 10,0 C 58 % 1006,2 hPa 0,0 l/m 0,1 km/h (0 Bft) O-SO 114 0 min 0,0 UV-I 0 W/m 2,1 C 10,0 C 1,6 km/h (1 Bft)
07.06.2020 05:20 10,0 C 58 % 1006,2 hPa 0,0 l/m 0,0 km/h (0 Bft) O-SO 114 0 min 0,0 UV-I 0 W/m 2,1 C 10,0 C 0,0 km/h (0 Bft)
07.06.2020 05:19 10,0 C 58 % 1006,1 hPa 0,0 l/m 0,0 km/h (0 Bft) O-SO 114 0 min 0,0 UV-I 0 W/m 2,1 C 10,0 C 0,0 km/h (0 Bft)
07.06.2020 05:18 10,0 C 58 % 1006,1 hPa 0,0 l/m 0,0 km/h (0 Bft) O-SO 114 0 min 0,0 UV-I 0 W/m 2,1 C 10,0 C 0,0 km/h (0 Bft)
07.06.2020 05:17 10,0 C 58 % 1006,0 hPa 0,2 l/m 0,0 km/h (0 Bft) O-SO 114 0 min 0,0 UV-I 0 W/m 2,1 C 10,0 C 0,0 km/h (0 Bft)
07.06.2020 05:16 10,0 C 58 % 1006,0 hPa 0,0 l/m 0,0 km/h (0 Bft) O-SO 114 0 min 0,0 UV-I 0 W/m 2,1 C 10,0 C 0,0 km/h (0 Bft)
07.06.2020 05:15 10,0 C 58 % 1006,0 hPa 0,0 l/m 0,0 km/h (0 Bft) O-SO 114 0 min 0,0 UV-I 0 W/m 2,1 C 10,0 C 0,0 km/h (0 Bft)
07.06.2020 05:14 10,0 C 58 % 1006,1 hPa 0,0 l/m 0,0 km/h (0 Bft) O-SO 114 0 min 0,0 UV-I 0 W/m 2,1 C 10,0 C 0,0 km/h (0 Bft)
07.06.2020 05:13 10,0 C 58 % 1006,1 hPa 0,0 l/m 0,0 km/h (0 Bft) O-SO 114 0 min 0,0 UV-I 0 W/m 2,1 C 10,0 C 0,0 km/h (0 Bft)
07.06.2020 05:12 9,9 C 58 % 1006,1 hPa 0,0 l/m 0,0 km/h (0 Bft) O-SO 114 0 min 0,0 UV-I 0 W/m 2,0 C 9,9 C 0,0 km/h (0 Bft)
07.06.2020 05:11 9,9 C 58 % 1006,1 hPa 0,0 l/m 0,0 km/h (0 Bft) O-SO 114 0 min 0,0 UV-I 0 W/m 2,0 C 9,9 C 0,0 km/h (0 Bft)
07.06.2020 05:10 9,9 C 58 % 1006,1 hPa 0,2 l/m 0,0 km/h (0 Bft) O-SO 114 0 min 0,0 UV-I 0 W/m 2,0 C 9,9 C 0,0 km/h (0 Bft)
07.06.2020 05:09 9,9 C 58 % 1006,1 hPa 0,0 l/m 0,0 km/h (0 Bft) O-SO 114 0 min 0,0 UV-I 0 W/m 2,0 C 9,9 C 0,0 km/h (0 Bft)
07.06.2020 05:08 9,9 C 58 % 1006,1 hPa 0,0 l/m 0,0 km/h (0 Bft) O-SO 114 0 min 0,0 UV-I 0 W/m 2,0 C 9,9 C 0,0 km/h (0 Bft)
07.06.2020 05:07 9,9 C 58 % 1006,1 hPa 0,0 l/m 0,0 km/h (0 Bft) O-SO 114 0 min 0,0 UV-I 0 W/m 2,0 C 9,9 C 0,0 km/h (0 Bft)
07.06.2020 05:06 9,9 C 58 % 1006,0 hPa 0,0 l/m 0,0 km/h (0 Bft) O-SO 114 0 min 0,0 UV-I 0 W/m 2,0 C 9,9 C 0,0 km/h (0 Bft)
07.06.2020 05:05 9,9 C 58 % 1006,0 hPa 0,0 l/m 0,0 km/h (0 Bft) O-SO 114 0 min 0,0 UV-I 0 W/m 2,0 C 9,9 C 0,0 km/h (0 Bft)
07.06.2020 05:04 9,9 C 58 % 1006,1 hPa 0,0 l/m 0,0 km/h (0 Bft) O-SO 114 0 min 0,0 UV-I 0 W/m 2,0 C 9,9 C 0,0 km/h (0 Bft)
07.06.2020 05:03 9,9 C 58 % 1006,0 hPa 0,0 l/m 0,1 km/h (0 Bft) O-SO 114 0 min 0,0 UV-I 0 W/m 2,0 C 9,9 C 1,6 km/h (1 Bft)
07.06.2020 05:02 9,9 C 58 % 1006,0 hPa 0,0 l/m 0,3 km/h (0 Bft) O-SO 114 0 min 0,0 UV-I 0 W/m 2,0 C 9,9 C 1,6 km/h (1 Bft)
07.06.2020 05:01 9,9 C 58 % 1006,0 hPa 0,0 l/m 0,3 km/h (0 Bft) O-SO 113 0 min 0,0 UV-I 0 W/m 2,0 C 9,9 C 1,6 km/h (1 Bft)
07.06.2020 05:00 9,9 C 58 % 1006,0 hPa 0,0 l/m 0,1 km/h (0 Bft) O-SO 113 0 min 0,0 UV-I 0 W/m 2,0 C 9,9 C 1,6 km/h (1 Bft)
07.06.2020 04:59 9,9 C 58 % 1005,9 hPa 0,0 l/m 0,0 km/h (0 Bft) O-SO 113 0 min 0,0 UV-I 0 W/m 2,0 C 9,9 C 0,0 km/h (0 Bft)
07.06.2020 04:58 9,9 C 58 % 1006,0 hPa 0,0 l/m 0,0 km/h (0 Bft) O-SO 113 0 min 0,0 UV-I 0 W/m 2,0 C 9,9 C 0,0 km/h (0 Bft)
07.06.2020 04:57 9,9 C 58 % 1005,9 hPa 0,0 l/m 0,0 km/h (0 Bft) O-SO 113 0 min 0,0 UV-I 0 W/m 2,0 C 9,9 C 0,0 km/h (0 Bft)
07.06.2020 04:56 9,9 C 58 % 1005,9 hPa 0,0 l/m 0,0 km/h (0 Bft) O-SO 113 0 min 0,0 UV-I 0 W/m 2,0 C 9,9 C 0,0 km/h (0 Bft)
07.06.2020 04:55 9,9 C 58 % 1005,9 hPa 0,0 l/m 0,0 km/h (0 Bft) O-SO 113 0 min 0,0 UV-I 0 W/m 2,0 C 9,9 C 0,0 km/h (0 Bft)
07.06.2020 04:54 9,9 C 58 % 1005,8 hPa 0,0 l/m 0,0 km/h (0 Bft) O-SO 113 0 min 0,0 UV-I 0 W/m 2,0 C 9,9 C 0,0 km/h (0 Bft)
07.06.2020 04:53 9,9 C 58 % 1005,9 hPa 0,2 l/m 0,0 km/h (0 Bft) O-SO 113 0 min 0,0 UV-I 0 W/m 2,0 C 9,9 C 0,0 km/h (0 Bft)
07.06.2020 04:52 9,9 C 58 % 1005,8 hPa 0,0 l/m 0,0 km/h (0 Bft) O-SO 113 0 min 0,0 UV-I 0 W/m 2,0 C 9,9 C 0,0 km/h (0 Bft)
07.06.2020 04:51 9,8 C 58 % 1005,8 hPa 0,0 l/m 0,0 km/h (0 Bft) O-SO 113 0 min 0,0 UV-I 0 W/m 1,9 C 9,8 C 0,0 km/h (0 Bft)
07.06.2020 04:50 9,8 C 58 % 1005,9 hPa 0,0 l/m 0,0 km/h (0 Bft) O-SO 113 0 min 0,0 UV-I 0 W/m 1,9 C 9,8 C 0,0 km/h (0 Bft)
07.06.2020 04:49 9,8 C 58 % 1005,9 hPa 0,2 l/m 0,0 km/h (0 Bft) O-SO 113 0 min 0,0 UV-I 0 W/m 1,9 C 9,8 C 0,0 km/h (0 Bft)
07.06.2020 04:48 9,8 C 58 % 1006,0 hPa 0,0 l/m 0,1 km/h (0 Bft) O-SO 113 0 min 0,0 UV-I 0 W/m 1,9 C 9,8 C 1,6 km/h (1 Bft)
07.06.2020 04:47 9,8 C 58 % 1006,0 hPa 0,0 l/m 0,4 km/h (0 Bft) O-SO 113 0 min 0,0 UV-I 0 W/m 1,9 C 9,8 C 1,6 km/h (1 Bft)
07.06.2020 04:46 9,8 C 58 % 1005,9 hPa 0,2 l/m 0,2 km/h (0 Bft) O-SO 113 0 min 0,0 UV-I 0 W/m 1,9 C 9,8 C 1,6 km/h (1 Bft)
07.06.2020 04:45 9,8 C 58 % 1005,9 hPa 0,0 l/m 0,0 km/h (0 Bft) O-SO 113 0 min 0,0 UV-I 0 W/m 1,9 C 9,8 C 0,0 km/h (0 Bft)
07.06.2020 04:44 9,8 C 58 % 1005,8 hPa 0,0 l/m 0,1 km/h (0 Bft) O-SO 113 0 min 0,0 UV-I 0 W/m 1,9 C 9,8 C 1,6 km/h (1 Bft)
07.06.2020 04:43 9,8 C 58 % 1005,8 hPa 0,0 l/m 0,1 km/h (0 Bft) O-SO 113 0 min 0,0 UV-I 0 W/m 1,9 C 9,8 C 1,6 km/h (1 Bft)
07.06.2020 04:42 9,8 C 58 % 1005,9 hPa 0,0 l/m 0,1 km/h (0 Bft) O-SO 113 0 min 0,0 UV-I 0 W/m 1,9 C 9,8 C 1,6 km/h (1 Bft)
07.06.2020 04:41 9,8 C 58 % 1005,8 hPa 0,0 l/m 0,0 km/h (0 Bft) O-SO 113 0 min 0,0 UV-I 0 W/m 1,9 C 9,8 C 0,0 km/h (0 Bft)
07.06.2020 04:40 9,8 C 58 % 1005,9 hPa 0,0 l/m 0,1 km/h (0 Bft) O-SO 113 0 min 0,0 UV-I 0 W/m 1,9 C 9,8 C 1,6 km/h (1 Bft)
07.06.2020 04:39 9,8 C 58 % 1005,8 hPa 0,2 l/m 0,0 km/h (0 Bft) O-SO 113 0 min 0,0 UV-I 0 W/m 1,9 C 9,8 C 0,0 km/h (0 Bft)
07.06.2020 04:38 9,8 C 58 % 1005,9 hPa 0,0 l/m 0,0 km/h (0 Bft) O-SO 113 0 min 0,0 UV-I 0 W/m 1,9 C 9,8 C 0,0 km/h (0 Bft)
07.06.2020 04:37 9,8 C 58 % 1005,9 hPa 0,0 l/m 0,0 km/h (0 Bft) O-SO 113 0 min 0,0 UV-I 0 W/m 1,9 C 9,8 C 0,0 km/h (0 Bft)
07.06.2020 04:36 9,8 C 58 % 1005,9 hPa 0,0 l/m 0,0 km/h (0 Bft) O-SO 113 0 min 0,0 UV-I 0 W/m 1,9 C 9,8 C 0,0 km/h (0 Bft)
07.06.2020 04:35 9,8 C 58 % 1005,9 hPa 0,0 l/m 0,0 km/h (0 Bft) O-SO 113 0 min 0,0 UV-I 0 W/m 1,9 C 9,8 C 0,0 km/h (0 Bft)
07.06.2020 04:34 9,8 C 58 % 1005,9 hPa 0,0 l/m 0,0 km/h (0 Bft) O-SO 113 0 min 0,0 UV-I 0 W/m 1,9 C 9,8 C 0,0 km/h (0 Bft)
07.06.2020 04:33 9,8 C 58 % 1005,9 hPa 0,0 l/m 0,1 km/h (0 Bft) O-SO 113 0 min 0,0 UV-I 0 W/m 1,9 C 9,8 C 1,6 km/h (1 Bft)
07.06.2020 04:32 9,7 C 58 % 1005,9 hPa 0,0 l/m 0,2 km/h (0 Bft) O-SO 113 0 min 0,0 UV-I 0 W/m 1,8 C 9,7 C 1,6 km/h (1 Bft)
07.06.2020 04:31 9,7 C 58 % 1005,9 hPa 0,0 l/m 0,1 km/h (0 Bft) O-SO 113 0 min 0,0 UV-I 0 W/m 1,8 C 9,7 C 1,6 km/h (1 Bft)
07.06.2020 04:30 9,7 C 58 % 1005,9 hPa 0,0 l/m 0,0 km/h (0 Bft) O-SO 113 0 min 0,0 UV-I 0 W/m 1,8 C 9,7 C 0,0 km/h (0 Bft)
07.06.2020 04:29 9,7 C 58 % 1005,9 hPa 0,0 l/m 0,0 km/h (0 Bft) O-SO 113 0 min 0,0 UV-I 0 W/m 1,8 C 9,7 C 0,0 km/h (0 Bft)
07.06.2020 04:28 9,7 C 58 % 1005,9 hPa 0,0 l/m 0,3 km/h (0 Bft) O-SO 113 0 min 0,0 UV-I 0 W/m 1,8 C 9,7 C 1,6 km/h (1 Bft)
07.06.2020 04:27 9,7 C 58 % 1006,0 hPa 0,0 l/m 0,5 km/h (0 Bft) O-SO 113 0 min 0,0 UV-I 0 W/m 1,8 C 9,7 C 1,6 km/h (1 Bft)
07.06.2020 04:26 9,7 C 58 % 1006,0 hPa 0,0 l/m 0,0 km/h (0 Bft) O-SO 113 0 min 0,0 UV-I 0 W/m 1,8 C 9,7 C 0,0 km/h (0 Bft)
07.06.2020 04:25 9,7 C 58 % 1005,9 hPa 0,0 l/m 0,0 km/h (0 Bft) O-SO 113 0 min 0,0 UV-I 0 W/m 1,8 C 9,7 C 0,0 km/h (0 Bft)
07.06.2020 04:24 9,7 C 58 % 1005,9 hPa 0,0 l/m 0,0 km/h (0 Bft) O-SO 113 0 min 0,0 UV-I 0 W/m 1,8 C 9,7 C 0,0 km/h (0 Bft)
07.06.2020 04:23 9,7 C 58 % 1005,9 hPa 0,0 l/m 0,0 km/h (0 Bft) O-SO 113 0 min 0,0 UV-I 0 W/m 1,8 C 9,7 C 0,0 km/h (0 Bft)
07.06.2020 04:22 9,7 C 58 % 1005,9 hPa 0,0 l/m 0,0 km/h (0 Bft) O-SO 113 0 min 0,0 UV-I 0 W/m 1,8 C 9,7 C 0,0 km/h (0 Bft)
07.06.2020 04:21 9,7 C 58 % 1005,9 hPa 0,0 l/m 0,0 km/h (0 Bft) O-SO 113 0 min 0,0 UV-I 0 W/m 1,8 C 9,7 C 0,0 km/h (0 Bft)
07.06.2020 04:20 9,7 C 58 % 1005,9 hPa 0,0 l/m 0,0 km/h (0 Bft) O-SO 113 0 min 0,0 UV-I 0 W/m 1,8 C 9,7 C 0,0 km/h (0 Bft)
07.06.2020 04:19 9,7 C 58 % 1006,0 hPa 0,0 l/m 0,0 km/h (0 Bft) O-SO 113 0 min 0,0 UV-I 0 W/m 1,8 C 9,7 C 0,0 km/h (0 Bft)
07.06.2020 04:18 9,7 C 58 % 1005,9 hPa 0,0 l/m 0,0 km/h (0 Bft) O-SO 113 0 min 0,0 UV-I 0 W/m 1,8 C 9,7 C 0,0 km/h (0 Bft)
07.06.2020 04:16 9,7 C 58 % 1006,0 hPa 0,0 l/m 0,0 km/h (0 Bft) N 0 0 min 0,0 UV-I 0 W/m 1,8 C 9,7 C 0,0 km/h (0 Bft)
07.06.2020 04:15 9,7 C 58 % 1006,0 hPa 0,0 l/m 0,0 km/h (0 Bft) O-SO 113 0 min 0,0 UV-I 0 W/m 1,8 C 9,7 C 0,0 km/h (0 Bft)
07.06.2020 04:14 9,7 C 58 % 1006,0 hPa 0,0 l/m 0,5 km/h (0 Bft) O-SO 113 0 min 0,0 UV-I 0 W/m 1,8 C 9,7 C 1,6 km/h (1 Bft)
07.06.2020 04:13 9,7 C 58 % 1006,1 hPa 0,0 l/m 0,6 km/h (0 Bft) O-SO 113 0 min 0,0 UV-I 0 W/m 1,8 C 9,7 C 1,6 km/h (1 Bft)
07.06.2020 04:12 9,7 C 58 % 1006,0 hPa 0,0 l/m 0,0 km/h (0 Bft) O-SO 113 0 min 0,0 UV-I 0 W/m 1,8 C 9,7 C 0,0 km/h (0 Bft)
07.06.2020 04:11 9,7 C 58 % 1006,0 hPa 0,0 l/m 0,0 km/h (0 Bft) O-SO 113 0 min 0,0 UV-I 0 W/m 1,8 C 9,7 C 0,0 km/h (0 Bft)
07.06.2020 04:10 9,7 C 58 % 1006,0 hPa 0,0 l/m 0,0 km/h (0 Bft) O-SO 113 0 min 0,0 UV-I 0 W/m 1,8 C 9,7 C 0,0 km/h (0 Bft)
07.06.2020 04:09 9,7 C 58 % 1006,0 hPa 0,0 l/m 0,0 km/h (0 Bft) O-SO 113 0 min 0,0 UV-I 0 W/m 1,8 C 9,7 C 0,0 km/h (0 Bft)
07.06.2020 04:08 9,7 C 58 % 1006,0 hPa 0,0 l/m 0,0 km/h (0 Bft) O-SO 113 0 min 0,0 UV-I 0 W/m 1,8 C 9,7 C 0,0 km/h (0 Bft)
07.06.2020 04:07 9,7 C 58 % 1006,0 hPa 0,0 l/m 0,0 km/h (0 Bft) O-SO 113 0 min 0,0 UV-I 0 W/m 1,8 C 9,7 C 0,0 km/h (0 Bft)
07.06.2020 04:06 9,7 C 58 % 1006,0 hPa 0,0 l/m 0,0 km/h (0 Bft) O-SO 113 0 min 0,0 UV-I 0 W/m 1,8 C 9,7 C 0,0 km/h (0 Bft)
07.06.2020 04:05 9,7 C 58 % 1006,0 hPa 0,0 l/m 0,0 km/h (0 Bft) O-SO 113 0 min 0,0 UV-I 0 W/m 1,8 C 9,7 C 0,0 km/h (0 Bft)
07.06.2020 04:04 9,7 C 58 % 1006,0 hPa 0,0 l/m 0,0 km/h (0 Bft) O-SO 113 0 min 0,0 UV-I 0 W/m 1,8 C 9,7 C 0,0 km/h (0 Bft)
07.06.2020 04:03 9,7 C 58 % 1006,0 hPa 0,0 l/m 0,0 km/h (0 Bft) O-SO 113 0 min 0,0 UV-I 0 W/m 1,8 C 9,7 C 0,0 km/h (0 Bft)
07.06.2020 04:02 9,7 C 58 % 1006,0 hPa 0,0 l/m 0,0 km/h (0 Bft) O-SO 113 0 min 0,0 UV-I 0 W/m 1,8 C 9,7 C 0,0 km/h (0 Bft)
07.06.2020 04:01 9,7 C 58 % 1006,0 hPa 0,0 l/m 0,0 km/h (0 Bft) O-SO 113 0 min 0,0 UV-I 0 W/m 1,8 C 9,7 C 0,0 km/h (0 Bft)
07.06.2020 04:00 9,7 C 58 % 1006,1 hPa 0,0 l/m 0,0 km/h (0 Bft) O-SO 113 0 min 0,0 UV-I 0 W/m 1,8 C 9,7 C 0,0 km/h (0 Bft)
07.06.2020 03:59 9,7 C 58 % 1006,0 hPa 0,0 l/m 0,0 km/h (0 Bft) O-SO 113 0 min 0,0 UV-I 0 W/m 1,8 C 9,7 C 0,0 km/h (0 Bft)
07.06.2020 03:58 9,7 C 58 % 1006,1 hPa 0,0 l/m 0,0 km/h (0 Bft) O-SO 113 0 min 0,0 UV-I 0 W/m 1,8 C 9,7 C 0,0 km/h (0 Bft)
07.06.2020 03:57 9,7 C 58 % 1006,1 hPa 0,0 l/m 0,0 km/h (0 Bft) O-SO 113 0 min 0,0 UV-I 0 W/m 1,8 C 9,7 C 0,0 km/h (0 Bft)
07.06.2020 03:56 9,7 C 58 % 1006,0 hPa 0,0 l/m 0,0 km/h (0 Bft) O-SO 113 0 min 0,0 UV-I 0 W/m 1,8 C 9,7 C 0,0 km/h (0 Bft)
07.06.2020 03:55 9,7 C 58 % 1006,0 hPa 0,0 l/m 0,0 km/h (0 Bft) O-SO 113 0 min 0,0 UV-I 0 W/m 1,8 C 9,7 C 0,0 km/h (0 Bft)
07.06.2020 03:54 9,7 C 58 % 1006,0 hPa 0,0 l/m 0,0 km/h (0 Bft) O-SO 113 0 min 0,0 UV-I 0 W/m 1,8 C 9,7 C 0,0 km/h (0 Bft)
07.06.2020 03:53 9,7 C 58 % 1006,0 hPa 0,0 l/m 0,0 km/h (0 Bft) O-SO 113 0 min 0,0 UV-I 0 W/m 1,8 C 9,7 C 0,0 km/h (0 Bft)
07.06.2020 03:52 9,7 C 58 % 1006,0 hPa 0,0 l/m 0,0 km/h (0 Bft) O-SO 113 0 min 0,0 UV-I 0 W/m 1,8 C 9,7 C 0,0 km/h (0 Bft)
07.06.2020 03:51 9,7 C 58 % 1006,0 hPa 0,0 l/m 0,0 km/h (0 Bft) O-SO 113 0 min 0,0 UV-I 0 W/m 1,8 C 9,7 C 0,0 km/h (0 Bft)
07.06.2020 03:50 9,7 C 58 % 1006,1 hPa 0,0 l/m 0,0 km/h (0 Bft) O-SO 113 0 min 0,0 UV-I 0 W/m 1,8 C 9,7 C 0,0 km/h (0 Bft)
07.06.2020 03:49 9,7 C 58 % 1006,1 hPa 0,0 l/m 0,0 km/h (0 Bft) O-SO 113 0 min 0,0 UV-I 0 W/m 1,8 C 9,7 C 0,0 km/h (0 Bft)
07.06.2020 03:48 9,7 C 58 % 1006,1 hPa 0,0 l/m 0,0 km/h (0 Bft) O-SO 113 0 min 0,0 UV-I 0 W/m 1,8 C 9,7 C 0,0 km/h (0 Bft)
07.06.2020 03:47 9,7 C 58 % 1006,1 hPa 0,0 l/m 0,0 km/h (0 Bft) O-SO 113 0 min 0,0 UV-I 0 W/m 1,8 C 9,7 C 0,0 km/h (0 Bft)
07.06.2020 03:46 9,7 C 58 % 1006,1 hPa 0,0 l/m 0,0 km/h (0 Bft) O-SO 113 0 min 0,0 UV-I 0 W/m 1,8 C 9,7 C 0,0 km/h (0 Bft)
07.06.2020 03:45 9,7 C 58 % 1006,1 hPa 0,0 l/m 0,0 km/h (0 Bft) O-SO 113 0 min 0,0 UV-I 0 W/m 1,8 C 9,7 C 0,0 km/h (0 Bft)
07.06.2020 03:44 9,7 C 58 % 1006,1 hPa 0,0 l/m 0,0 km/h (0 Bft) O-SO 113 0 min 0,0 UV-I 0 W/m 1,8 C 9,7 C 0,0 km/h (0 Bft)
07.06.2020 03:43 9,7 C 58 % 1006,0 hPa 0,0 l/m 0,0 km/h (0 Bft) O-SO 113 0 min 0,0 UV-I 0 W/m 1,8 C 9,7 C 0,0 km/h (0 Bft)
07.06.2020 03:42 9,7 C 58 % 1006,0 hPa 0,0 l/m 0,0 km/h (0 Bft) O-SO 113 0 min 0,0 UV-I 0 W/m 1,8 C 9,7 C 0,0 km/h (0 Bft)
07.06.2020 03:41 9,7 C 58 % 1006,0 hPa 0,0 l/m 0,0 km/h (0 Bft) O-SO 113 0 min 0,0 UV-I 0 W/m 1,8 C 9,7 C 0,0 km/h (0 Bft)
07.06.2020 03:40 9,7 C 58 % 1006,0 hPa 0,0 l/m 0,0 km/h (0 Bft) O-SO 113 0 min 0,0 UV-I 0 W/m 1,8 C 9,7 C 0,0 km/h (0 Bft)
07.06.2020 03:39 9,7 C 58 % 1006,0 hPa 0,0 l/m 0,0 km/h (0 Bft) O-SO 113 0 min 0,0 UV-I 0 W/m 1,8 C 9,7 C 0,0 km/h (0 Bft)
07.06.2020 03:38 9,7 C 58 % 1005,9 hPa 0,0 l/m 0,0 km/h (0 Bft) O-SO 113 0 min 0,0 UV-I 0 W/m 1,8 C 9,7 C 0,0 km/h (0 Bft)
07.06.2020 03:37 9,7 C 58 % 1005,9 hPa 0,0 l/m 0,0 km/h (0 Bft) O-SO 113 0 min 0,0 UV-I 0 W/m 1,8 C 9,7 C 0,0 km/h (0 Bft)
07.06.2020 03:36 9,7 C 58 % 1005,9 hPa 0,0 l/m 0,0 km/h (0 Bft) O-SO 113 0 min 0,0 UV-I 0 W/m 1,8 C 9,7 C 0,0 km/h (0 Bft)
07.06.2020 03:35 9,7 C 58 % 1005,9 hPa 0,0 l/m 0,0 km/h (0 Bft) O-SO 113 0 min 0,0 UV-I 0 W/m 1,8 C 9,7 C 0,0 km/h (0 Bft)
07.06.2020 03:34 9,7 C 58 % 1005,9 hPa 0,0 l/m 0,0 km/h (0 Bft) O-SO 113 0 min 0,0 UV-I 0 W/m 1,8 C 9,7 C 0,0 km/h (0 Bft)
07.06.2020 03:33 9,7 C 58 % 1005,9 hPa 0,0 l/m 0,0 km/h (0 Bft) O-SO 113 0 min 0,0 UV-I 0 W/m 1,8 C 9,7 C 0,0 km/h (0 Bft)
07.06.2020 03:32 9,7 C 58 % 1005,9 hPa 0,0 l/m 0,0 km/h (0 Bft) O-SO 113 0 min 0,0 UV-I 0 W/m 1,8 C 9,7 C 0,0 km/h (0 Bft)
07.06.2020 03:31 9,7 C 58 % 1005,9 hPa 0,0 l/m 0,0 km/h (0 Bft) O-SO 113 0 min 0,0 UV-I 0 W/m 1,8 C 9,7 C 0,0 km/h (0 Bft)
07.06.2020 03:30 9,7 C 58 % 1005,9 hPa 0,0 l/m 0,0 km/h (0 Bft) O-SO 113 0 min 0,0 UV-I 0 W/m 1,8 C 9,7 C 0,0 km/h (0 Bft)
07.06.2020 03:29 9,7 C 58 % 1005,9 hPa 0,0 l/m 0,0 km/h (0 Bft) O-SO 113 0 min 0,0 UV-I 0 W/m 1,8 C 9,7 C 0,0 km/h (0 Bft)
07.06.2020 03:28 9,7 C 58 % 1005,9 hPa 0,0 l/m 0,2 km/h (0 Bft) O-SO 113 0 min 0,0 UV-I 0 W/m 1,8 C 9,7 C 1,6 km/h (1 Bft)
07.06.2020 03:27 9,7 C 58 % 1005,9 hPa 0,0 l/m 0,3 km/h (0 Bft) O-SO 113 0 min 0,0 UV-I 0 W/m 1,8 C 9,7 C 1,6 km/h (1 Bft)
07.06.2020 03:26 9,7 C 58 % 1005,9 hPa 0,0 l/m 0,2 km/h (0 Bft) O-SO 113 0 min 0,0 UV-I 0 W/m 1,8 C 9,7 C 1,6 km/h (1 Bft)
07.06.2020 03:25 9,7 C 58 % 1005,9 hPa 0,0 l/m 0,2 km/h (0 Bft) O-SO 113 0 min 0,0 UV-I 0 W/m 1,8 C 9,7 C 1,6 km/h (1 Bft)
07.06.2020 03:24 9,7 C 58 % 1006,0 hPa 0,0 l/m 0,3 km/h (0 Bft) O-SO 113 0 min 0,0 UV-I 0 W/m 1,8 C 9,7 C 1,6 km/h (1 Bft)
07.06.2020 03:23 9,7 C 58 % 1005,9 hPa 0,0 l/m 0,9 km/h (0 Bft) O-SO 113 0 min 0,0 UV-I 0 W/m 1,8 C 9,7 C 1,6 km/h (1 Bft)
07.06.2020 03:22 9,6 C 58 % 1005,8 hPa 0,0 l/m 0,1 km/h (0 Bft) O-SO 112 0 min 0,0 UV-I 0 W/m 1,8 C 9,6 C 1,6 km/h (1 Bft)
07.06.2020 03:21 9,7 C 58 % 1005,8 hPa 0,0 l/m 0,0 km/h (0 Bft) O 98 0 min 0,0 UV-I 0 W/m 1,8 C 9,7 C 0,0 km/h (0 Bft)
07.06.2020 03:20 9,6 C 58 % 1005,9 hPa 0,0 l/m 0,1 km/h (0 Bft) O 98 0 min 0,0 UV-I 0 W/m 1,8 C 9,6 C 1,6 km/h (1 Bft)
07.06.2020 03:19 9,6 C 58 % 1005,8 hPa 0,0 l/m 1,1 km/h (1 Bft) O 98 0 min 0,0 UV-I 0 W/m 1,8 C 9,6 C 3,2 km/h (1 Bft)
07.06.2020 03:18 9,6 C 58 % 1005,8 hPa 0,0 l/m 1,3 km/h (1 Bft) O-SO 116 0 min 0,0 UV-I 0 W/m 1,8 C 9,6 C 1,6 km/h (1 Bft)
07.06.2020 03:17 9,6 C 58 % 1005,9 hPa 0,0 l/m 0,9 km/h (0 Bft) O-SO 117 0 min 0,0 UV-I 0 W/m 1,8 C 9,6 C 1,6 km/h (1 Bft)
07.06.2020 03:16 9,6 C 58 % 1005,9 hPa 0,0 l/m 1,9 km/h (1 Bft) O-SO 117 0 min 0,0 UV-I 0 W/m 1,8 C 9,6 C 3,2 km/h (1 Bft)
07.06.2020 03:15 9,5 C 58 % 1005,9 hPa 0,0 l/m 0,9 km/h (0 Bft) O-SO 120 0 min 0,0 UV-I 0 W/m 1,7 C 9,5 C 3,2 km/h (1 Bft)
07.06.2020 03:14 9,5 C 58 % 1005,9 hPa 0,0 l/m 0,2 km/h (0 Bft) SO 131 0 min 0,0 UV-I 0 W/m 1,7 C 9,5 C 1,6 km/h (1 Bft)
07.06.2020 03:13 9,5 C 58 % 1005,9 hPa 0,0 l/m 0,2 km/h (0 Bft) SO 131 0 min 0,0 UV-I 0 W/m 1,7 C 9,5 C 1,6 km/h (1 Bft)
07.06.2020 03:12 9,5 C 58 % 1005,9 hPa 0,0 l/m 0,5 km/h (0 Bft) SO 131 0 min 0,0 UV-I 0 W/m 1,7 C 9,5 C 1,6 km/h (1 Bft)
07.06.2020 03:11 9,4 C 58 % 1006,0 hPa 0,0 l/m 0,0 km/h (0 Bft) SO 132 0 min 0,0 UV-I 0 W/m 1,6 C 9,4 C 0,0 km/h (0 Bft)
07.06.2020 03:10 9,4 C 58 % 1006,0 hPa 0,0 l/m 0,2 km/h (0 Bft) SO 132 0 min 0,0 UV-I 0 W/m 1,6 C 9,4 C 1,6 km/h (1 Bft)
07.06.2020 03:09 9,4 C 58 % 1006,0 hPa 0,0 l/m 0,3 km/h (0 Bft) SO 132 0 min 0,0 UV-I 0 W/m 1,6 C 9,4 C 1,6 km/h (1 Bft)
07.06.2020 03:08 9,4 C 58 % 1006,0 hPa 0,0 l/m 0,4 km/h (0 Bft) SO 132 0 min 0,0 UV-I 0 W/m 1,6 C 9,4 C 1,6 km/h (1 Bft)
07.06.2020 03:07 9,3 C 58 % 1006,0 hPa 0,0 l/m 0,4 km/h (0 Bft) SO 132 0 min 0,0 UV-I 0 W/m 1,5 C 9,3 C 1,6 km/h (1 Bft)
07.06.2020 03:06 9,3 C 58 % 1006,0 hPa 0,0 l/m 0,2 km/h (0 Bft) SO 132 0 min 0,0 UV-I 0 W/m 1,5 C 9,3 C 1,6 km/h (1 Bft)
07.06.2020 03:05 9,3 C 58 % 1006,0 hPa 0,0 l/m 1,1 km/h (1 Bft) SO 132 0 min 0,0 UV-I 0 W/m 1,5 C 9,3 C 1,6 km/h (1 Bft)
07.06.2020 03:04 9,3 C 58 % 1006,0 hPa 0,0 l/m 0,9 km/h (0 Bft) O-SO 111 0 min 0,0 UV-I 0 W/m 1,5 C 9,3 C 1,6 km/h (1 Bft)
07.06.2020 03:03 9,2 C 58 % 1006,0 hPa 0,0 l/m 0,7 km/h (0 Bft) SO 144 0 min 0,0 UV-I 0 W/m 1,4 C 9,2 C 3,2 km/h (1 Bft)
07.06.2020 03:02 9,2 C 58 % 1006,0 hPa 0,0 l/m 0,2 km/h (0 Bft) S-SO 166 0 min 0,0 UV-I 0 W/m 1,4 C 9,2 C 1,6 km/h (1 Bft)
07.06.2020 03:01 9,2 C 58 % 1006,1 hPa 0,0 l/m 0,1 km/h (0 Bft) S-SO 166 0 min 0,0 UV-I 0 W/m 1,4 C 9,2 C 1,6 km/h (1 Bft)
07.06.2020 03:00 9,2 C 58 % 1006,0 hPa 0,0 l/m 0,3 km/h (0 Bft) S-SO 166 0 min 0,0 UV-I 0 W/m 1,4 C 9,2 C 1,6 km/h (1 Bft)
07.06.2020 02:59 9,2 C 58 % 1006,0 hPa 0,0 l/m 0,7 km/h (0 Bft) S-SO 166 0 min 0,0 UV-I 0 W/m 1,4 C 9,2 C 1,6 km/h (1 Bft)
07.06.2020 02:58 9,1 C 59 % 1006,0 hPa 0,0 l/m 0,9 km/h (0 Bft) S-SO 166 0 min 0,0 UV-I 0 W/m 1,5 C 9,1 C 1,6 km/h (1 Bft)
07.06.2020 02:57 9,1 C 58 % 1006,0 hPa 0,0 l/m 0,0 km/h (0 Bft) S 170 0 min 0,0 UV-I 0 W/m 1,3 C 9,1 C 0,0 km/h (0 Bft)
07.06.2020 02:56 9,1 C 59 % 1006,0 hPa 0,0 l/m 0,1 km/h (0 Bft) S 170 0 min 0,0 UV-I 0 W/m 1,5 C 9,1 C 1,6 km/h (1 Bft)
07.06.2020 02:55 9,1 C 59 % 1005,9 hPa 0,0 l/m 0,3 km/h (0 Bft) S 170 0 min 0,0 UV-I 0 W/m 1,5 C 9,1 C 1,6 km/h (1 Bft)
07.06.2020 02:54 9,1 C 59 % 1005,9 hPa 0,0 l/m 0,4 km/h (0 Bft) S 170 0 min 0,0 UV-I 0 W/m 1,5 C 9,1 C 1,6 km/h (1 Bft)
07.06.2020 02:53 9,0 C 58 % 1005,9 hPa 0,0 l/m 0,0 km/h (0 Bft) S 170 0 min 0,0 UV-I 0 W/m 1,2 C 9,0 C 0,0 km/h (0 Bft)
07.06.2020 02:52 9,0 C 58 % 1005,9 hPa 0,0 l/m 0,1 km/h (0 Bft) S 170 0 min 0,0 UV-I 0 W/m 1,2 C 9,0 C 1,6 km/h (1 Bft)
07.06.2020 02:51 9,0 C 58 % 1005,9 hPa 0,0 l/m 0,0 km/h (0 Bft) S 170 0 min 0,0 UV-I 0 W/m 1,2 C 9,0 C 0,0 km/h (0 Bft)
07.06.2020 02:50 9,0 C 58 % 1005,9 hPa 0,0 l/m 0,1 km/h (0 Bft) S 170 0 min 0,0 UV-I 0 W/m 1,2 C 9,0 C 1,6 km/h (1 Bft)
07.06.2020 02:49 9,0 C 58 % 1006,0 hPa 0,0 l/m 0,2 km/h (0 Bft) S 170 0 min 0,0 UV-I 0 W/m 1,2 C 9,0 C 1,6 km/h (1 Bft)
07.06.2020 02:48 9,0 C 58 % 1006,0 hPa 0,0 l/m 0,0 km/h (0 Bft) S 170 0 min 0,0 UV-I 0 W/m 1,2 C 9,0 C 0,0 km/h (0 Bft)
07.06.2020 02:47 9,0 C 58 % 1006,1 hPa 0,0 l/m 0,0 km/h (0 Bft) S 170 0 min 0,0 UV-I 0 W/m 1,2 C 9,0 C 0,0 km/h (0 Bft)
07.06.2020 02:46 9,0 C 58 % 1006,0 hPa 0,0 l/m 0,0 km/h (0 Bft) S 170 0 min 0,0 UV-I 0 W/m 1,2 C 9,0 C 0,0 km/h (0 Bft)
07.06.2020 02:45 9,0 C 58 % 1006,0 hPa 0,0 l/m 0,0 km/h (0 Bft) S 170 0 min 0,0 UV-I 0 W/m 1,2 C 9,0 C 0,0 km/h (0 Bft)
07.06.2020 02:44 8,9 C 58 % 1006,0 hPa 0,0 l/m 0,1 km/h (0 Bft) S 170 0 min 0,0 UV-I 0 W/m 1,1 C 8,9 C 1,6 km/h (1 Bft)
07.06.2020 02:43 8,9 C 58 % 1006,0 hPa 0,0 l/m 0,0 km/h (0 Bft) S 170 0 min 0,0 UV-I 0 W/m 1,1 C 8,9 C 0,0 km/h (0 Bft)
07.06.2020 02:42 8,9 C 58 % 1006,1 hPa 0,0 l/m 0,0 km/h (0 Bft) S 170 0 min 0,0 UV-I 0 W/m 1,1 C 8,9 C 0,0 km/h (0 Bft)
07.06.2020 02:41 8,9 C 58 % 1006,1 hPa 0,0 l/m 0,0 km/h (0 Bft) S 170 0 min 0,0 UV-I 0 W/m 1,1 C 8,9 C 0,0 km/h (0 Bft)
07.06.2020 02:40 8,9 C 58 % 1006,1 hPa 0,0 l/m 0,0 km/h (0 Bft) S 170 0 min 0,0 UV-I 0 W/m 1,1 C 8,9 C 0,0 km/h (0 Bft)
07.06.2020 02:39 8,9 C 58 % 1006,1 hPa 0,0 l/m 0,0 km/h (0 Bft) S 170 0 min 0,0 UV-I 0 W/m 1,1 C 8,9 C 0,0 km/h (0 Bft)
07.06.2020 02:38 8,9 C 58 % 1006,1 hPa 0,0 l/m 0,0 km/h (0 Bft) S 170 0 min 0,0 UV-I 0 W/m 1,1 C 8,9 C 0,0 km/h (0 Bft)
07.06.2020 02:37 8,9 C 58 % 1006,1 hPa 0,0 l/m 0,0 km/h (0 Bft) S 170 0 min 0,0 UV-I 0 W/m 1,1 C 8,9 C 0,0 km/h (0 Bft)
07.06.2020 02:36 8,9 C 58 % 1006,1 hPa 0,0 l/m 0,1 km/h (0 Bft) S 170 0 min 0,0 UV-I 0 W/m 1,1 C 8,9 C 1,6 km/h (1 Bft)
07.06.2020 02:35 8,9 C 58 % 1006,1 hPa 0,0 l/m 0,0 km/h (0 Bft) S 170 0 min 0,0 UV-I 0 W/m 1,1 C 8,9 C 0,0 km/h (0 Bft)
07.06.2020 02:34 8,9 C 58 % 1006,1 hPa 0,0 l/m 0,3 km/h (0 Bft) S 170 0 min 0,0 UV-I 0 W/m 1,1 C 8,9 C 1,6 km/h (1 Bft)
07.06.2020 02:33 9,0 C 58 % 1006,1 hPa 0,0 l/m 0,0 km/h (0 Bft) S 170 0 min 0,0 UV-I 0 W/m 1,2 C 9,0 C 0,0 km/h (0 Bft)
07.06.2020 02:32 9,0 C 58 % 1006,1 hPa 0,0 l/m 0,0 km/h (0 Bft) S 170 0 min 0,0 UV-I 0 W/m 1,2 C 9,0 C 0,0 km/h (0 Bft)
07.06.2020 02:31 9,0 C 58 % 1006,0 hPa 0,0 l/m 0,0 km/h (0 Bft) S 170 0 min 0,0 UV-I 0 W/m 1,2 C 9,0 C 0,0 km/h (0 Bft)
07.06.2020 02:30 9,0 C 58 % 1006,1 hPa 0,0 l/m 0,0 km/h (0 Bft) S 170 0 min 0,0 UV-I 0 W/m 1,2 C 9,0 C 0,0 km/h (0 Bft)
07.06.2020 02:29 9,0 C 58 % 1006,0 hPa 0,0 l/m 0,0 km/h (0 Bft) S 170 0 min 0,0 UV-I 0 W/m 1,2 C 9,0 C 0,0 km/h (0 Bft)
07.06.2020 02:28 9,0 C 58 % 1006,0 hPa 0,0 l/m 0,0 km/h (0 Bft) S 170 0 min 0,0 UV-I 0 W/m 1,2 C 9,0 C 0,0 km/h (0 Bft)
07.06.2020 02:27 9,0 C 58 % 1006,0 hPa 0,0 l/m 0,0 km/h (0 Bft) S 170 0 min 0,0 UV-I 0 W/m 1,2 C 9,0 C 0,0 km/h (0 Bft)
07.06.2020 02:26 9,0 C 58 % 1006,0 hPa 0,0 l/m 0,1 km/h (0 Bft) S 170 0 min 0,0 UV-I 0 W/m 1,2 C 9,0 C 1,6 km/h (1 Bft)
07.06.2020 02:25 9,0 C 58 % 1006,1 hPa 0,0 l/m 0,1 km/h (0 Bft) S 170 0 min 0,0 UV-I 0 W/m 1,2 C 9,0 C 1,6 km/h (1 Bft)
07.06.2020 02:24 9,0 C 58 % 1006,1 hPa 0,0 l/m 0,0 km/h (0 Bft) S 170 0 min 0,0 UV-I 0 W/m 1,2 C 9,0 C 0,0 km/h (0 Bft)
07.06.2020 02:23 9,0 C 58 % 1006,1 hPa 0,0 l/m 0,1 km/h (0 Bft) S 170 0 min 0,0 UV-I 0 W/m 1,2 C 9,0 C 1,6 km/h (1 Bft)
07.06.2020 02:22 9,0 C 58 % 1006,1 hPa 0,0 l/m 0,0 km/h (0 Bft) S 170 0 min 0,0 UV-I 0 W/m 1,2 C 9,0 C 0,0 km/h (0 Bft)
07.06.2020 02:21 8,9 C 58 % 1006,1 hPa 0,0 l/m 0,0 km/h (0 Bft) S 170 0 min 0,0 UV-I 0 W/m 1,1 C 8,9 C 0,0 km/h (0 Bft)
07.06.2020 02:20 8,9 C 58 % 1006,2 hPa 0,0 l/m 0,0 km/h (0 Bft) S 170 0 min 0,0 UV-I 0 W/m 1,1 C 8,9 C 0,0 km/h (0 Bft)
07.06.2020 02:19 8,9 C 58 % 1006,1 hPa 0,0 l/m 0,7 km/h (0 Bft) S 170 0 min 0,0 UV-I 0 W/m 1,1 C 8,9 C 1,6 km/h (1 Bft)
07.06.2020 02:18 8,9 C 58 % 1006,1 hPa 0,0 l/m 0,0 km/h (0 Bft) S 170 0 min 0,0 UV-I 0 W/m 1,1 C 8,9 C 0,0 km/h (0 Bft)
07.06.2020 02:17 8,9 C 58 % 1006,1 hPa 0,0 l/m 0,0 km/h (0 Bft) S 170 0 min 0,0 UV-I 0 W/m 1,1 C 8,9 C 0,0 km/h (0 Bft)
07.06.2020 02:16 8,9 C 58 % 1006,1 hPa 0,0 l/m 0,0 km/h (0 Bft) S 170 0 min 0,0 UV-I 0 W/m 1,1 C 8,9 C 0,0 km/h (0 Bft)
07.06.2020 02:15 8,9 C 58 % 1006,1 hPa 0,0 l/m 0,0 km/h (0 Bft) S 170 0 min 0,0 UV-I 0 W/m 1,1 C 8,9 C 0,0 km/h (0 Bft)
07.06.2020 02:14 8,8 C 58 % 1006,1 hPa 0,0 l/m 0,0 km/h (0 Bft) S 170 0 min 0,0 UV-I 0 W/m 1,0 C 8,8 C 0,0 km/h (0 Bft)
07.06.2020 02:13 8,8 C 59 % 1006,1 hPa 0,0 l/m 0,0 km/h (0 Bft) S 170 0 min 0,0 UV-I 0 W/m 1,2 C 8,8 C 0,0 km/h (0 Bft)
07.06.2020 02:12 8,8 C 59 % 1006,1 hPa 0,0 l/m 0,0 km/h (0 Bft) S 170 0 min 0,0 UV-I 0 W/m 1,2 C 8,8 C 0,0 km/h (0 Bft)
07.06.2020 02:11 8,7 C 59 % 1006,1 hPa 0,0 l/m 0,1 km/h (0 Bft) S 170 0 min 0,0 UV-I 0 W/m 1,1 C 8,7 C 1,6 km/h (1 Bft)
07.06.2020 02:10 8,7 C 59 % 1006,1 hPa 0,0 l/m 0,0 km/h (0 Bft) S 170 0 min 0,0 UV-I 0 W/m 1,1 C 8,7 C 0,0 km/h (0 Bft)
07.06.2020 02:09 8,7 C 59 % 1006,1 hPa 0,0 l/m 0,2 km/h (0 Bft) S 170 0 min 0,0 UV-I 0 W/m 1,1 C 8,7 C 1,6 km/h (1 Bft)
07.06.2020 02:08 8,7 C 59 % 1006,1 hPa 0,0 l/m 0,3 km/h (0 Bft) S 170 0 min 0,0 UV-I 0 W/m 1,1 C 8,7 C 1,6 km/h (1 Bft)
07.06.2020 02:07 8,7 C 59 % 1006,1 hPa 0,0 l/m 0,2 km/h (0 Bft) S 170 0 min 0,0 UV-I 0 W/m 1,1 C 8,7 C 1,6 km/h (1 Bft)
07.06.2020 02:06 8,7 C 59 % 1006,1 hPa 0,0 l/m 0,0 km/h (0 Bft) S 170 0 min 0,0 UV-I 0 W/m 1,1 C 8,7 C 0,0 km/h (0 Bft)
07.06.2020 02:05 8,7 C 59 % 1006,1 hPa 0,0 l/m 0,0 km/h (0 Bft) S 170 0 min 0,0 UV-I 0 W/m 1,1 C 8,7 C 0,0 km/h (0 Bft)
07.06.2020 02:04 8,6 C 59 % 1006,1 hPa 0,0 l/m 0,0 km/h (0 Bft) S 170 0 min 0,0 UV-I 0 W/m 1,0 C 8,6 C 0,0 km/h (0 Bft)
07.06.2020 02:03 8,6 C 59 % 1006,1 hPa 0,0 l/m 0,0 km/h (0 Bft) S 170 0 min 0,0 UV-I 0 W/m 1,0 C 8,6 C 0,0 km/h (0 Bft)
07.06.2020 02:02 8,6 C 59 % 1006,1 hPa 0,0 l/m 0,0 km/h (0 Bft) S 170 0 min 0,0 UV-I 0 W/m 1,0 C 8,6 C 0,0 km/h (0 Bft)
07.06.2020 02:01 8,6 C 59 % 1006,1 hPa 0,0 l/m 0,0 km/h (0 Bft) S 170 0 min 0,0 UV-I 0 W/m 1,0 C 8,6 C 0,0 km/h (0 Bft)
07.06.2020 02:00 8,5 C 59 % 1006,1 hPa 0,0 l/m 0,0 km/h (0 Bft) S 170 0 min 0,0 UV-I 0 W/m 1,0 C 8,5 C 0,0 km/h (0 Bft)
07.06.2020 01:59 8,5 C 59 % 1006,1 hPa 0,0 l/m 0,0 km/h (0 Bft) S 170 0 min 0,0 UV-I 0 W/m 1,0 C 8,5 C 0,0 km/h (0 Bft)
07.06.2020 01:58 8,5 C 59 % 1006,1 hPa 0,0 l/m 0,0 km/h (0 Bft) S 170 0 min 0,0 UV-I 0 W/m 1,0 C 8,5 C 0,0 km/h (0 Bft)
07.06.2020 01:57 8,4 C 59 % 1006,2 hPa 0,0 l/m 0,0 km/h (0 Bft) S 170 0 min 0,0 UV-I 0 W/m 0,9 C 8,4 C 0,0 km/h (0 Bft)
07.06.2020 01:56 8,4 C 59 % 1006,1 hPa 0,0 l/m 0,0 km/h (0 Bft) S 170 0 min 0,0 UV-I 0 W/m 0,9 C 8,4 C 0,0 km/h (0 Bft)
07.06.2020 01:55 8,4 C 59 % 1006,2 hPa 0,0 l/m 0,0 km/h (0 Bft) S 170 0 min 0,0 UV-I 0 W/m 0,9 C 8,4 C 0,0 km/h (0 Bft)
07.06.2020 01:54 8,4 C 59 % 1006,2 hPa 0,0 l/m 0,0 km/h (0 Bft) S 170 0 min 0,0 UV-I 0 W/m 0,9 C 8,4 C 0,0 km/h (0 Bft)
07.06.2020 01:53 8,4 C 59 % 1006,2 hPa 0,0 l/m 0,0 km/h (0 Bft) S 170 0 min 0,0 UV-I 0 W/m 0,9 C 8,4 C 0,0 km/h (0 Bft)
07.06.2020 01:52 8,3 C 59 % 1006,1 hPa 0,0 l/m 0,0 km/h (0 Bft) S 170 0 min 0,0 UV-I 0 W/m 0,8 C 8,3 C 0,0 km/h (0 Bft)
07.06.2020 01:51 8,3 C 59 % 1006,2 hPa 0,0 l/m 0,0 km/h (0 Bft) S 170 0 min 0,0 UV-I 0 W/m 0,8 C 8,3 C 0,0 km/h (0 Bft)
07.06.2020 01:50 8,3 C 59 % 1006,2 hPa 0,0 l/m 0,0 km/h (0 Bft) S 170 0 min 0,0 UV-I 0 W/m 0,8 C 8,3 C 0,0 km/h (0 Bft)
07.06.2020 01:49 8,3 C 59 % 1006,2 hPa 0,0 l/m 0,0 km/h (0 Bft) S 170 0 min 0,0 UV-I 0 W/m 0,8 C 8,3 C 0,0 km/h (0 Bft)
07.06.2020 01:48 8,3 C 59 % 1006,2 hPa 0,0 l/m 0,0 km/h (0 Bft) S 170 0 min 0,0 UV-I 0 W/m 0,8 C 8,3 C 0,0 km/h (0 Bft)
07.06.2020 01:47 8,3 C 59 % 1006,2 hPa 0,0 l/m 0,0 km/h (0 Bft) S 170 0 min 0,0 UV-I 0 W/m 0,8 C 8,3 C 0,0 km/h (0 Bft)
07.06.2020 01:46 8,3 C 59 % 1006,2 hPa 0,0 l/m 0,0 km/h (0 Bft) S 170 0 min 0,0 UV-I 0 W/m 0,8 C 8,3 C 0,0 km/h (0 Bft)
07.06.2020 01:45 8,3 C 59 % 1006,2 hPa 0,0 l/m 0,0 km/h (0 Bft) S 170 0 min 0,0 UV-I 0 W/m 0,8 C 8,3 C 0,0 km/h (0 Bft)
07.06.2020 01:44 8,3 C 59 % 1006,1 hPa 0,0 l/m 0,0 km/h (0 Bft) S 170 0 min 0,0 UV-I 0 W/m 0,8 C 8,3 C 0,0 km/h (0 Bft)
07.06.2020 01:43 8,3 C 59 % 1006,2 hPa 0,0 l/m 0,0 km/h (0 Bft) S 170 0 min 0,0 UV-I 0 W/m 0,8 C 8,3 C 0,0 km/h (0 Bft)
07.06.2020 01:42 8,3 C 59 % 1006,1 hPa 0,0 l/m 0,0 km/h (0 Bft) S 170 0 min 0,0 UV-I 0 W/m 0,8 C 8,3 C 0,0 km/h (0 Bft)
07.06.2020 01:41 8,3 C 59 % 1006,1 hPa 0,0 l/m 0,0 km/h (0 Bft) S 170 0 min 0,0 UV-I 0 W/m 0,8 C 8,3 C 0,0 km/h (0 Bft)
07.06.2020 01:40 8,2 C 59 % 1006,1 hPa 0,0 l/m 0,0 km/h (0 Bft) S 170 0 min 0,0 UV-I 0 W/m 0,7 C 8,2 C 0,0 km/h (0 Bft)
07.06.2020 01:39 8,2 C 59 % 1006,1 hPa 0,0 l/m 0,0 km/h (0 Bft) S 170 0 min 0,0 UV-I 0 W/m 0,7 C 8,2 C 0,0 km/h (0 Bft)
07.06.2020 01:38 8,2 C 59 % 1006,1 hPa 0,0 l/m 0,0 km/h (0 Bft) S 170 0 min 0,0 UV-I 0 W/m 0,7 C 8,2 C 0,0 km/h (0 Bft)
07.06.2020 01:37 8,2 C 59 % 1006,1 hPa 0,0 l/m 0,0 km/h (0 Bft) S 170 0 min 0,0 UV-I 0 W/m 0,7 C 8,2 C 0,0 km/h (0 Bft)
07.06.2020 01:36 8,2 C 59 % 1006,1 hPa 0,0 l/m 0,0 km/h (0 Bft) S 170 0 min 0,0 UV-I 0 W/m 0,7 C 8,2 C 0,0 km/h (0 Bft)
07.06.2020 01:35 8,2 C 59 % 1006,2 hPa 0,0 l/m 0,0 km/h (0 Bft) S 170 0 min 0,0 UV-I 0 W/m 0,7 C 8,2 C 0,0 km/h (0 Bft)
07.06.2020 01:34 8,2 C 59 % 1006,1 hPa 0,0 l/m 0,0 km/h (0 Bft) S 170 0 min 0,0 UV-I 0 W/m 0,7 C 8,2 C 0,0 km/h (0 Bft)
07.06.2020 01:33 8,2 C 59 % 1006,2 hPa 0,0 l/m 0,0 km/h (0 Bft) S 170 0 min 0,0 UV-I 0 W/m 0,7 C 8,2 C 0,0 km/h (0 Bft)
07.06.2020 01:32 8,2 C 59 % 1006,2 hPa 0,0 l/m 0,0 km/h (0 Bft) S 170 0 min 0,0 UV-I 0 W/m 0,7 C 8,2 C 0,0 km/h (0 Bft)
07.06.2020 01:31 8,1 C 59 % 1006,2 hPa 0,0 l/m 0,0 km/h (0 Bft) S 170 0 min 0,0 UV-I 0 W/m 0,6 C 8,1 C 0,0 km/h (0 Bft)
07.06.2020 01:30 8,1 C 59 % 1006,2 hPa 0,0 l/m 0,0 km/h (0 Bft) S 170 0 min 0,0 UV-I 0 W/m 0,6 C 8,1 C 0,0 km/h (0 Bft)
07.06.2020 01:29 8,1 C 59 % 1006,2 hPa 0,0 l/m 0,0 km/h (0 Bft) S 170 0 min 0,0 UV-I 0 W/m 0,6 C 8,1 C 0,0 km/h (0 Bft)
07.06.2020 01:28 8,1 C 59 % 1006,2 hPa 0,0 l/m 0,0 km/h (0 Bft) S 170 0 min 0,0 UV-I 0 W/m 0,6 C 8,1 C 0,0 km/h (0 Bft)
07.06.2020 01:27 8,1 C 59 % 1006,2 hPa 0,0 l/m 0,0 km/h (0 Bft) S 170 0 min 0,0 UV-I 0 W/m 0,6 C 8,1 C 0,0 km/h (0 Bft)
07.06.2020 01:26 8,1 C 59 % 1006,3 hPa 0,0 l/m 0,0 km/h (0 Bft) S 170 0 min 0,0 UV-I 0 W/m 0,6 C 8,1 C 0,0 km/h (0 Bft)
07.06.2020 01:25 8,1 C 59 % 1006,2 hPa 0,0 l/m 0,0 km/h (0 Bft) S 170 0 min 0,0 UV-I 0 W/m 0,6 C 8,1 C 0,0 km/h (0 Bft)
07.06.2020 01:24 8,1 C 59 % 1006,2 hPa 0,0 l/m 0,0 km/h (0 Bft) S 170 0 min 0,0 UV-I 0 W/m 0,6 C 8,1 C 0,0 km/h (0 Bft)
07.06.2020 01:23 8,1 C 59 % 1006,2 hPa 0,0 l/m 0,0 km/h (0 Bft) S 170 0 min 0,0 UV-I 0 W/m 0,6 C 8,1 C 0,0 km/h (0 Bft)
07.06.2020 01:22 8,1 C 59 % 1006,2 hPa 0,0 l/m 0,0 km/h (0 Bft) S 170 0 min 0,0 UV-I 0 W/m 0,6 C 8,1 C 0,0 km/h (0 Bft)
07.06.2020 01:21 8,1 C 59 % 1006,2 hPa 0,0 l/m 0,0 km/h (0 Bft) S 170 0 min 0,0 UV-I 0 W/m 0,6 C 8,1 C 0,0 km/h (0 Bft)
07.06.2020 01:20 8,1 C 59 % 1006,2 hPa 0,0 l/m 0,0 km/h (0 Bft) S 170 0 min 0,0 UV-I 0 W/m 0,6 C 8,1 C 0,0 km/h (0 Bft)
07.06.2020 01:19 8,1 C 59 % 1006,2 hPa 0,0 l/m 0,0 km/h (0 Bft) S 170 0 min 0,0 UV-I 0 W/m 0,6 C 8,1 C 0,0 km/h (0 Bft)
07.06.2020 01:18 8,1 C 59 % 1006,2 hPa 0,0 l/m 0,0 km/h (0 Bft) S 170 0 min 0,0 UV-I 0 W/m 0,6 C 8,1 C 0,0 km/h (0 Bft)
07.06.2020 01:17 8,0 C 59 % 1006,2 hPa 0,0 l/m 0,0 km/h (0 Bft) S 170 0 min 0,0 UV-I 0 W/m 0,5 C 8,0 C 0,0 km/h (0 Bft)
07.06.2020 01:16 8,1 C 59 % 1006,2 hPa 0,0 l/m 0,0 km/h (0 Bft) S 170 0 min 0,0 UV-I 0 W/m 0,6 C 8,1 C 0,0 km/h (0 Bft)
07.06.2020 01:15 8,1 C 59 % 1006,2 hPa 0,0 l/m 0,0 km/h (0 Bft) S 170 0 min 0,0 UV-I 0 W/m 0,6 C 8,1 C 0,0 km/h (0 Bft)
07.06.2020 01:14 8,1 C 59 % 1006,2 hPa 0,0 l/m 0,0 km/h (0 Bft) S 170 0 min 0,0 UV-I 0 W/m 0,6 C 8,1 C 0,0 km/h (0 Bft)
07.06.2020 01:13 8,1 C 59 % 1006,3 hPa 0,0 l/m 0,0 km/h (0 Bft) S 170 0 min 0,0 UV-I 0 W/m 0,6 C 8,1 C 0,0 km/h (0 Bft)
07.06.2020 01:12 8,1 C 59 % 1006,3 hPa 0,0 l/m 0,0 km/h (0 Bft) S 170 0 min 0,0 UV-I 0 W/m 0,6 C 8,1 C 0,0 km/h (0 Bft)
07.06.2020 01:11 8,1 C 59 % 1006,3 hPa 0,0 l/m 0,0 km/h (0 Bft) S 170 0 min 0,0 UV-I 0 W/m 0,6 C 8,1 C 0,0 km/h (0 Bft)
07.06.2020 01:10 8,1 C 59 % 1006,3 hPa 0,0 l/m 0,0 km/h (0 Bft) S 170 0 min 0,0 UV-I 0 W/m 0,6 C 8,1 C 0,0 km/h (0 Bft)
07.06.2020 01:09 8,1 C 59 % 1006,3 hPa 0,0 l/m 0,0 km/h (0 Bft) S 170 0 min 0,0 UV-I 0 W/m 0,6 C 8,1 C 0,0 km/h (0 Bft)
07.06.2020 01:08 8,1 C 59 % 1006,3 hPa 0,0 l/m 0,0 km/h (0 Bft) S 170 0 min 0,0 UV-I 0 W/m 0,6 C 8,1 C 0,0 km/h (0 Bft)
07.06.2020 01:07 8,1 C 59 % 1006,3 hPa 0,0 l/m 0,0 km/h (0 Bft) S 170 0 min 0,0 UV-I 0 W/m 0,6 C 8,1 C 0,0 km/h (0 Bft)
07.06.2020 01:06 8,1 C 60 % 1006,3 hPa 0,0 l/m 0,0 km/h (0 Bft) S 170 0 min 0,0 UV-I 0 W/m 0,8 C 8,1 C 0,0 km/h (0 Bft)
07.06.2020 01:05 8,2 C 60 % 1006,3 hPa 0,0 l/m 0,0 km/h (0 Bft) S 170 0 min 0,0 UV-I 0 W/m 0,9 C 8,2 C 0,0 km/h (0 Bft)
07.06.2020 01:04 8,2 C 60 % 1006,3 hPa 0,0 l/m 0,0 km/h (0 Bft) S 170 0 min 0,0 UV-I 0 W/m 0,9 C 8,2 C 0,0 km/h (0 Bft)
07.06.2020 01:03 8,2 C 60 % 1006,3 hPa 0,0 l/m 0,0 km/h (0 Bft) S 170 0 min 0,0 UV-I 0 W/m 0,9 C 8,2 C 0,0 km/h (0 Bft)
07.06.2020 01:02 8,2 C 60 % 1006,4 hPa 0,0 l/m 0,0 km/h (0 Bft) S 170 0 min 0,0 UV-I 0 W/m 0,9 C 8,2 C 0,0 km/h (0 Bft)
07.06.2020 01:01 8,2 C 60 % 1006,4 hPa 0,0 l/m 0,0 km/h (0 Bft) S 170 0 min 0,0 UV-I 0 W/m 0,9 C 8,2 C 0,0 km/h (0 Bft)
07.06.2020 01:00 8,2 C 60 % 1006,3 hPa 0,0 l/m 0,0 km/h (0 Bft) S 170 0 min 0,0 UV-I 0 W/m 0,9 C 8,2 C 0,0 km/h (0 Bft)
07.06.2020 00:59 8,2 C 60 % 1006,3 hPa 0,0 l/m 0,0 km/h (0 Bft) S 170 0 min 0,0 UV-I 0 W/m 0,9 C 8,2 C 0,0 km/h (0 Bft)
07.06.2020 00:58 8,2 C 60 % 1006,3 hPa 0,0 l/m 0,0 km/h (0 Bft) S 170 0 min 0,0 UV-I 0 W/m 0,9 C 8,2 C 0,0 km/h (0 Bft)
07.06.2020 00:57 8,2 C 60 % 1006,3 hPa 0,0 l/m 0,0 km/h (0 Bft) S 170 0 min 0,0 UV-I 0 W/m 0,9 C 8,2 C 0,0 km/h (0 Bft)
07.06.2020 00:56 8,3 C 60 % 1006,3 hPa 0,0 l/m 0,0 km/h (0 Bft) S 170 0 min 0,0 UV-I 0 W/m 1,0 C 8,3 C 0,0 km/h (0 Bft)
07.06.2020 00:55 8,3 C 60 % 1006,3 hPa 0,0 l/m 0,0 km/h (0 Bft) S 170 0 min 0,0 UV-I 0 W/m 1,0 C 8,3 C 0,0 km/h (0 Bft)
07.06.2020 00:54 8,3 C 60 % 1006,3 hPa 0,0 l/m 0,0 km/h (0 Bft) S 170 0 min 0,0 UV-I 0 W/m 1,0 C 8,3 C 0,0 km/h (0 Bft)
07.06.2020 00:53 8,3 C 60 % 1006,3 hPa 0,0 l/m 0,0 km/h (0 Bft) S 170 0 min 0,0 UV-I 0 W/m 1,0 C 8,3 C 0,0 km/h (0 Bft)
07.06.2020 00:52 8,3 C 60 % 1006,3 hPa 0,0 l/m 0,0 km/h (0 Bft) S 170 0 min 0,0 UV-I 0 W/m 1,0 C 8,3 C 0,0 km/h (0 Bft)
07.06.2020 00:51 8,3 C 60 % 1006,3 hPa 0,0 l/m 0,0 km/h (0 Bft) S 170 0 min 0,0 UV-I 0 W/m 1,0 C 8,3 C 0,0 km/h (0 Bft)
07.06.2020 00:50 8,3 C 60 % 1006,2 hPa 0,0 l/m 0,0 km/h (0 Bft) S 170 0 min 0,0 UV-I 0 W/m 1,0 C 8,3 C 0,0 km/h (0 Bft)
07.06.2020 00:49 8,4 C 60 % 1006,2 hPa 0,0 l/m 0,0 km/h (0 Bft) S 170 0 min 0,0 UV-I 0 W/m 1,1 C 8,4 C 0,0 km/h (0 Bft)
07.06.2020 00:48 8,4 C 60 % 1006,2 hPa 0,0 l/m 0,0 km/h (0 Bft) S 170 0 min 0,0 UV-I 0 W/m 1,1 C 8,4 C 0,0 km/h (0 Bft)
07.06.2020 00:47 8,4 C 60 % 1006,2 hPa 0,0 l/m 0,0 km/h (0 Bft) S 170 0 min 0,0 UV-I 0 W/m 1,1 C 8,4 C 0,0 km/h (0 Bft)
07.06.2020 00:46 8,4 C 60 % 1006,3 hPa 0,0 l/m 0,0 km/h (0 Bft) S 170 0 min 0,0 UV-I 0 W/m 1,1 C 8,4 C 0,0 km/h (0 Bft)
07.06.2020 00:45 8,4 C 60 % 1006,2 hPa 0,0 l/m 0,0 km/h (0 Bft) S 170 0 min 0,0 UV-I 0 W/m 1,1 C 8,4 C 0,0 km/h (0 Bft)
07.06.2020 00:44 8,4 C 60 % 1006,2 hPa 0,0 l/m 0,0 km/h (0 Bft) S 170 0 min 0,0 UV-I 0 W/m 1,1 C 8,4 C 0,0 km/h (0 Bft)
07.06.2020 00:43 8,4 C 60 % 1006,2 hPa 0,0 l/m 0,0 km/h (0 Bft) S 170 0 min 0,0 UV-I 0 W/m 1,1 C 8,4 C 0,0 km/h (0 Bft)
07.06.2020 00:42 8,4 C 60 % 1006,2 hPa 0,0 l/m 0,0 km/h (0 Bft) S 170 0 min 0,0 UV-I 0 W/m 1,1 C 8,4 C 0,0 km/h (0 Bft)
07.06.2020 00:41 8,5 C 60 % 1006,2 hPa 0,0 l/m 0,0 km/h (0 Bft) S 170 0 min 0,0 UV-I 0 W/m 1,2 C 8,5 C 0,0 km/h (0 Bft)
07.06.2020 00:40 8,5 C 60 % 1006,2 hPa 0,0 l/m 0,0 km/h (0 Bft) S 170 0 min 0,0 UV-I 0 W/m 1,2 C 8,5 C 0,0 km/h (0 Bft)
07.06.2020 00:39 8,6 C 60 % 1006,2 hPa 0,0 l/m 0,0 km/h (0 Bft) S 170 0 min 0,0 UV-I 0 W/m 1,3 C 8,6 C 0,0 km/h (0 Bft)
07.06.2020 00:38 8,6 C 60 % 1006,2 hPa 0,0 l/m 0,0 km/h (0 Bft) S 170 0 min 0,0 UV-I 0 W/m 1,3 C 8,6 C 0,0 km/h (0 Bft)
07.06.2020 00:37 8,7 C 60 % 1006,2 hPa 0,0 l/m 0,0 km/h (0 Bft) S 170 0 min 0,0 UV-I 0 W/m 1,4 C 8,7 C 0,0 km/h (0 Bft)
07.06.2020 00:36 8,7 C 60 % 1006,2 hPa 0,0 l/m 0,0 km/h (0 Bft) S 170 0 min 0,0 UV-I 0 W/m 1,4 C 8,7 C 0,0 km/h (0 Bft)
07.06.2020 00:35 8,7 C 60 % 1006,2 hPa 0,0 l/m 0,0 km/h (0 Bft) S 170 0 min 0,0 UV-I 0 W/m 1,4 C 8,7 C 0,0 km/h (0 Bft)
07.06.2020 00:34 8,8 C 60 % 1006,2 hPa 0,0 l/m 0,0 km/h (0 Bft) S 170 0 min 0,0 UV-I 0 W/m 1,5 C 8,8 C 0,0 km/h (0 Bft)
07.06.2020 00:33 8,8 C 60 % 1006,2 hPa 0,0 l/m 0,0 km/h (0 Bft) S 170 0 min 0,0 UV-I 0 W/m 1,5 C 8,8 C 0,0 km/h (0 Bft)
07.06.2020 00:32 8,8 C 60 % 1006,2 hPa 0,0 l/m 0,0 km/h (0 Bft) S 170 0 min 0,0 UV-I 0 W/m 1,5 C 8,8 C 0,0 km/h (0 Bft)
07.06.2020 00:31 8,8 C 60 % 1006,2 hPa 0,0 l/m 0,0 km/h (0 Bft) S 170 0 min 0,0 UV-I 0 W/m 1,5 C 8,8 C 0,0 km/h (0 Bft)
07.06.2020 00:30 8,8 C 60 % 1006,2 hPa 0,0 l/m 0,0 km/h (0 Bft) S 170 0 min 0,0 UV-I 0 W/m 1,5 C 8,8 C 0,0 km/h (0 Bft)
07.06.2020 00:29 8,8 C 60 % 1006,1 hPa 0,0 l/m 0,0 km/h (0 Bft) S 170 0 min 0,0 UV-I 0 W/m 1,5 C 8,8 C 0,0 km/h (0 Bft)
07.06.2020 00:28 8,9 C 60 % 1006,1 hPa 0,0 l/m 0,0 km/h (0 Bft) S 170 0 min 0,0 UV-I 0 W/m 1,6 C 8,9 C 0,0 km/h (0 Bft)
07.06.2020 00:27 8,9 C 60 % 1006,1 hPa 0,0 l/m 0,0 km/h (0 Bft) S 170 0 min 0,0 UV-I 0 W/m 1,6 C 8,9 C 0,0 km/h (0 Bft)
07.06.2020 00:26 8,9 C 60 % 1006,2 hPa 0,0 l/m 0,0 km/h (0 Bft) S 170 0 min 0,0 UV-I 0 W/m 1,6 C 8,9 C 0,0 km/h (0 Bft)
07.06.2020 00:25 9,0 C 60 % 1006,2 hPa 0,0 l/m 0,0 km/h (0 Bft) S 170 0 min 0,0 UV-I 0 W/m 1,7 C 9,0 C 0,0 km/h (0 Bft)
07.06.2020 00:24 9,0 C 60 % 1006,1 hPa 0,0 l/m 0,0 km/h (0 Bft) S 170 0 min 0,0 UV-I 0 W/m 1,7 C 9,0 C 0,0 km/h (0 Bft)
07.06.2020 00:23 9,0 C 61 % 1006,1 hPa 0,0 l/m 0,0 km/h (0 Bft) S 170 0 min 0,0 UV-I 0 W/m 1,9 C 9,0 C 0,0 km/h (0 Bft)
07.06.2020 00:22 9,1 C 61 % 1006,1 hPa 0,0 l/m 0,0 km/h (0 Bft) S 170 0 min 0,0 UV-I 0 W/m 2,0 C 9,1 C 0,0 km/h (0 Bft)
07.06.2020 00:21 9,1 C 61 % 1006,1 hPa 0,0 l/m 0,0 km/h (0 Bft) S 170 0 min 0,0 UV-I 0 W/m 2,0 C 9,1 C 0,0 km/h (0 Bft)
07.06.2020 00:20 9,1 C 61 % 1006,0 hPa 0,0 l/m 0,0 km/h (0 Bft) S 170 0 min 0,0 UV-I 0 W/m 2,0 C 9,1 C 0,0 km/h (0 Bft)
07.06.2020 00:19 9,2 C 61 % 1006,0 hPa 0,0 l/m 0,0 km/h (0 Bft) S 170 0 min 0,0 UV-I 0 W/m 2,1 C 9,2 C 0,0 km/h (0 Bft)
07.06.2020 00:18 9,2 C 61 % 1006,0 hPa 0,0 l/m 0,0 km/h (0 Bft) S 170 0 min 0,0 UV-I 0 W/m 2,1 C 9,2 C 0,0 km/h (0 Bft)
07.06.2020 00:17 9,2 C 61 % 1006,0 hPa 0,0 l/m 0,0 km/h (0 Bft) S 170 0 min 0,0 UV-I 0 W/m 2,1 C 9,2 C 0,0 km/h (0 Bft)
07.06.2020 00:16 9,2 C 61 % 1005,9 hPa 0,0 l/m 0,0 km/h (0 Bft) S 170 0 min 0,0 UV-I 0 W/m 2,1 C 9,2 C 0,0 km/h (0 Bft)
07.06.2020 00:15 9,2 C 61 % 1005,9 hPa 0,0 l/m 0,0 km/h (0 Bft) S 170 0 min 0,0 UV-I 0 W/m 2,1 C 9,2 C 0,0 km/h (0 Bft)
07.06.2020 00:14 9,3 C 61 % 1005,9 hPa 0,0 l/m 0,0 km/h (0 Bft) S 170 0 min 0,0 UV-I 0 W/m 2,2 C 9,3 C 0,0 km/h (0 Bft)
07.06.2020 00:13 9,3 C 61 % 1005,9 hPa 0,0 l/m 0,0 km/h (0 Bft) S 170 0 min 0,0 UV-I 0 W/m 2,2 C 9,3 C 0,0 km/h (0 Bft)
07.06.2020 00:12 9,3 C 61 % 1005,9 hPa 0,0 l/m 0,0 km/h (0 Bft) S 170 0 min 0,0 UV-I 0 W/m 2,2 C 9,3 C 0,0 km/h (0 Bft)
07.06.2020 00:11 9,3 C 62 % 1005,9 hPa 0,0 l/m 0,0 km/h (0 Bft) S 170 0 min 0,0 UV-I 0 W/m 2,4 C 9,3 C 0,0 km/h (0 Bft)
07.06.2020 00:10 9,3 C 62 % 1006,0 hPa 0,0 l/m 0,0 km/h (0 Bft) S 170 0 min 0,0 UV-I 0 W/m 2,4 C 9,3 C 0,0 km/h (0 Bft)
07.06.2020 00:09 9,3 C 62 % 1006,0 hPa 0,0 l/m 0,0 km/h (0 Bft) S 170 0 min 0,0 UV-I 0 W/m 2,4 C 9,3 C 0,0 km/h (0 Bft)
07.06.2020 00:08 9,4 C 62 % 1006,0 hPa 0,0 l/m 0,0 km/h (0 Bft) S 170 0 min 0,0 UV-I 0 W/m 2,5 C 9,4 C 0,0 km/h (0 Bft)
07.06.2020 00:07 9,4 C 61 % 1006,0 hPa 0,0 l/m 0,0 km/h (0 Bft) S 170 0 min 0,0 UV-I 0 W/m 2,3 C 9,4 C 0,0 km/h (0 Bft)
07.06.2020 00:06 9,4 C 61 % 1006,0 hPa 0,0 l/m 0,0 km/h (0 Bft) S 170 0 min 0,0 UV-I 0 W/m 2,3 C 9,4 C 0,0 km/h (0 Bft)
07.06.2020 00:05 9,4 C 62 % 1006,0 hPa 0,0 l/m 0,0 km/h (0 Bft) S 170 0 min 0,0 UV-I 0 W/m 2,5 C 9,4 C 0,0 km/h (0 Bft)
07.06.2020 00:04 9,4 C 62 % 1006,0 hPa 0,0 l/m 0,0 km/h (0 Bft) S 170 0 min 0,0 UV-I 0 W/m 2,5 C 9,4 C 0,0 km/h (0 Bft)
07.06.2020 00:03 9,5 C 62 % 1006,0 hPa 0,0 l/m 0,0 km/h (0 Bft) S 170 0 min 0,0 UV-I 0 W/m 2,6 C 9,5 C 0,0 km/h (0 Bft)
07.06.2020 00:02 9,5 C 62 % 1006,0 hPa 0,0 l/m 0,0 km/h (0 Bft) S 170 0 min 0,0 UV-I 0 W/m 2,6 C 9,5 C 0,0 km/h (0 Bft)
07.06.2020 00:01 9,6 C 62 % 1006,0 hPa 0,0 l/m 0,0 km/h (0 Bft) S 170 0 min 0,0 UV-I 0 W/m 2,7 C 9,6 C 0,0 km/h (0 Bft)
07.06.2020 00:00 9,6 C 62 % 1006,0 hPa 0,0 l/m 0,0 km/h (0 Bft) S 170 0 min 0,0 UV-I 0 W/m 2,7 C 9,6 C 0,0 km/h (0 Bft)
06.06.2020 23:59 9,6 C 62 % 1006,0 hPa 0,0 l/m 0,0 km/h (0 Bft) S 170 0 min 0,0 UV-I 0 W/m 2,7 C 9,6 C 0,0 km/h (0 Bft)
06.06.2020 23:58 9,6 C 62 % 1006,0 hPa 0,0 l/m 0,0 km/h (0 Bft) S 170 0 min 0,0 UV-I 0 W/m 2,7 C 9,6 C 0,0 km/h (0 Bft)
06.06.2020 23:57 9,7 C 62 % 1006,0 hPa 0,0 l/m 0,0 km/h (0 Bft) S 170 0 min 0,0 UV-I 0 W/m 2,8 C 9,7 C 0,0 km/h (0 Bft)
06.06.2020 23:56 9,7 C 62 % 1006,0 hPa 0,0 l/m 0,0 km/h (0 Bft) S 170 0 min 0,0 UV-I 0 W/m 2,8 C 9,7 C 0,0 km/h (0 Bft)
06.06.2020 23:55 9,7 C 62 % 1006,0 hPa 0,0 l/m 0,0 km/h (0 Bft) S 170 0 min 0,0 UV-I 0 W/m 2,8 C 9,7 C 0,0 km/h (0 Bft)
06.06.2020 23:54 9,7 C 62 % 1006,0 hPa 0,0 l/m 0,0 km/h (0 Bft) S 170 0 min 0,0 UV-I 0 W/m 2,8 C 9,7 C 0,0 km/h (0 Bft)
06.06.2020 23:53 9,8 C 62 % 1006,0 hPa 0,0 l/m 0,0 km/h (0 Bft) S 170 0 min 0,0 UV-I 0 W/m 2,9 C 9,8 C 0,0 km/h (0 Bft)
06.06.2020 23:52 9,8 C 62 % 1006,0 hPa 0,0 l/m 0,0 km/h (0 Bft) S 170 0 min 0,0 UV-I 0 W/m 2,9 C 9,8 C 0,0 km/h (0 Bft)
06.06.2020 23:51 9,8 C 62 % 1006,0 hPa 0,0 l/m 0,0 km/h (0 Bft) S 170 0 min 0,0 UV-I 0 W/m 2,9 C 9,8 C 0,0 km/h (0 Bft)
06.06.2020 23:50 9,8 C 62 % 1006,0 hPa 0,0 l/m 0,0 km/h (0 Bft) S 170 0 min 0,0 UV-I 0 W/m 2,9 C 9,8 C 0,0 km/h (0 Bft)
06.06.2020 23:49 9,9 C 62 % 1005,9 hPa 0,0 l/m 0,0 km/h (0 Bft) S 170 0 min 0,0 UV-I 0 W/m 3,0 C 9,9 C 0,0 km/h (0 Bft)
06.06.2020 23:48 9,9 C 62 % 1005,9 hPa 0,0 l/m 0,0 km/h (0 Bft) S 170 0 min 0,0 UV-I 0 W/m 3,0 C 9,9 C 0,0 km/h (0 Bft)
06.06.2020 23:47 9,9 C 62 % 1005,9 hPa 0,0 l/m 0,0 km/h (0 Bft) S 170 0 min 0,0 UV-I 0 W/m 3,0 C 9,9 C 0,0 km/h (0 Bft)
06.06.2020 23:46 10,0 C 62 % 1005,9 hPa 0,0 l/m 0,0 km/h (0 Bft) S 170 0 min 0,0 UV-I 0 W/m 3,1 C 10,0 C 0,0 km/h (0 Bft)
06.06.2020 23:45 10,0 C 62 % 1005,9 hPa 0,0 l/m 0,0 km/h (0 Bft) S 170 0 min 0,0 UV-I 0 W/m 3,1 C 10,0 C 0,0 km/h (0 Bft)
06.06.2020 23:44 10,0 C 62 % 1005,9 hPa 0,0 l/m 0,0 km/h (0 Bft) S 170 0 min 0,0 UV-I 0 W/m 3,1 C 10,0 C 0,0 km/h (0 Bft)
06.06.2020 23:43 10,1 C 63 % 1005,9 hPa 0,0 l/m 0,0 km/h (0 Bft) S 170 0 min 0,0 UV-I 0 W/m 3,4 C 10,1 C 0,0 km/h (0 Bft)
06.06.2020 23:42 10,1 C 63 % 1005,9 hPa 0,0 l/m 0,0 km/h (0 Bft) S 170 0 min 0,0 UV-I 0 W/m 3,4 C 10,1 C 0,0 km/h (0 Bft)
06.06.2020 23:41 10,1 C 63 % 1005,9 hPa 0,0 l/m 0,1 km/h (0 Bft) S 170 0 min 0,0 UV-I 0 W/m 3,4 C 10,1 C 1,6 km/h (1 Bft)
06.06.2020 23:40 10,2 C 63 % 1005,9 hPa 0,0 l/m 0,0 km/h (0 Bft) S 170 0 min 0,0 UV-I 0 W/m 3,5 C 10,2 C 0,0 km/h (0 Bft)
06.06.2020 23:39 10,2 C 63 % 1005,9 hPa 0,0 l/m 0,0 km/h (0 Bft) S 170 0 min 0,0 UV-I 0 W/m 3,5 C 10,2 C 0,0 km/h (0 Bft)
06.06.2020 23:38 10,2 C 63 % 1005,9 hPa 0,0 l/m 0,0 km/h (0 Bft) S 170 0 min 0,0 UV-I 0 W/m 3,5 C 10,2 C 0,0 km/h (0 Bft)
06.06.2020 23:37 10,2 C 63 % 1005,9 hPa 0,0 l/m 0,0 km/h (0 Bft) S 170 0 min 0,0 UV-I 0 W/m 3,5 C 10,2 C 0,0 km/h (0 Bft)
06.06.2020 23:36 10,3 C 64 % 1005,9 hPa 0,0 l/m 0,1 km/h (0 Bft) S 170 0 min 0,0 UV-I 0 W/m 3,8 C 10,3 C 1,6 km/h (1 Bft)
06.06.2020 23:35 10,3 C 64 % 1005,8 hPa 0,0 l/m 0,0 km/h (0 Bft) S 170 0 min 0,0 UV-I 0 W/m 3,8 C 10,3 C 0,0 km/h (0 Bft)
06.06.2020 23:34 10,4 C 64 % 1005,8 hPa 0,0 l/m 0,0 km/h (0 Bft) S 170 0 min 0,0 UV-I 0 W/m 3,9 C 10,4 C 0,0 km/h (0 Bft)
06.06.2020 23:33 10,4 C 63 % 1005,8 hPa 0,0 l/m 0,1 km/h (0 Bft) S 170 0 min 0,0 UV-I 0 W/m 3,7 C 10,4 C 1,6 km/h (1 Bft)
06.06.2020 23:32 10,5 C 63 % 1005,8 hPa 0,0 l/m 0,3 km/h (0 Bft) S 170 0 min 0,0 UV-I 0 W/m 3,8 C 10,5 C 1,6 km/h (1 Bft)
06.06.2020 23:31 10,6 C 63 % 1005,9 hPa 0,0 l/m 0,2 km/h (0 Bft) S 170 0 min 0,0 UV-I 0 W/m 3,9 C 10,6 C 1,6 km/h (1 Bft)
06.06.2020 23:30 10,6 C 63 % 1005,9 hPa 0,0 l/m 0,0 km/h (0 Bft) S 170 0 min 0,0 UV-I 0 W/m 3,9 C 10,6 C 0,0 km/h (0 Bft)
06.06.2020 23:29 10,6 C 63 % 1005,9 hPa 0,0 l/m 0,0 km/h (0 Bft) S 170 0 min 0,0 UV-I 0 W/m 3,9 C 10,6 C 0,0 km/h (0 Bft)
06.06.2020 23:28 10,6 C 63 % 1005,8 hPa 0,0 l/m 0,0 km/h (0 Bft) S 170 0 min 0,0 UV-I 0 W/m 3,9 C 10,6 C 0,0 km/h (0 Bft)
06.06.2020 23:27 10,7 C 63 % 1005,9 hPa 0,0 l/m 0,0 km/h (0 Bft) S 170 0 min 0,0 UV-I 0 W/m 3,9 C 10,7 C 0,0 km/h (0 Bft)
06.06.2020 23:26 10,7 C 63 % 1005,9 hPa 0,0 l/m 0,0 km/h (0 Bft) S 170 0 min 0,0 UV-I 0 W/m 3,9 C 10,7 C 0,0 km/h (0 Bft)
06.06.2020 23:25 10,7 C 63 % 1005,9 hPa 0,0 l/m 0,0 km/h (0 Bft) S 170 0 min 0,0 UV-I 0 W/m 3,9 C 10,7 C 0,0 km/h (0 Bft)
06.06.2020 23:24 10,7 C 64 % 1005,8 hPa 0,0 l/m 0,2 km/h (0 Bft) S 170 0 min 0,0 UV-I 0 W/m 4,2 C 10,7 C 1,6 km/h (1 Bft)
06.06.2020 23:23 10,7 C 64 % 1005,9 hPa 0,0 l/m 0,7 km/h (0 Bft) S 170 0 min 0,0 UV-I 0 W/m 4,2 C 10,7 C 1,6 km/h (1 Bft)
06.06.2020 23:22 10,8 C 64 % 1005,9 hPa 0,0 l/m 0,0 km/h (0 Bft) S 170 0 min 0,0 UV-I 0 W/m 4,3 C 10,8 C 0,0 km/h (0 Bft)
06.06.2020 23:21 10,8 C 64 % 1005,9 hPa 0,0 l/m 0,0 km/h (0 Bft) S 170 0 min 0,0 UV-I 0 W/m 4,3 C 10,8 C 0,0 km/h (0 Bft)
06.06.2020 23:20 10,8 C 64 % 1005,9 hPa 0,0 l/m 0,0 km/h (0 Bft) S 170 0 min 0,0 UV-I 0 W/m 4,3 C 10,8 C 0,0 km/h (0 Bft)
06.06.2020 23:19 10,8 C 64 % 1005,9 hPa 0,0 l/m 0,4 km/h (0 Bft) S 170 0 min 0,0 UV-I 0 W/m 4,3 C 10,8 C 1,6 km/h (1 Bft)
06.06.2020 23:18 10,8 C 65 % 1005,9 hPa 0,0 l/m 1,1 km/h (1 Bft) S 170 0 min 0,0 UV-I 0 W/m 4,5 C 10,8 C 1,6 km/h (1 Bft)
06.06.2020 23:17 10,9 C 65 % 1005,9 hPa 0,0 l/m 0,7 km/h (0 Bft) S 170 0 min 0,0 UV-I 0 W/m 4,6 C 10,9 C 1,6 km/h (1 Bft)
06.06.2020 23:16 10,9 C 65 % 1005,9 hPa 0,0 l/m 0,5 km/h (0 Bft) S 170 0 min 0,0 UV-I 0 W/m 4,6 C 10,9 C 1,6 km/h (1 Bft)
06.06.2020 23:15 10,9 C 65 % 1005,8 hPa 0,0 l/m 0,2 km/h (0 Bft) S 170 0 min 0,0 UV-I 0 W/m 4,6 C 10,9 C 1,6 km/h (1 Bft)
06.06.2020 23:14 10,9 C 65 % 1005,9 hPa 0,0 l/m 0,1 km/h (0 Bft) S 170 0 min 0,0 UV-I 0 W/m 4,6 C 10,9 C 1,6 km/h (1 Bft)
06.06.2020 23:13 11,0 C 66 % 1005,9 hPa 0,0 l/m 0,5 km/h (0 Bft) S 170 0 min 0,0 UV-I 0 W/m 4,9 C 11,0 C 1,6 km/h (1 Bft)
06.06.2020 23:12 11,0 C 66 % 1005,9 hPa 0,0 l/m 0,8 km/h (0 Bft) S 170 0 min 0,0 UV-I 0 W/m 4,9 C 11,0 C 1,6 km/h (1 Bft)
06.06.2020 23:11 11,1 C 66 % 1005,9 hPa 0,0 l/m 0,6 km/h (0 Bft) S 170 0 min 0,0 UV-I 0 W/m 5,0 C 11,1 C 1,6 km/h (1 Bft)
06.06.2020 23:10 11,1 C 66 % 1005,9 hPa 0,0 l/m 0,9 km/h (0 Bft) S 170 0 min 0,0 UV-I 0 W/m 5,0 C 11,1 C 1,6 km/h (1 Bft)
06.06.2020 23:09 11,1 C 66 % 1005,9 hPa 0,0 l/m 0,9 km/h (0 Bft) S 170 0 min 0,0 UV-I 0 W/m 5,0 C 11,1 C 1,6 km/h (1 Bft)
06.06.2020 23:08 11,2 C 66 % 1005,9 hPa 0,0 l/m 1,2 km/h (1 Bft) S 170 0 min 0,0 UV-I 0 W/m 5,1 C 11,2 C 1,6 km/h (1 Bft)
06.06.2020 23:07 11,2 C 66 % 1005,9 hPa 0,0 l/m 0,3 km/h (0 Bft) S 170 0 min 0,0 UV-I 0 W/m 5,1 C 11,2 C 1,6 km/h (1 Bft)
06.06.2020 23:06 11,2 C 66 % 1005,9 hPa 0,0 l/m 0,3 km/h (0 Bft) S 170 0 min 0,0 UV-I 0 W/m 5,1 C 11,2 C 1,6 km/h (1 Bft)
06.06.2020 23:05 11,2 C 66 % 1005,9 hPa 0,0 l/m 0,2 km/h (0 Bft) S 170 0 min 0,0 UV-I 0 W/m 5,1 C 11,2 C 1,6 km/h (1 Bft)
06.06.2020 23:04 11,3 C 66 % 1005,9 hPa 0,0 l/m 0,0 km/h (0 Bft) S 170 0 min 0,0 UV-I 0 W/m 5,2 C 11,3 C 0,0 km/h (0 Bft)
06.06.2020 23:03 11,3 C 66 % 1005,9 hPa 0,0 l/m 0,0 km/h (0 Bft) S 170 0 min 0,0 UV-I 0 W/m 5,2 C 11,3 C 0,0 km/h (0 Bft)
06.06.2020 23:02 11,3 C 67 % 1006,0 hPa 0,0 l/m 0,0 km/h (0 Bft) S 170 0 min 0,0 UV-I 0 W/m 5,4 C 11,3 C 0,0 km/h (0 Bft)
06.06.2020 23:01 11,3 C 67 % 1006,0 hPa 0,0 l/m 0,0 km/h (0 Bft) S 170 0 min 0,0 UV-I 0 W/m 5,4 C 11,3 C 0,0 km/h (0 Bft)
06.06.2020 23:00 11,3 C 67 % 1005,9 hPa 0,0 l/m 0,0 km/h (0 Bft) S 170 0 min 0,0 UV-I 0 W/m 5,4 C 11,3 C 0,0 km/h (0 Bft)
06.06.2020 22:59 11,3 C 67 % 1005,9 hPa 0,0 l/m 0,0 km/h (0 Bft) S 170 0 min 0,0 UV-I 0 W/m 5,4 C 11,3 C 0,0 km/h (0 Bft)
06.06.2020 22:58 11,3 C 67 % 1005,8 hPa 0,0 l/m 0,1 km/h (0 Bft) S 170 0 min 0,0 UV-I 0 W/m 5,4 C 11,3 C 1,6 km/h (1 Bft)
06.06.2020 22:57 11,4 C 67 % 1005,8 hPa 0,0 l/m 0,5 km/h (0 Bft) S 170 0 min 0,0 UV-I 0 W/m 5,5 C 11,4 C 1,6 km/h (1 Bft)
06.06.2020 22:56 11,4 C 67 % 1005,8 hPa 0,0 l/m 0,6 km/h (0 Bft) S 170 0 min 0,0 UV-I 0 W/m 5,5 C 11,4 C 1,6 km/h (1 Bft)
06.06.2020 22:55 11,4 C 67 % 1005,8 hPa 0,0 l/m 1,3 km/h (1 Bft) S 170 0 min 0,0 UV-I 0 W/m 5,5 C 11,4 C 3,2 km/h (1 Bft)
06.06.2020 22:54 11,4 C 67 % 1005,9 hPa 0,0 l/m 1,4 km/h (1 Bft) S 170 0 min 0,0 UV-I 0 W/m 5,5 C 11,4 C 3,2 km/h (1 Bft)
06.06.2020 22:53 11,4 C 67 % 1005,8 hPa 0,0 l/m 0,6 km/h (0 Bft) S 170 0 min 0,0 UV-I 0 W/m 5,5 C 11,4 C 1,6 km/h (1 Bft)
06.06.2020 22:52 11,4 C 67 % 1005,9 hPa 0,0 l/m 1,1 km/h (1 Bft) S 170 0 min 0,0 UV-I 0 W/m 5,5 C 11,4 C 1,6 km/h (1 Bft)
06.06.2020 22:51 11,5 C 67 % 1005,8 hPa 0,0 l/m 2,1 km/h (1 Bft) S 170 0 min 0,0 UV-I 0 W/m 5,6 C 11,5 C 3,2 km/h (1 Bft)
06.06.2020 22:50 11,5 C 67 % 1005,8 hPa 0,0 l/m 1,5 km/h (1 Bft) S 171 0 min 0,0 UV-I 0 W/m 5,6 C 11,5 C 3,2 km/h (1 Bft)
06.06.2020 22:49 11,5 C 67 % 1005,8 hPa 0,0 l/m 1,1 km/h (1 Bft) S 173 0 min 0,0 UV-I 0 W/m 5,6 C 11,5 C 3,2 km/h (1 Bft)
06.06.2020 22:48 11,5 C 68 % 1005,7 hPa 0,0 l/m 3,5 km/h (1 Bft) S-SW 192 0 min 0,0 UV-I 0 W/m 5,8 C 11,5 C 6,4 km/h (2 Bft)
06.06.2020 22:47 11,6 C 68 % 1005,7 hPa 0,0 l/m 1,2 km/h (1 Bft) S-SW 192 0 min 0,0 UV-I 0 W/m 5,9 C 11,6 C 1,6 km/h (1 Bft)
06.06.2020 22:46 11,6 C 68 % 1005,7 hPa 0,0 l/m 1,6 km/h (1 Bft) S-SW 192 0 min 0,0 UV-I 0 W/m 5,9 C 11,6 C 3,2 km/h (1 Bft)
06.06.2020 22:45 11,6 C 68 % 1005,8 hPa 0,0 l/m 0,7 km/h (0 Bft) S-SW 192 0 min 0,0 UV-I 0 W/m 5,9 C 11,6 C 1,6 km/h (1 Bft)
06.06.2020 22:44 11,6 C 67 % 1005,8 hPa 0,0 l/m 0,4 km/h (0 Bft) S-SW 192 0 min 0,0 UV-I 0 W/m 5,7 C 11,6 C 1,6 km/h (1 Bft)
06.06.2020 22:43 11,6 C 68 % 1005,8 hPa 0,0 l/m 0,6 km/h (0 Bft) S-SW 192 0 min 0,0 UV-I 0 W/m 5,9 C 11,6 C 1,6 km/h (1 Bft)
06.06.2020 22:42 11,6 C 67 % 1005,8 hPa 0,0 l/m 0,2 km/h (0 Bft) S-SW 192 0 min 0,0 UV-I 0 W/m 5,7 C 11,6 C 1,6 km/h (1 Bft)
06.06.2020 22:41 11,6 C 67 % 1005,8 hPa 0,0 l/m 0,3 km/h (0 Bft) S-SW 192 0 min 0,0 UV-I 0 W/m 5,7 C 11,6 C 1,6 km/h (1 Bft)
06.06.2020 22:40 11,6 C 67 % 1005,8 hPa 0,0 l/m 0,6 km/h (0 Bft) S-SW 192 0 min 0,0 UV-I 0 W/m 5,7 C 11,6 C 1,6 km/h (1 Bft)
06.06.2020 22:39 11,6 C 67 % 1005,8 hPa 0,0 l/m 0,0 km/h (0 Bft) S-SW 192 0 min 0,0 UV-I 0 W/m 5,7 C 11,6 C 0,0 km/h (0 Bft)
06.06.2020 22:38 11,6 C 67 % 1005,8 hPa 0,0 l/m 0,1 km/h (0 Bft) S-SW 192 0 min 0,0 UV-I 0 W/m 5,7 C 11,6 C 1,6 km/h (1 Bft)
06.06.2020 22:37 11,6 C 67 % 1005,8 hPa 0,0 l/m 0,1 km/h (0 Bft) S-SW 192 0 min 0,0 UV-I 0 W/m 5,7 C 11,6 C 1,6 km/h (1 Bft)
06.06.2020 22:36 11,6 C 67 % 1005,8 hPa 0,0 l/m 0,2 km/h (0 Bft) S-SW 192 0 min 0,0 UV-I 0 W/m 5,7 C 11,6 C 1,6 km/h (1 Bft)
06.06.2020 22:35 11,6 C 67 % 1005,7 hPa 0,0 l/m 0,6 km/h (0 Bft) S-SW 192 0 min 0,0 UV-I 0 W/m 5,7 C 11,6 C 1,6 km/h (1 Bft)
06.06.2020 22:34 11,6 C 67 % 1005,7 hPa 0,0 l/m 0,8 km/h (0 Bft) S-SW 192 0 min 0,0 UV-I 0 W/m 5,7 C 11,6 C 1,6 km/h (1 Bft)
06.06.2020 22:33 11,6 C 67 % 1005,7 hPa 0,0 l/m 1,0 km/h (0 Bft) S-SW 192 0 min 0,0 UV-I 0 W/m 5,7 C 11,6 C 3,2 km/h (1 Bft)
06.06.2020 22:32 11,6 C 66 % 1005,7 hPa 0,0 l/m 0,2 km/h (0 Bft) S-SW 206 0 min 0,0 UV-I 0 W/m 5,5 C 11,6 C 1,6 km/h (1 Bft)
06.06.2020 22:31 11,5 C 66 % 1005,7 hPa 0,0 l/m 1,1 km/h (1 Bft) S-SW 206 0 min 0,0 UV-I 0 W/m 5,4 C 11,5 C 1,6 km/h (1 Bft)
06.06.2020 22:30 11,5 C 66 % 1005,7 hPa 0,0 l/m 0,3 km/h (0 Bft) S 190 0 min 0,0 UV-I 0 W/m 5,4 C 11,5 C 1,6 km/h (1 Bft)
06.06.2020 22:29 11,5 C 66 % 1005,8 hPa 0,0 l/m 1,2 km/h (1 Bft) S 190 0 min 0,0 UV-I 0 W/m 5,4 C 11,5 C 3,2 km/h (1 Bft)
06.06.2020 22:28 11,4 C 66 % 1005,8 hPa 0,0 l/m 0,4 km/h (0 Bft) S 171 0 min 0,0 UV-I 0 W/m 5,3 C 11,4 C 1,6 km/h (1 Bft)
06.06.2020 22:27 11,4 C 66 % 1005,7 hPa 0,0 l/m 0,8 km/h (0 Bft) S 171 0 min 0,0 UV-I 0 W/m 5,3 C 11,4 C 1,6 km/h (1 Bft)
06.06.2020 22:26 11,4 C 66 % 1005,8 hPa 0,0 l/m 1,4 km/h (1 Bft) S 171 0 min 0,0 UV-I 0 W/m 5,3 C 11,4 C 3,2 km/h (1 Bft)
06.06.2020 22:25 11,3 C 66 % 1005,8 hPa 0,0 l/m 4,8 km/h (1 Bft) S-SO 168 0 min 0,0 UV-I 0 W/m 5,2 C 11,3 C 8,0 km/h (2 Bft)
06.06.2020 22:24 11,3 C 66 % 1005,8 hPa 0,0 l/m 2,5 km/h (1 Bft) S 171 0 min 0,0 UV-I 0 W/m 5,2 C 11,3 C 9,7 km/h (2 Bft)
06.06.2020 22:23 11,3 C 66 % 1005,8 hPa 0,0 l/m 1,8 km/h (1 Bft) S-SW 192 0 min 0,0 UV-I 0 W/m 5,2 C 11,3 C 3,2 km/h (1 Bft)
06.06.2020 22:22 11,3 C 66 % 1005,7 hPa 0,0 l/m 2,5 km/h (1 Bft) S-SW 193 0 min 0,0 UV-I 0 W/m 5,2 C 11,3 C 4,8 km/h (1 Bft)
06.06.2020 22:21 11,3 C 66 % 1005,8 hPa 0,0 l/m 3,3 km/h (1 Bft) S 190 0 min 0,0 UV-I 0 W/m 5,2 C 11,3 C 6,4 km/h (2 Bft)
06.06.2020 22:20 11,3 C 66 % 1005,7 hPa 0,0 l/m 0,3 km/h (0 Bft) S 188 0 min 0,0 UV-I 0 W/m 5,2 C 11,3 C 1,6 km/h (1 Bft)
06.06.2020 22:19 11,3 C 66 % 1005,7 hPa 0,0 l/m 0,5 km/h (0 Bft) S 188 0 min 0,0 UV-I 0 W/m 5,2 C 11,3 C 1,6 km/h (1 Bft)
06.06.2020 22:18 11,3 C 66 % 1005,7 hPa 0,0 l/m 0,9 km/h (0 Bft) S 188 0 min 0,0 UV-I 0 W/m 5,2 C 11,3 C 1,6 km/h (1 Bft)
06.06.2020 22:17 11,3 C 66 % 1005,7 hPa 0,0 l/m 0,9 km/h (0 Bft) S-SW 202 0 min 0,0 UV-I 0 W/m 5,2 C 11,3 C 1,6 km/h (1 Bft)
06.06.2020 22:16 11,3 C 66 % 1005,7 hPa 0,0 l/m 1,5 km/h (1 Bft) S-SW 202 0 min 0,0 UV-I 0 W/m 5,2 C 11,3 C 4,8 km/h (1 Bft)
06.06.2020 22:15 11,3 C 66 % 1005,7 hPa 0,0 l/m 0,9 km/h (0 Bft) S 169 0 min 0,0 UV-I 0 W/m 5,2 C 11,3 C 3,2 km/h (1 Bft)
06.06.2020 22:14 11,3 C 66 % 1005,7 hPa 0,0 l/m 0,5 km/h (0 Bft) S-SO 167 0 min 0,0 UV-I 0 W/m 5,2 C 11,3 C 1,6 km/h (1 Bft)
06.06.2020 22:13 11,4 C 66 % 1005,7 hPa 0,0 l/m 0,1 km/h (0 Bft) S-SO 167 0 min 0,0 UV-I 0 W/m 5,3 C 11,4 C 1,6 km/h (1 Bft)
06.06.2020 22:12 11,4 C 66 % 1005,7 hPa 0,0 l/m 0,7 km/h (0 Bft) S-SO 167 0 min 0,0 UV-I 0 W/m 5,3 C 11,4 C 1,6 km/h (1 Bft)
06.06.2020 22:11 11,4 C 66 % 1005,6 hPa 0,0 l/m 0,2 km/h (0 Bft) S-SO 167 0 min 0,0 UV-I 0 W/m 5,3 C 11,4 C 1,6 km/h (1 Bft)
06.06.2020 22:10 11,4 C 66 % 1005,6 hPa 0,0 l/m 0,3 km/h (0 Bft) S-SO 167 0 min 0,0 UV-I 0 W/m 5,3 C 11,4 C 1,6 km/h (1 Bft)
06.06.2020 22:09 11,4 C 66 % 1005,5 hPa 0,0 l/m 0,6 km/h (0 Bft) S-SO 167 0 min 0,0 UV-I 0 W/m 5,3 C 11,4 C 1,6 km/h (1 Bft)
06.06.2020 22:08 11,4 C 67 % 1005,6 hPa 0,0 l/m 0,2 km/h (0 Bft) S-SO 167 0 min 0,0 UV-I 0 W/m 5,5 C 11,4 C 1,6 km/h (1 Bft)
06.06.2020 22:07 11,4 C 67 % 1005,7 hPa 0,0 l/m 0,1 km/h (0 Bft) S-SO 167 0 min 0,0 UV-I 0 W/m 5,5 C 11,4 C 1,6 km/h (1 Bft)
06.06.2020 22:06 11,4 C 67 % 1005,6 hPa 0,0 l/m 0,3 km/h (0 Bft) S-SO 167 0 min 0,0 UV-I 0 W/m 5,5 C 11,4 C 1,6 km/h (1 Bft)
06.06.2020 22:05 11,4 C 67 % 1005,6 hPa 0,0 l/m 0,0 km/h (0 Bft) S-SO 167 0 min 0,0 UV-I 0 W/m 5,5 C 11,4 C 0,0 km/h (0 Bft)
06.06.2020 22:04 11,4 C 67 % 1005,6 hPa 0,0 l/m 0,1 km/h (0 Bft) S-SO 167 0 min 0,0 UV-I 0 W/m 5,5 C 11,4 C 1,6 km/h (1 Bft)
06.06.2020 22:03 11,4 C 67 % 1005,6 hPa 0,0 l/m 0,1 km/h (0 Bft) S-SO 167 0 min 0,0 UV-I 0 W/m 5,5 C 11,4 C 1,6 km/h (1 Bft)
06.06.2020 22:02 11,4 C 67 % 1005,7 hPa 0,0 l/m 0,1 km/h (0 Bft) S-SO 167 0 min 0,0 UV-I 0 W/m 5,5 C 11,4 C 1,6 km/h (1 Bft)
06.06.2020 22:01 11,4 C 67 % 1005,6 hPa 0,0 l/m 0,5 km/h (0 Bft) S-SO 167 0 min 0,0 UV-I 0 W/m 5,5 C 11,4 C 1,6 km/h (1 Bft)
06.06.2020 22:00 11,4 C 67 % 1005,6 hPa 0,0 l/m 1,2 km/h (1 Bft) S-SO 167 0 min 0,0 UV-I 0 W/m 5,5 C 11,4 C 4,8 km/h (1 Bft)
06.06.2020 21:59 11,4 C 68 % 1005,6 hPa 0,0 l/m 0,7 km/h (0 Bft) S-SO 167 0 min 0,0 UV-I 0 W/m 5,7 C 11,4 C 1,6 km/h (1 Bft)
06.06.2020 21:58 11,4 C 68 % 1005,6 hPa 0,0 l/m 0,5 km/h (0 Bft) S-SO 167 0 min 0,0 UV-I 0 W/m 5,7 C 11,4 C 1,6 km/h (1 Bft)
06.06.2020 21:57 11,4 C 69 % 1005,7 hPa 0,0 l/m 0,3 km/h (0 Bft) S-SO 167 0 min 0,0 UV-I 0 W/m 5,9 C 11,4 C 1,6 km/h (1 Bft)
06.06.2020 21:56 11,4 C 69 % 1005,6 hPa 0,0 l/m 0,0 km/h (0 Bft) S-SO 165 0 min 0,0 UV-I 0 W/m 5,9 C 11,4 C 0,0 km/h (0 Bft)
06.06.2020 21:55 11,4 C 69 % 1005,6 hPa 0,0 l/m 0,2 km/h (0 Bft) S-SO 165 0 min 0,0 UV-I 0 W/m 5,9 C 11,4 C 1,6 km/h (1 Bft)
06.06.2020 21:54 11,4 C 70 % 1005,6 hPa 0,0 l/m 0,3 km/h (0 Bft) S-SO 165 0 min 0,0 UV-I 0 W/m 6,1 C 11,4 C 1,6 km/h (1 Bft)
06.06.2020 21:53 11,5 C 70 % 1005,5 hPa 0,0 l/m 0,5 km/h (0 Bft) S-SO 165 0 min 0,0 UV-I 0 W/m 6,2 C 11,5 C 1,6 km/h (1 Bft)
06.06.2020 21:52 11,6 C 71 % 1005,5 hPa 0,0 l/m 0,3 km/h (0 Bft) S-SO 165 0 min 0,0 UV-I 0 W/m 6,5 C 11,6 C 1,6 km/h (1 Bft)
06.06.2020 21:51 11,6 C 71 % 1005,5 hPa 0,0 l/m 0,3 km/h (0 Bft) S-SO 165 0 min 0,0 UV-I 0 W/m 6,5 C 11,6 C 1,6 km/h (1 Bft)
06.06.2020 21:50 11,7 C 71 % 1005,5 hPa 0,0 l/m 0,0 km/h (0 Bft) S-SO 165 0 min 0,0 UV-I 0 W/m 6,6 C 11,7 C 0,0 km/h (0 Bft)
06.06.2020 21:49 11,7 C 71 % 1005,5 hPa 0,0 l/m 0,0 km/h (0 Bft) S-SO 165 0 min 0,0 UV-I 0 W/m 6,6 C 11,7 C 0,0 km/h (0 Bft)
06.06.2020 21:48 11,7 C 71 % 1005,5 hPa 0,0 l/m 0,0 km/h (0 Bft) S-SO 165 0 min 0,0 UV-I 0 W/m 6,6 C 11,7 C 0,0 km/h (0 Bft)
06.06.2020 21:47 11,8 C 72 % 1005,5 hPa 0,0 l/m 0,0 km/h (0 Bft) S-SO 165 0 min 0,0 UV-I 0 W/m 6,9 C 11,8 C 0,0 km/h (0 Bft)
06.06.2020 21:46 11,8 C 72 % 1005,5 hPa 0,0 l/m 0,0 km/h (0 Bft) S-SO 165 0 min 0,0 UV-I 0 W/m 6,9 C 11,8 C 0,0 km/h (0 Bft)
06.06.2020 21:45 11,8 C 72 % 1005,5 hPa 0,0 l/m 0,0 km/h (0 Bft) S-SO 165 0 min 0,0 UV-I 0 W/m 6,9 C 11,8 C 0,0 km/h (0 Bft)
06.06.2020 21:44 11,9 C 72 % 1005,4 hPa 0,0 l/m 0,0 km/h (0 Bft) S-SO 165 0 min 0,0 UV-I 0 W/m 7,0 C 11,9 C 0,0 km/h (0 Bft)
06.06.2020 21:43 11,9 C 72 % 1005,4 hPa 0,0 l/m 0,0 km/h (0 Bft) S-SO 165 0 min 0,0 UV-I 0 W/m 7,0 C 11,9 C 0,0 km/h (0 Bft)
06.06.2020 21:42 12,0 C 72 % 1005,4 hPa 0,0 l/m 0,0 km/h (0 Bft) S-SO 165 0 min 0,0 UV-I 0 W/m 7,1 C 12,0 C 0,0 km/h (0 Bft)
06.06.2020 21:41 12,1 C 73 % 1005,4 hPa 0,0 l/m 0,0 km/h (0 Bft) S-SO 165 0 min 0,0 UV-I 0 W/m 7,4 C 12,1 C 0,0 km/h (0 Bft)
06.06.2020 21:40 12,1 C 73 % 1005,4 hPa 0,0 l/m 0,1 km/h (0 Bft) S-SO 165 0 min 0,0 UV-I 0 W/m 7,4 C 12,1 C 1,6 km/h (1 Bft)
06.06.2020 21:39 12,1 C 73 % 1005,4 hPa 0,0 l/m 0,7 km/h (0 Bft) S-SO 165 0 min 0,0 UV-I 0 W/m 7,4 C 12,1 C 1,6 km/h (1 Bft)
06.06.2020 21:38 12,2 C 73 % 1005,4 hPa 0,0 l/m 0,3 km/h (0 Bft) S-SO 165 0 min 0,0 UV-I 0 W/m 7,5 C 12,2 C 1,6 km/h (1 Bft)
06.06.2020 21:37 12,2 C 73 % 1005,4 hPa 0,0 l/m 0,3 km/h (0 Bft) S-SO 165 0 min 0,0 UV-I 0 W/m 7,5 C 12,2 C 1,6 km/h (1 Bft)
06.06.2020 21:36 12,3 C 73 % 1005,4 hPa 0,0 l/m 0,2 km/h (0 Bft) S-SO 165 0 min 0,0 UV-I 0 W/m 7,6 C 12,3 C 1,6 km/h (1 Bft)
06.06.2020 21:35 12,3 C 73 % 1005,4 hPa 0,0 l/m 0,1 km/h (0 Bft) S-SO 165 0 min 0,0 UV-I 0 W/m 7,6 C 12,3 C 1,6 km/h (1 Bft)
06.06.2020 21:34 12,3 C 73 % 1005,4 hPa 0,0 l/m 0,6 km/h (0 Bft) S-SO 165 0 min 0,0 UV-I 0 W/m 7,6 C 12,3 C 1,6 km/h (1 Bft)
06.06.2020 21:33 12,3 C 73 % 1005,4 hPa 0,0 l/m 0,3 km/h (0 Bft) S-SO 159 0 min 0,0 UV-I 0 W/m 7,6 C 12,3 C 1,6 km/h (1 Bft)
06.06.2020 21:32 12,4 C 73 % 1005,4 hPa 0,0 l/m 0,3 km/h (0 Bft) S-SO 159 0 min 0,0 UV-I 0 W/m 7,7 C 12,4 C 1,6 km/h (1 Bft)
06.06.2020 21:31 12,4 C 73 % 1005,3 hPa 0,0 l/m 1,0 km/h (0 Bft) S-SO 159 0 min 0,0 UV-I 0 W/m 7,7 C 12,4 C 1,6 km/h (1 Bft)
06.06.2020 21:30 12,4 C 74 % 1005,2 hPa 0,0 l/m 0,2 km/h (0 Bft) S-SO 159 0 min 0,0 UV-I 0 W/m 7,9 C 12,4 C 1,6 km/h (1 Bft)
06.06.2020 21:29 12,5 C 74 % 1005,2 hPa 0,0 l/m 0,5 km/h (0 Bft) S-SO 159 0 min 0,0 UV-I 0 W/m 8,0 C 12,5 C 1,6 km/h (1 Bft)
06.06.2020 21:28 12,5 C 74 % 1005,2 hPa 0,0 l/m 1,7 km/h (1 Bft) S-SO 159 0 min 0,0 UV-I 0 W/m 8,0 C 12,5 C 3,2 km/h (1 Bft)
06.06.2020 21:27 12,6 C 74 % 1005,2 hPa 0,0 l/m 1,6 km/h (1 Bft) S-SO 159 0 min 0,0 UV-I 0 W/m 8,1 C 12,6 C 3,2 km/h (1 Bft)
06.06.2020 21:26 12,6 C 74 % 1005,2 hPa 0,0 l/m 1,3 km/h (1 Bft) S-SO 159 0 min 0,0 UV-I 0 W/m 8,1 C 12,6 C 1,6 km/h (1 Bft)
06.06.2020 21:25 12,7 C 74 % 1005,2 hPa 0,0 l/m 1,8 km/h (1 Bft) S-SO 159 0 min 0,0 UV-I 0 W/m 8,2 C 12,7 C 3,2 km/h (1 Bft)
06.06.2020 21:24 12,7 C 74 % 1005,1 hPa 0,0 l/m 2,3 km/h (1 Bft) S-SO 159 0 min 0,0 UV-I 0 W/m 8,2 C 12,7 C 3,2 km/h (1 Bft)
06.06.2020 21:23 12,7 C 74 % 1005,2 hPa 0,0 l/m 2,7 km/h (1 Bft) S 173 0 min 0,0 UV-I 0 W/m 8,2 C 12,7 C 6,4 km/h (2 Bft)
06.06.2020 21:22 12,8 C 74 % 1005,1 hPa 0,0 l/m 2,3 km/h (1 Bft) S-SO 159 0 min 0,0 UV-I 0 W/m 8,3 C 12,8 C 3,2 km/h (1 Bft)
06.06.2020 21:21 12,8 C 74 % 1005,1 hPa 0,0 l/m 1,7 km/h (1 Bft) S 191 0 min 0,0 UV-I 0 W/m 8,3 C 12,8 C 3,2 km/h (1 Bft)
06.06.2020 21:20 12,8 C 74 % 1005,1 hPa 0,0 l/m 1,1 km/h (1 Bft) S-SW 192 0 min 0,0 UV-I 0 W/m 8,3 C 12,8 C 3,2 km/h (1 Bft)
06.06.2020 21:19 12,9 C 74 % 1005,1 hPa 0,0 l/m 1,5 km/h (1 Bft) S-SW 192 0 min 0,0 UV-I 5 W/m 8,4 C 12,9 C 3,2 km/h (1 Bft)
06.06.2020 21:18 12,9 C 74 % 1005,1 hPa 0,0 l/m 1,1 km/h (1 Bft) S 189 0 min 0,0 UV-I 5 W/m 8,4 C 12,9 C 1,6 km/h (1 Bft)
06.06.2020 21:17 12,9 C 74 % 1005,1 hPa 0,0 l/m 1,9 km/h (1 Bft) S 178 0 min 0,0 UV-I 5 W/m 8,4 C 12,9 C 4,8 km/h (1 Bft)
06.06.2020 21:16 13,0 C 74 % 1005,1 hPa 0,0 l/m 0,9 km/h (0 Bft) S-SO 166 0 min 0,0 UV-I 5 W/m 8,5 C 13,0 C 1,6 km/h (1 Bft)
06.06.2020 21:15 13,1 C 74 % 1005,0 hPa 0,0 l/m 0,9 km/h (0 Bft) S-SO 166 0 min 0,0 UV-I 5 W/m 8,6 C 13,1 C 1,6 km/h (1 Bft)
06.06.2020 21:14 13,1 C 74 % 1005,0 hPa 0,0 l/m 2,5 km/h (1 Bft) S-SO 166 0 min 0,0 UV-I 5 W/m 8,6 C 13,1 C 6,4 km/h (2 Bft)
06.06.2020 21:13 13,1 C 74 % 1004,9 hPa 0,0 l/m 2,2 km/h (1 Bft) S 169 0 min 0,0 UV-I 5 W/m 8,6 C 13,1 C 6,4 km/h (2 Bft)
06.06.2020 21:12 13,1 C 74 % 1004,9 hPa 0,0 l/m 1,7 km/h (1 Bft) S 181 0 min 0,0 UV-I 5 W/m 8,6 C 13,1 C 3,2 km/h (1 Bft)
06.06.2020 21:11 13,1 C 74 % 1005,0 hPa 0,0 l/m 1,3 km/h (1 Bft) S-SW 202 0 min 0,0 UV-I 5 W/m 8,6 C 13,1 C 3,2 km/h (1 Bft)
06.06.2020 21:10 13,2 C 74 % 1005,0 hPa 0,0 l/m 0,5 km/h (0 Bft) S-SW 202 0 min 0,0 UV-I 6 W/m 8,7 C 13,2 C 1,6 km/h (1 Bft)
06.06.2020 21:09 13,2 C 74 % 1005,0 hPa 0,0 l/m 2,5 km/h (1 Bft) S-SW 202 0 min 0,0 UV-I 7 W/m 8,7 C 13,2 C 4,8 km/h (1 Bft)
06.06.2020 21:08 13,2 C 74 % 1005,0 hPa 0,0 l/m 2,2 km/h (1 Bft) SW 215 0 min 0,0 UV-I 7 W/m 8,7 C 13,2 C 3,2 km/h (1 Bft)
06.06.2020 21:07 13,3 C 74 % 1005,0 hPa 0,0 l/m 1,2 km/h (1 Bft) S-SW 204 0 min 0,0 UV-I 7 W/m 8,8 C 13,3 C 3,2 km/h (1 Bft)
06.06.2020 21:06 13,3 C 74 % 1005,0 hPa 0,0 l/m 0,2 km/h (0 Bft) S 188 0 min 0,0 UV-I 7 W/m 8,8 C 13,3 C 1,6 km/h (1 Bft)
06.06.2020 21:05 13,3 C 74 % 1005,0 hPa 0,0 l/m 0,4 km/h (0 Bft) S 188 0 min 0,0 UV-I 7 W/m 8,8 C 13,3 C 1,6 km/h (1 Bft)
06.06.2020 21:04 13,4 C 74 % 1004,9 hPa 0,0 l/m 0,5 km/h (0 Bft) S 188 0 min 0,0 UV-I 7 W/m 8,9 C 13,4 C 1,6 km/h (1 Bft)
06.06.2020 21:03 13,4 C 74 % 1004,9 hPa 0,0 l/m 1,3 km/h (1 Bft) S 188 0 min 0,0 UV-I 8 W/m 8,9 C 13,4 C 3,2 km/h (1 Bft)
06.06.2020 21:02 13,4 C 74 % 1004,9 hPa 0,0 l/m 1,1 km/h (1 Bft) S-SW 198 0 min 0,0 UV-I 9 W/m 8,9 C 13,4 C 3,2 km/h (1 Bft)
06.06.2020 21:01 13,5 C 74 % 1004,9 hPa 0,0 l/m 0,0 km/h (0 Bft) S-SW 198 0 min 0,0 UV-I 9 W/m 9,0 C 13,5 C 0,0 km/h (0 Bft)
06.06.2020 21:00 13,6 C 74 % 1004,9 hPa 0,0 l/m 1,1 km/h (1 Bft) S-SW 198 0 min 0,0 UV-I 11 W/m 9,1 C 13,6 C 4,8 km/h (1 Bft)
06.06.2020 20:59 13,6 C 74 % 1004,9 hPa 0,0 l/m 2,4 km/h (1 Bft) S-SW 198 0 min 0,0 UV-I 11 W/m 9,1 C 13,6 C 3,2 km/h (1 Bft)
06.06.2020 20:58 13,6 C 74 % 1004,9 hPa 0,0 l/m 0,1 km/h (0 Bft) SW 221 0 min 0,0 UV-I 12 W/m 9,1 C 13,6 C 1,6 km/h (1 Bft)
06.06.2020 20:57 13,7 C 74 % 1004,9 hPa 0,0 l/m 0,0 km/h (0 Bft) SW 221 0 min 0,0 UV-I 12 W/m 9,2 C 13,7 C 0,0 km/h (0 Bft)
06.06.2020 20:56 13,7 C 74 % 1004,9 hPa 0,0 l/m 0,6 km/h (0 Bft) SW 221 0 min 0,0 UV-I 14 W/m 9,2 C 13,7 C 1,6 km/h (1 Bft)
06.06.2020 20:55 13,7 C 73 % 1004,9 hPa 0,0 l/m 1,1 km/h (1 Bft) SW 221 0 min 0,0 UV-I 14 W/m 8,9 C 13,7 C 1,6 km/h (1 Bft)
06.06.2020 20:54 13,8 C 73 % 1004,9 hPa 0,0 l/m 1,1 km/h (1 Bft) SW 221 0 min 0,0 UV-I 15 W/m 9,0 C 13,8 C 1,6 km/h (1 Bft)
06.06.2020 20:53 13,8 C 73 % 1004,9 hPa 0,0 l/m 0,9 km/h (0 Bft) SW 221 0 min 0,0 UV-I 17 W/m 9,0 C 13,8 C 3,2 km/h (1 Bft)
06.06.2020 20:52 13,8 C 73 % 1004,9 hPa 0,0 l/m 2,5 km/h (1 Bft) SW 221 0 min 0,0 UV-I 18 W/m 9,0 C 13,8 C 3,2 km/h (1 Bft)
06.06.2020 20:51 13,8 C 73 % 1004,9 hPa 0,0 l/m 1,5 km/h (1 Bft) SW 224 0 min 0,0 UV-I 18 W/m 9,0 C 13,8 C 3,2 km/h (1 Bft)
06.06.2020 20:50 13,9 C 73 % 1004,9 hPa 0,0 l/m 0,5 km/h (0 Bft) SW 224 0 min 0,0 UV-I 16 W/m 9,1 C 13,9 C 1,6 km/h (1 Bft)
06.06.2020 20:49 13,9 C 73 % 1005,0 hPa 0,0 l/m 2,5 km/h (1 Bft) SW 224 0 min 0,0 UV-I 16 W/m 9,1 C 13,9 C 3,2 km/h (1 Bft)
06.06.2020 20:48 13,9 C 73 % 1004,9 hPa 0,0 l/m 5,6 km/h (1 Bft) SW 219 0 min 0,0 UV-I 16 W/m 9,1 C 13,9 C 9,7 km/h (2 Bft)
06.06.2020 20:47 14,0 C 73 % 1005,0 hPa 0,0 l/m 1,7 km/h (1 Bft) S-SW 202 0 min 0,0 UV-I 16 W/m 9,2 C 14,0 C 3,2 km/h (1 Bft)
06.06.2020 20:46 14,0 C 73 % 1005,0 hPa 0,0 l/m 1,7 km/h (1 Bft) SW 232 0 min 0,0 UV-I 17 W/m 9,2 C 14,0 C 3,2 km/h (1 Bft)
06.06.2020 20:45 14,1 C 73 % 1005,0 hPa 0,0 l/m 1,1 km/h (1 Bft) SW 234 0 min 0,0 UV-I 18 W/m 9,3 C 14,1 C 3,2 km/h (1 Bft)
06.06.2020 20:44 14,1 C 73 % 1004,9 hPa 0,0 l/m 2,1 km/h (1 Bft) S-SW 213 0 min 0,0 UV-I 18 W/m 9,3 C 14,1 C 3,2 km/h (1 Bft)
06.06.2020 20:43 14,1 C 73 % 1004,9 hPa 0,0 l/m 1,3 km/h (1 Bft) S-SW 193 0 min 0,0 UV-I 18 W/m 9,3 C 14,1 C 3,2 km/h (1 Bft)
06.06.2020 20:42 14,2 C 73 % 1004,9 hPa 0,0 l/m 1,1 km/h (1 Bft) S-SW 195 0 min 0,0 UV-I 16 W/m 9,4 C 14,2 C 3,2 km/h (1 Bft)
06.06.2020 20:41 14,2 C 73 % 1004,9 hPa 0,0 l/m 1,9 km/h (1 Bft) S-SW 195 0 min 0,0 UV-I 18 W/m 9,4 C 14,2 C 3,2 km/h (1 Bft)
06.06.2020 20:40 14,2 C 73 % 1004,9 hPa 0,0 l/m 2,7 km/h (1 Bft) S-SW 194 0 min 0,0 UV-I 22 W/m 9,4 C 14,2 C 4,8 km/h (1 Bft)
06.06.2020 20:39 14,3 C 73 % 1004,8 hPa 0,0 l/m 0,5 km/h (0 Bft) S-SW 199 0 min 0,0 UV-I 27 W/m 9,5 C 14,3 C 3,2 km/h (1 Bft)
06.06.2020 20:38 14,3 C 73 % 1004,8 hPa 0,0 l/m 1,1 km/h (1 Bft) S-SW 199 0 min 0,0 UV-I 33 W/m 9,5 C 14,3 C 1,6 km/h (1 Bft)
06.06.2020 20:37 14,3 C 73 % 1004,8 hPa 0,0 l/m 2,7 km/h (1 Bft) S-SW 199 0 min 0,0 UV-I 37 W/m 9,5 C 14,3 C 4,8 km/h (1 Bft)
06.06.2020 20:36 14,3 C 73 % 1004,8 hPa 0,0 l/m 2,3 km/h (1 Bft) W-SW 237 0 min 0,0 UV-I 41 W/m 9,5 C 14,3 C 3,2 km/h (1 Bft)
06.06.2020 20:35 14,3 C 72 % 1004,9 hPa 0,0 l/m 3,9 km/h (1 Bft) W-SW 244 0 min 0,0 UV-I 48 W/m 9,3 C 14,3 C 6,4 km/h (2 Bft)
06.06.2020 20:34 14,3 C 72 % 1004,8 hPa 0,0 l/m 4,8 km/h (1 Bft) S-SW 208 1 min 0,0 UV-I 54 W/m 9,3 C 14,3 C 6,4 km/h (2 Bft)
06.06.2020 20:33 14,3 C 72 % 1004,8 hPa 0,0 l/m 5,1 km/h (1 Bft) SW 227 1 min 0,0 UV-I 63 W/m 9,3 C 14,3 C 8,0 km/h (2 Bft)
06.06.2020 20:32 14,3 C 72 % 1004,9 hPa 0,0 l/m 4,7 km/h (1 Bft) S-SW 200 1 min 0,0 UV-I 65 W/m 9,3 C 14,3 C 8,0 km/h (2 Bft)
06.06.2020 20:31 14,3 C 72 % 1004,9 hPa 0,0 l/m 6,7 km/h (2 Bft) SW 223 0 min 0,0 UV-I 47 W/m 9,3 C 14,1 C 9,7 km/h (2 Bft)
06.06.2020 20:30 14,3 C 72 % 1004,9 hPa 0,0 l/m 4,8 km/h (1 Bft) S 190 1 min 0,0 UV-I 58 W/m 9,3 C 14,3 C 9,7 km/h (2 Bft)
06.06.2020 20:29 14,4 C 72 % 1004,8 hPa 0,0 l/m 4,0 km/h (1 Bft) S-SW 197 0 min 0,0 UV-I 52 W/m 9,4 C 14,4 C 8,0 km/h (2 Bft)
06.06.2020 20:28 14,4 C 72 % 1004,9 hPa 0,0 l/m 0,5 km/h (0 Bft) S-SW 195 1 min 0,0 UV-I 62 W/m 9,4 C 14,4 C 1,6 km/h (1 Bft)
06.06.2020 20:27 14,4 C 72 % 1004,9 hPa 0,0 l/m 3,4 km/h (1 Bft) S-SW 195 1 min 0,0 UV-I 70 W/m 9,4 C 14,4 C 4,8 km/h (1 Bft)
06.06.2020 20:26 14,4 C 72 % 1004,9 hPa 0,0 l/m 2,3 km/h (1 Bft) S-SW 204 1 min 0,0 UV-I 72 W/m 9,4 C 14,4 C 4,8 km/h (1 Bft)
06.06.2020 20:25 14,4 C 72 % 1004,9 hPa 0,0 l/m 2,2 km/h (1 Bft) S-SW 208 1 min 0,0 UV-I 68 W/m 9,4 C 14,4 C 4,8 km/h (1 Bft)
06.06.2020 20:24 14,4 C 72 % 1004,9 hPa 0,0 l/m 4,4 km/h (1 Bft) SW 229 0 min 0,0 UV-I 58 W/m 9,4 C 14,4 C 6,4 km/h (2 Bft)
06.06.2020 20:23 14,4 C 72 % 1004,9 hPa 0,0 l/m 7,8 km/h (2 Bft) SW 235 0 min 0,0 UV-I 51 W/m 9,4 C 13,6 C 11,3 km/h (2 Bft)
06.06.2020 20:22 14,5 C 72 % 1004,9 hPa 0,0 l/m 4,2 km/h (1 Bft) SW 228 0 min 0,0 UV-I 48 W/m 9,5 C 14,5 C 8,0 km/h (2 Bft)
06.06.2020 20:21 14,5 C 72 % 1004,9 hPa 0,0 l/m 2,7 km/h (1 Bft) S-SW 205 0 min 0,0 UV-I 60 W/m 9,5 C 14,5 C 4,8 km/h (1 Bft)
06.06.2020 20:20 14,5 C 72 % 1004,9 hPa 0,0 l/m 1,9 km/h (1 Bft) W-SW 249 1 min 0,0 UV-I 72 W/m 9,5 C 14,5 C 3,2 km/h (1 Bft)
06.06.2020 20:19 14,6 C 72 % 1004,9 hPa 0,0 l/m 3,2 km/h (1 Bft) S-SW 200 0 min 0,0 UV-I 71 W/m 9,6 C 14,6 C 4,8 km/h (1 Bft)
06.06.2020 20:18 14,6 C 72 % 1004,9 hPa 0,0 l/m 5,2 km/h (1 Bft) SW 221 1 min 0,0 UV-I 73 W/m 9,6 C 14,6 C 8,0 km/h (2 Bft)
06.06.2020 20:17 14,6 C 72 % 1004,9 hPa 0,0 l/m 4,4 km/h (1 Bft) W 267 0 min 0,0 UV-I 70 W/m 9,6 C 14,6 C 9,7 km/h (2 Bft)
06.06.2020 20:16 14,7 C 72 % 1004,9 hPa 0,0 l/m 5,0 km/h (1 Bft) S-SW 194 0 min 0,0 UV-I 66 W/m 9,7 C 14,7 C 9,7 km/h (2 Bft)
06.06.2020 20:15 14,7 C 72 % 1004,9 hPa 0,0 l/m 5,2 km/h (1 Bft) S-SW 209 0 min 0,0 UV-I 65 W/m 9,7 C 14,7 C 9,7 km/h (2 Bft)
06.06.2020 20:14 14,7 C 71 % 1004,8 hPa 0,0 l/m 8,8 km/h (2 Bft) S 188 0 min 0,0 UV-I 78 W/m 9,5 C 13,4 C 16,1 km/h (3 Bft)
06.06.2020 20:13 14,8 C 71 % 1004,8 hPa 0,0 l/m 3,3 km/h (1 Bft) S 182 1 min 0,0 UV-I 82 W/m 9,6 C 14,8 C 6,4 km/h (2 Bft)
06.06.2020 20:12 14,8 C 71 % 1004,7 hPa 0,0 l/m 5,2 km/h (1 Bft) SO 124 1 min 0,0 UV-I 86 W/m 9,6 C 14,8 C 6,4 km/h (2 Bft)
06.06.2020 20:11 14,8 C 72 % 1004,8 hPa 0,0 l/m 4,8 km/h (1 Bft) S 190 1 min 0,0 UV-I 89 W/m 9,8 C 14,8 C 8,0 km/h (2 Bft)
06.06.2020 20:10 14,8 C 71 % 1004,8 hPa 0,0 l/m 3,5 km/h (1 Bft) S-SO 167 1 min 0,0 UV-I 92 W/m 9,6 C 14,8 C 6,4 km/h (2 Bft)
06.06.2020 20:09 14,8 C 71 % 1004,8 hPa 0,0 l/m 3,1 km/h (1 Bft) S-SW 192 1 min 0,0 UV-I 97 W/m 9,6 C 14,8 C 6,4 km/h (2 Bft)
06.06.2020 20:08 14,8 C 71 % 1004,8 hPa 0,0 l/m 5,4 km/h (1 Bft) SW 226 1 min 0,0 UV-I 101 W/m 9,6 C 14,8 C 9,7 km/h (2 Bft)
06.06.2020 20:07 14,8 C 72 % 1004,9 hPa 0,0 l/m 6,2 km/h (2 Bft) S-SW 204 1 min 0,0 UV-I 109 W/m 9,8 C 14,8 C 9,7 km/h (2 Bft)
06.06.2020 20:06 14,8 C 72 % 1004,9 hPa 0,0 l/m 6,9 km/h (2 Bft) S 186 1 min 0,0 UV-I 122 W/m 9,8 C 14,5 C 11,3 km/h (2 Bft)
06.06.2020 20:05 14,7 C 72 % 1005,0 hPa 0,0 l/m 4,4 km/h (1 Bft) S-SW 200 1 min 0,0 UV-I 139 W/m 9,7 C 14,7 C 8,0 km/h (2 Bft)
06.06.2020 20:04 14,7 C 72 % 1004,9 hPa 0,0 l/m 3,7 km/h (1 Bft) S-SW 211 1 min 0,0 UV-I 153 W/m 9,7 C 14,7 C 6,4 km/h (2 Bft)
06.06.2020 20:03 14,7 C 72 % 1005,0 hPa 0,0 l/m 2,5 km/h (1 Bft) W-SW 255 1 min 0,0 UV-I 156 W/m 9,7 C 14,7 C 6,4 km/h (2 Bft)
06.06.2020 20:02 14,6 C 72 % 1005,0 hPa 0,0 l/m 6,2 km/h (2 Bft) S 190 1 min 0,0 UV-I 155 W/m 9,6 C 14,6 C 8,0 km/h (2 Bft)
06.06.2020 20:01 14,6 C 72 % 1004,9 hPa 0,0 l/m 5,6 km/h (1 Bft) S-SW 197 1 min 0,0 UV-I 154 W/m 9,6 C 14,6 C 8,0 km/h (2 Bft)
06.06.2020 20:00 14,5 C 73 % 1005,0 hPa 0,0 l/m 6,4 km/h (2 Bft) SW 230 1 min 0,0 UV-I 156 W/m 9,7 C 14,5 C 9,7 km/h (2 Bft)
06.06.2020 19:59 14,4 C 73 % 1005,0 hPa 0,0 l/m 2,7 km/h (1 Bft) S-SW 207 1 min 0,0 UV-I 125 W/m 9,6 C 14,4 C 4,8 km/h (1 Bft)
06.06.2020 19:58 14,4 C 73 % 1005,0 hPa 0,0 l/m 4,8 km/h (1 Bft) S-SW 200 1 min 0,0 UV-I 113 W/m 9,6 C 14,4 C 6,4 km/h (2 Bft)
06.06.2020 19:57 14,4 C 73 % 1005,0 hPa 0,0 l/m 3,4 km/h (1 Bft) SW 222 1 min 0,0 UV-I 166 W/m 9,6 C 14,4 C 6,4 km/h (2 Bft)
06.06.2020 19:56 14,3 C 73 % 1004,9 hPa 0,0 l/m 3,3 km/h (1 Bft) SW 221 1 min 0,0 UV-I 151 W/m 9,5 C 14,3 C 6,4 km/h (2 Bft)
06.06.2020 19:55 14,3 C 73 % 1005,0 hPa 0,0 l/m 2,9 km/h (1 Bft) SW 221 1 min 0,0 UV-I 124 W/m 9,5 C 14,3 C 4,8 km/h (1 Bft)
06.06.2020 19:54 14,3 C 73 % 1005,0 hPa 0,0 l/m 5,2 km/h (1 Bft) W-SW 239 1 min 0,0 UV-I 140 W/m 9,5 C 14,3 C 11,3 km/h (2 Bft)
06.06.2020 19:53 14,2 C 73 % 1005,0 hPa 0,0 l/m 7,2 km/h (2 Bft) SW 234 1 min 0,0 UV-I 127 W/m 9,4 C 13,7 C 12,9 km/h (3 Bft)
06.06.2020 19:52 14,2 C 73 % 1005,0 hPa 0,0 l/m 6,9 km/h (2 Bft) W-SW 238 1 min 0,0 UV-I 133 W/m 9,4 C 13,9 C 11,3 km/h (2 Bft)
06.06.2020 19:51 14,2 C 73 % 1005,0 hPa 0,0 l/m 5,2 km/h (1 Bft) S-SW 194 0 min 0,0 UV-I 72 W/m 9,4 C 14,2 C 9,7 km/h (2 Bft)
06.06.2020 19:50 14,2 C 73 % 1004,9 hPa 0,0 l/m 1,9 km/h (1 Bft) SW 221 0 min 0,0 UV-I 70 W/m 9,4 C 14,2 C 3,2 km/h (1 Bft)
06.06.2020 19:49 14,2 C 73 % 1005,0 hPa 0,0 l/m 1,7 km/h (1 Bft) S-SW 200 0 min 0,0 UV-I 71 W/m 9,4 C 14,2 C 4,8 km/h (1 Bft)
06.06.2020 19:48 14,2 C 73 % 1004,9 hPa 0,0 l/m 3,8 km/h (1 Bft) S-SW 198 0 min 0,0 UV-I 83 W/m 9,4 C 14,2 C 8,0 km/h (2 Bft)
06.06.2020 19:47 14,2 C 73 % 1004,9 hPa 0,0 l/m 5,1 km/h (1 Bft) SW 227 0 min 0,0 UV-I 90 W/m 9,4 C 14,2 C 9,7 km/h (2 Bft)
06.06.2020 19:46 14,2 C 73 % 1004,9 hPa 0,0 l/m 2,6 km/h (1 Bft) S 181 0 min 0,0 UV-I 100 W/m 9,4 C 14,2 C 6,4 km/h (2 Bft)
06.06.2020 19:45 14,2 C 73 % 1004,9 hPa 0,0 l/m 0,9 km/h (0 Bft) S-SW 196 0 min 0,0 UV-I 51 W/m 9,4 C 14,2 C 3,2 km/h (1 Bft)
06.06.2020 19:44 14,2 C 73 % 1005,0 hPa 0,0 l/m 1,6 km/h (1 Bft) S-SW 196 0 min 0,0 UV-I 43 W/m 9,4 C 14,2 C 3,2 km/h (1 Bft)
06.06.2020 19:43 14,2 C 73 % 1005,0 hPa 0,0 l/m 2,8 km/h (1 Bft) S-SW 198 0 min 0,0 UV-I 38 W/m 9,4 C 14,2 C 4,8 km/h (1 Bft)
06.06.2020 19:42 14,2 C 73 % 1005,0 hPa 0,0 l/m 2,7 km/h (1 Bft) SW 231 0 min 0,0 UV-I 31 W/m 9,4 C 14,2 C 4,8 km/h (1 Bft)
06.06.2020 19:41 14,2 C 73 % 1005,0 hPa 0,0 l/m 0,5 km/h (0 Bft) SW 227 0 min 0,0 UV-I 26 W/m 9,4 C 14,2 C 1,6 km/h (1 Bft)
06.06.2020 19:40 14,2 C 72 % 1005,0 hPa 0,0 l/m 0,8 km/h (0 Bft) SW 227 0 min 0,0 UV-I 29 W/m 9,2 C 14,2 C 3,2 km/h (1 Bft)
06.06.2020 19:39 14,2 C 72 % 1004,9 hPa 0,0 l/m 3,0 km/h (1 Bft) SW 229 0 min 0,0 UV-I 27 W/m 9,2 C 14,2 C 6,4 km/h (2 Bft)
06.06.2020 19:38 14,2 C 72 % 1004,9 hPa 0,0 l/m 7,2 km/h (2 Bft) S 180 0 min 0,0 UV-I 22 W/m 9,2 C 13,7 C 9,7 km/h (2 Bft)
06.06.2020 19:37 14,2 C 72 % 1005,0 hPa 0,0 l/m 4,2 km/h (1 Bft) SW 232 0 min 0,0 UV-I 19 W/m 9,2 C 14,2 C 6,4 km/h (2 Bft)
06.06.2020 19:36 14,2 C 72 % 1004,9 hPa 0,0 l/m 1,6 km/h (1 Bft) W-SW 241 0 min 0,0 UV-I 18 W/m 9,2 C 14,2 C 4,8 km/h (1 Bft)
06.06.2020 19:35 14,2 C 72 % 1004,9 hPa 0,0 l/m 2,9 km/h (1 Bft) W-SW 248 0 min 0,0 UV-I 18 W/m 9,2 C 14,2 C 4,8 km/h (1 Bft)
06.06.2020 19:34 14,2 C 72 % 1004,9 hPa 0,0 l/m 3,3 km/h (1 Bft) SW 224 0 min 0,0 UV-I 19 W/m 9,2 C 14,2 C 6,4 km/h (2 Bft)
06.06.2020 19:33 14,3 C 72 % 1004,8 hPa 0,0 l/m 6,2 km/h (2 Bft) W-SW 241 0 min 0,0 UV-I 19 W/m 9,3 C 14,3 C 11,3 km/h (2 Bft)
06.06.2020 19:32 14,3 C 72 % 1004,8 hPa 0,0 l/m 11,6 km/h (2 Bft) W-SW 252 0 min 0,0 UV-I 20 W/m 9,3 C 11,6 C 19,3 km/h (3 Bft)
06.06.2020 19:31 14,3 C 72 % 1004,8 hPa 0,0 l/m 5,6 km/h (1 Bft) SW 234 0 min 0,0 UV-I 22 W/m 9,3 C 14,3 C 8,0 km/h (2 Bft)
06.06.2020 19:30 14,3 C 72 % 1004,8 hPa 0,0 l/m 6,8 km/h (2 Bft) SW 215 0 min 0,0 UV-I 25 W/m 9,3 C 14,1 C 11,3 km/h (2 Bft)
06.06.2020 19:29 14,3 C 72 % 1004,8 hPa 0,0 l/m 3,2 km/h (1 Bft) W-SW 247 0 min 0,0 UV-I 29 W/m 9,3 C 14,3 C 6,4 km/h (2 Bft)
06.06.2020 19:28 14,3 C 72 % 1004,8 hPa 0,0 l/m 3,4 km/h (1 Bft) W-SW 238 0 min 0,0 UV-I 33 W/m 9,3 C 14,3 C 6,4 km/h (2 Bft)
06.06.2020 19:27 14,3 C 72 % 1004,9 hPa 0,0 l/m 8,4 km/h (2 Bft) SW 216 0 min 0,0 UV-I 37 W/m 9,3 C 13,1 C 14,5 km/h (3 Bft)
06.06.2020 19:26 14,3 C 72 % 1004,8 hPa 0,0 l/m 5,9 km/h (2 Bft) S-SW 206 0 min 0,0 UV-I 35 W/m 9,3 C 14,3 C 9,7 km/h (2 Bft)
06.06.2020 19:25 14,4 C 72 % 1004,9 hPa 0,0 l/m 5,1 km/h (1 Bft) S-SW 192 0 min 0,0 UV-I 37 W/m 9,4 C 14,4 C 8,0 km/h (2 Bft)
06.06.2020 19:24 14,4 C 72 % 1004,9 hPa 0,0 l/m 3,9 km/h (1 Bft) SW 232 0 min 0,0 UV-I 42 W/m 9,4 C 14,4 C 6,4 km/h (2 Bft)
06.06.2020 19:23 14,4 C 72 % 1005,0 hPa 0,0 l/m 5,2 km/h (1 Bft) S-SW 205 0 min 0,0 UV-I 49 W/m 9,4 C 14,4 C 8,0 km/h (2 Bft)
06.06.2020 19:22 14,4 C 72 % 1005,0 hPa 0,0 l/m 5,3 km/h (1 Bft) S 187 0 min 0,0 UV-I 60 W/m 9,4 C 14,4 C 9,7 km/h (2 Bft)
06.06.2020 19:21 14,4 C 72 % 1005,0 hPa 0,0 l/m 5,6 km/h (1 Bft) S 182 0 min 0,0 UV-I 70 W/m 9,4 C 14,4 C 8,0 km/h (2 Bft)
06.06.2020 19:20 14,4 C 72 % 1005,0 hPa 0,0 l/m 6,4 km/h (2 Bft) SW 232 0 min 0,0 UV-I 79 W/m 9,4 C 14,4 C 9,7 km/h (2 Bft)
06.06.2020 19:19 14,4 C 73 % 1004,9 hPa 0,0 l/m 3,3 km/h (1 Bft) SW 223 0 min 0,0 UV-I 90 W/m 9,6 C 14,4 C 9,7 km/h (2 Bft)
06.06.2020 19:18 14,4 C 73 % 1004,9 hPa 0,0 l/m 5,2 km/h (1 Bft) SW 219 0 min 0,0 UV-I 97 W/m 9,6 C 14,4 C 8,0 km/h (2 Bft)
06.06.2020 19:17 14,4 C 73 % 1004,9 hPa 0,0 l/m 5,2 km/h (1 Bft) SW 232 0 min 0,0 UV-I 94 W/m 9,6 C 14,4 C 8,0 km/h (2 Bft)
06.06.2020 19:16 14,4 C 73 % 1004,9 hPa 0,0 l/m 4,8 km/h (1 Bft) S 175 0 min 0,0 UV-I 92 W/m 9,6 C 14,4 C 8,0 km/h (2 Bft)
06.06.2020 19:15 14,4 C 73 % 1004,8 hPa 0,0 l/m 6,6 km/h (2 Bft) W-SW 253 0 min 0,0 UV-I 96 W/m 9,6 C 14,3 C 9,7 km/h (2 Bft)
06.06.2020 19:14 14,4 C 73 % 1004,8 hPa 0,0 l/m 6,3 km/h (2 Bft) S-SW 195 0 min 0,0 UV-I 107 W/m 9,6 C 14,4 C 12,9 km/h (3 Bft)
06.06.2020 19:13 14,4 C 73 % 1004,9 hPa 0,0 l/m 3,1 km/h (1 Bft) S-SW 194 0 min 0,0 UV-I 148 W/m 9,6 C 14,4 C 9,7 km/h (2 Bft)
06.06.2020 19:12 14,4 C 73 % 1004,9 hPa 0,0 l/m 6,6 km/h (2 Bft) S-SO 167 0 min 0,0 UV-I 156 W/m 9,6 C 14,3 C 9,7 km/h (2 Bft)
06.06.2020 19:11 14,4 C 73 % 1004,9 hPa 0,0 l/m 2,9 km/h (1 Bft) S-SW 211 1 min 0,0 UV-I 199 W/m 9,6 C 14,4 C 8,0 km/h (2 Bft)
06.06.2020 19:10 14,3 C 73 % 1005,0 hPa 0,0 l/m 4,0 km/h (1 Bft) SW 227 0 min 0,0 UV-I 146 W/m 9,5 C 14,3 C 6,4 km/h (2 Bft)
06.06.2020 19:09 14,3 C 73 % 1005,0 hPa 0,0 l/m 2,3 km/h (1 Bft) SW 223 0 min 0,0 UV-I 81 W/m 9,5 C 14,3 C 4,8 km/h (1 Bft)
06.06.2020 19:08 14,4 C 73 % 1005,0 hPa 0,0 l/m 2,6 km/h (1 Bft) SW 221 0 min 0,0 UV-I 82 W/m 9,6 C 14,4 C 4,8 km/h (1 Bft)
06.06.2020 19:07 14,4 C 72 % 1005,0 hPa 0,0 l/m 2,8 km/h (1 Bft) S-SW 197 0 min 0,0 UV-I 84 W/m 9,4 C 14,4 C 4,8 km/h (1 Bft)
06.06.2020 19:06 14,4 C 73 % 1004,9 hPa 0,0 l/m 5,8 km/h (2 Bft) SW 232 0 min 0,0 UV-I 85 W/m 9,6 C 14,4 C 11,3 km/h (2 Bft)
06.06.2020 19:05 14,4 C 72 % 1004,9 hPa 0,0 l/m 5,6 km/h (1 Bft) S-SW 197 0 min 0,0 UV-I 67 W/m 9,4 C 14,4 C 8,0 km/h (2 Bft)
06.06.2020 19:04 14,4 C 73 % 1004,8 hPa 0,0 l/m 5,8 km/h (2 Bft) SW 224 0 min 0,0 UV-I 60 W/m 9,6 C 14,4 C 11,3 km/h (2 Bft)
06.06.2020 19:03 14,4 C 72 % 1004,8 hPa 0,0 l/m 5,2 km/h (1 Bft) S 178 0 min 0,0 UV-I 59 W/m 9,4 C 14,4 C 8,0 km/h (2 Bft)
06.06.2020 19:02 14,4 C 72 % 1004,8 hPa 0,0 l/m 4,7 km/h (1 Bft) W-SW 246 0 min 0,0 UV-I 65 W/m 9,4 C 14,4 C 8,0 km/h (2 Bft)
06.06.2020 19:01 14,5 C 72 % 1004,9 hPa 0,0 l/m 2,7 km/h (1 Bft) W-SW 244 0 min 0,0 UV-I 68 W/m 9,5 C 14,5 C 4,8 km/h (1 Bft)
06.06.2020 19:00 14,5 C 72 % 1004,8 hPa 0,0 l/m 5,4 km/h (1 Bft) SW 231 0 min 0,0 UV-I 64 W/m 9,5 C 14,5 C 8,0 km/h (2 Bft)
06.06.2020 18:59 14,5 C 72 % 1004,8 hPa 0,0 l/m 6,6 km/h (2 Bft) SW 218 0 min 0,0 UV-I 65 W/m 9,5 C 14,4 C 9,7 km/h (2 Bft)
06.06.2020 18:58 14,4 C 72 % 1004,7 hPa 0,0 l/m 5,4 km/h (1 Bft) S-SW 211 0 min 0,0 UV-I 74 W/m 9,4 C 14,4 C 8,0 km/h (2 Bft)
06.06.2020 18:57 14,4 C 72 % 1004,7 hPa 0,0 l/m 4,3 km/h (1 Bft) W-SW 241 0 min 0,0 UV-I 166 W/m 9,4 C 14,4 C 8,0 km/h (2 Bft)
06.06.2020 18:56 14,4 C 73 % 1004,6 hPa 0,0 l/m 4,2 km/h (1 Bft) SW 232 1 min 0,0 UV-I 366 W/m 9,6 C 14,4 C 9,7 km/h (2 Bft)
06.06.2020 18:55 14,3 C 73 % 1004,7 hPa 0,0 l/m 2,7 km/h (1 Bft) S-SW 194 1 min 0,0 UV-I 366 W/m 9,5 C 14,3 C 4,8 km/h (1 Bft)
06.06.2020 18:54 14,3 C 73 % 1004,7 hPa 0,0 l/m 0,7 km/h (0 Bft) SW 226 1 min 0,0 UV-I 381 W/m 9,5 C 14,3 C 1,6 km/h (1 Bft)
06.06.2020 18:53 14,3 C 73 % 1004,7 hPa 0,0 l/m 1,1 km/h (1 Bft) SW 233 0 min 0,0 UV-I 162 W/m 9,5 C 14,3 C 4,8 km/h (1 Bft)
06.06.2020 18:52 14,2 C 73 % 1004,7 hPa 0,0 l/m 1,4 km/h (1 Bft) SW 232 0 min 0,0 UV-I 123 W/m 9,4 C 14,2 C 3,2 km/h (1 Bft)
06.06.2020 18:51 14,2 C 73 % 1004,7 hPa 0,0 l/m 1,7 km/h (1 Bft) S-SW 198 0 min 0,0 UV-I 83 W/m 9,4 C 14,2 C 4,8 km/h (1 Bft)
06.06.2020 18:50 14,2 C 72 % 1004,8 hPa 0,0 l/m 3,0 km/h (1 Bft) S-SW 198 0 min 0,0 UV-I 68 W/m 9,2 C 14,2 C 6,4 km/h (2 Bft)
06.06.2020 18:49 14,2 C 72 % 1004,8 hPa 0,0 l/m 6,4 km/h (2 Bft) S-SW 207 0 min 0,0 UV-I 60 W/m 9,2 C 14,2 C 9,7 km/h (2 Bft)
06.06.2020 18:48 14,3 C 72 % 1004,8 hPa 0,0 l/m 5,3 km/h (1 Bft) SW 223 0 min 0,0 UV-I 57 W/m 9,3 C 14,3 C 8,0 km/h (2 Bft)
06.06.2020 18:47 14,3 C 72 % 1004,9 hPa 0,0 l/m 6,3 km/h (2 Bft) S-SO 165 0 min 0,0 UV-I 53 W/m 9,3 C 14,3 C 9,7 km/h (2 Bft)
06.06.2020 18:46 14,3 C 72 % 1004,9 hPa 0,0 l/m 5,8 km/h (2 Bft) W-SW 242 0 min 0,0 UV-I 49 W/m 9,3 C 14,3 C 9,7 km/h (2 Bft)
06.06.2020 18:45 14,3 C 72 % 1004,9 hPa 0,0 l/m 5,7 km/h (1 Bft) S-SW 212 0 min 0,0 UV-I 50 W/m 9,3 C 14,3 C 9,7 km/h (2 Bft)
06.06.2020 18:44 14,3 C 72 % 1004,9 hPa 0,0 l/m 7,6 km/h (2 Bft) S-SW 207 0 min 0,0 UV-I 55 W/m 9,3 C 13,6 C 11,3 km/h (2 Bft)
06.06.2020 18:43 14,4 C 72 % 1005,0 hPa 0,0 l/m 5,4 km/h (1 Bft) SW 226 0 min 0,0 UV-I 60 W/m 9,4 C 14,4 C 9,7 km/h (2 Bft)
06.06.2020 18:42 14,4 C 72 % 1004,9 hPa 0,0 l/m 5,2 km/h (1 Bft) SW 225 0 min 0,0 UV-I 70 W/m 9,4 C 14,4 C 8,0 km/h (2 Bft)
06.06.2020 18:41 14,4 C 72 % 1004,9 hPa 0,0 l/m 5,1 km/h (1 Bft) S-SW 209 0 min 0,0 UV-I 76 W/m 9,4 C 14,4 C 8,0 km/h (2 Bft)
06.06.2020 18:40 14,4 C 71 % 1004,8 hPa 0,0 l/m 7,2 km/h (2 Bft) SW 221 0 min 0,0 UV-I 73 W/m 9,2 C 13,9 C 9,7 km/h (2 Bft)
06.06.2020 18:39 14,5 C 72 % 1004,8 hPa 0,0 l/m 5,6 km/h (1 Bft) S-SW 212 0 min 0,0 UV-I 67 W/m 9,5 C 14,5 C 8,0 km/h (2 Bft)
06.06.2020 18:38 14,5 C 72 % 1004,7 hPa 0,0 l/m 4,1 km/h (1 Bft) S-SW 198 0 min 0,3 UV-I 64 W/m 9,5 C 14,5 C 6,4 km/h (2 Bft)
06.06.2020 18:37 14,5 C 72 % 1004,7 hPa 0,0 l/m 2,5 km/h (1 Bft) SW 231 0 min 0,5 UV-I 64 W/m 9,5 C 14,5 C 6,4 km/h (2 Bft)
06.06.2020 18:36 14,5 C 72 % 1004,6 hPa 0,0 l/m 6,2 km/h (2 Bft) SW 216 0 min 0,5 UV-I 70 W/m 9,5 C 14,5 C 9,7 km/h (2 Bft)
06.06.2020 18:35 14,5 C 72 % 1004,6 hPa 0,0 l/m 5,1 km/h (1 Bft) SW 227 0 min 0,5 UV-I 101 W/m 9,5 C 14,5 C 9,7 km/h (2 Bft)
06.06.2020 18:34 14,4 C 72 % 1004,6 hPa 0,0 l/m 4,2 km/h (1 Bft) W-SW 244 1 min 0,5 UV-I 306 W/m 9,4 C 14,4 C 6,4 km/h (2 Bft)
06.06.2020 18:33 14,4 C 72 % 1004,6 hPa 0,0 l/m 7,3 km/h (2 Bft) SW 221 1 min 0,6 UV-I 280 W/m 9,4 C 13,9 C 9,7 km/h (2 Bft)
06.06.2020 18:32 14,4 C 72 % 1004,6 hPa 0,0 l/m 8,4 km/h (2 Bft) SW 221 0 min 0,5 UV-I 151 W/m 9,4 C 13,3 C 9,7 km/h (2 Bft)
06.06.2020 18:31 14,4 C 73 % 1004,6 hPa 0,0 l/m 7,9 km/h (2 Bft) S-SW 206 0 min 0,0 UV-I 133 W/m 9,6 C 13,5 C 11,3 km/h (2 Bft)
06.06.2020 18:30 14,4 C 73 % 1004,6 hPa 0,0 l/m 5,6 km/h (1 Bft) S-SW 211 0 min 0,0 UV-I 111 W/m 9,6 C 14,4 C 6,4 km/h (2 Bft)
06.06.2020 18:29 14,4 C 72 % 1004,6 hPa 0,0 l/m 4,1 km/h (1 Bft) S-SW 213 0 min 0,2 UV-I 118 W/m 9,4 C 14,4 C 8,0 km/h (2 Bft)
06.06.2020 18:28 14,3 C 72 % 1004,6 hPa 0,0 l/m 4,8 km/h (1 Bft) SW 217 0 min 0,5 UV-I 122 W/m 9,3 C 14,3 C 6,4 km/h (2 Bft)
06.06.2020 18:27 14,3 C 72 % 1004,6 hPa 0,0 l/m 3,5 km/h (1 Bft) SW 229 0 min 0,5 UV-I 126 W/m 9,3 C 14,3 C 6,4 km/h (2 Bft)
06.06.2020 18:26 14,3 C 72 % 1004,6 hPa 0,0 l/m 6,8 km/h (2 Bft) S-SW 200 0 min 0,2 UV-I 128 W/m 9,3 C 14,1 C 9,7 km/h (2 Bft)
06.06.2020 18:25 14,3 C 72 % 1004,6 hPa 0,0 l/m 8,3 km/h (2 Bft) S-SW 198 0 min 0,0 UV-I 139 W/m 9,3 C 13,2 C 14,5 km/h (3 Bft)
06.06.2020 18:24 14,3 C 72 % 1004,6 hPa 0,0 l/m 6,9 km/h (2 Bft) W-SW 243 0 min 0,0 UV-I 144 W/m 9,3 C 14,0 C 11,3 km/h (2 Bft)
06.06.2020 18:23 14,4 C 72 % 1004,6 hPa 0,0 l/m 4,1 km/h (1 Bft) S 190 0 min 0,0 UV-I 127 W/m 9,4 C 14,4 C 9,7 km/h (2 Bft)
06.06.2020 18:22 14,4 C 72 % 1004,6 hPa 0,0 l/m 6,4 km/h (2 Bft) S 187 0 min 0,0 UV-I 112 W/m 9,4 C 14,4 C 12,9 km/h (3 Bft)
06.06.2020 18:21 14,4 C 72 % 1004,6 hPa 0,0 l/m 6,3 km/h (2 Bft) SW 230 0 min 0,0 UV-I 115 W/m 9,4 C 14,4 C 8,0 km/h (2 Bft)
06.06.2020 18:20 14,4 C 72 % 1004,6 hPa 0,0 l/m 10,7 km/h (2 Bft) SW 215 0 min 0,0 UV-I 122 W/m 9,4 C 12,1 C 16,1 km/h (3 Bft)
06.06.2020 18:19 14,4 C 72 % 1004,7 hPa 0,0 l/m 9,5 km/h (2 Bft) S 186 0 min 0,0 UV-I 120 W/m 9,4 C 12,7 C 16,1 km/h (3 Bft)
06.06.2020 18:18 14,4 C 72 % 1004,6 hPa 0,0 l/m 7,1 km/h (2 Bft) S-SW 194 0 min 0,0 UV-I 120 W/m 9,4 C 14,0 C 11,3 km/h (2 Bft)
06.06.2020 18:17 14,4 C 72 % 1004,7 hPa 0,0 l/m 3,9 km/h (1 Bft) S 170 0 min 0,0 UV-I 123 W/m 9,4 C 14,4 C 6,4 km/h (2 Bft)
06.06.2020 18:16 14,4 C 72 % 1004,6 hPa 0,0 l/m 4,6 km/h (1 Bft) SW 217 0 min 0,0 UV-I 119 W/m 9,4 C 14,4 C 8,0 km/h (2 Bft)
06.06.2020 18:15 14,4 C 72 % 1004,6 hPa 0,0 l/m 6,0 km/h (2 Bft) S-SW 205 0 min 0,0 UV-I 122 W/m 9,4 C 14,4 C 9,7 km/h (2 Bft)
06.06.2020 18:14 14,4 C 72 % 1004,6 hPa 0,0 l/m 5,5 km/h (1 Bft) S 188 0 min 0,0 UV-I 128 W/m 9,4 C 14,4 C 9,7 km/h (2 Bft)
06.06.2020 18:13 14,4 C 72 % 1004,6 hPa 0,0 l/m 6,6 km/h (2 Bft) W-SW 237 0 min 0,4 UV-I 138 W/m 9,4 C 14,3 C 11,3 km/h (2 Bft)
06.06.2020 18:12 14,4 C 72 % 1004,6 hPa 0,0 l/m 5,5 km/h (1 Bft) W-SW 237 0 min 0,5 UV-I 142 W/m 9,4 C 14,4 C 8,0 km/h (2 Bft)
06.06.2020 18:11 14,5 C 72 % 1004,6 hPa 0,0 l/m 7,2 km/h (2 Bft) SW 219 0 min 0,5 UV-I 142 W/m 9,5 C 14,0 C 12,9 km/h (3 Bft)
06.06.2020 18:10 14,5 C 72 % 1004,6 hPa 0,0 l/m 6,7 km/h (2 Bft) SW 214 0 min 0,2 UV-I 135 W/m 9,5 C 14,3 C 11,3 km/h (2 Bft)
06.06.2020 18:09 14,5 C 71 % 1004,6 hPa 0,0 l/m 10,7 km/h (2 Bft) W-SW 240 0 min 0,0 UV-I 123 W/m 9,3 C 12,2 C 17,7 km/h (3 Bft)
06.06.2020 18:08 14,6 C 71 % 1004,7 hPa 0,0 l/m 5,8 km/h (2 Bft) W 259 0 min 0,0 UV-I 113 W/m 9,4 C 14,6 C 12,9 km/h (3 Bft)
06.06.2020 18:07 14,6 C 71 % 1004,6 hPa 0,0 l/m 10,2 km/h (2 Bft) S-SW 202 0 min 0,4 UV-I 112 W/m 9,4 C 12,6 C 16,1 km/h (3 Bft)
06.06.2020 18:06 14,6 C 71 % 1004,7 hPa 0,0 l/m 8,1 km/h (2 Bft) W-SW 247 0 min 0,5 UV-I 122 W/m 9,4 C 13,6 C 19,3 km/h (3 Bft)
06.06.2020 18:05 14,7 C 71 % 1004,6 hPa 0,0 l/m 10,5 km/h (2 Bft) W-SW 251 0 min 0,6 UV-I 143 W/m 9,5 C 12,6 C 20,9 km/h (4 Bft)
06.06.2020 18:04 14,7 C 71 % 1004,6 hPa 0,0 l/m 12,4 km/h (3 Bft) W-SW 237 0 min 0,6 UV-I 151 W/m 9,5 C 11,8 C 20,9 km/h (4 Bft)
06.06.2020 18:03 14,7 C 71 % 1004,6 hPa 0,0 l/m 11,5 km/h (2 Bft) SW 231 0 min 0,6 UV-I 148 W/m 9,5 C 12,1 C 19,3 km/h (3 Bft)
06.06.2020 18:02 14,7 C 71 % 1004,6 hPa 0,0 l/m 6,0 km/h (2 Bft) W-SW 256 0 min 0,6 UV-I 137 W/m 9,5 C 14,7 C 12,9 km/h (3 Bft)
06.06.2020 18:01 14,7 C 70 % 1004,6 hPa 0,0 l/m 9,7 km/h (2 Bft) W-SW 246 0 min 0,7 UV-I 121 W/m 9,3 C 12,9 C 17,7 km/h (3 Bft)
06.06.2020 18:00 14,7 C 71 % 1004,6 hPa 0,0 l/m 7,6 km/h (2 Bft) S 188 0 min 0,7 UV-I 124 W/m 9,5 C 14,0 C 14,5 km/h (3 Bft)
06.06.2020 17:59 14,7 C 71 % 1004,6 hPa 0,0 l/m 3,3 km/h (1 Bft) SW 226 0 min 0,8 UV-I 157 W/m 9,5 C 14,7 C 6,4 km/h (2 Bft)
06.06.2020 17:58 14,7 C 71 % 1004,7 hPa 0,0 l/m 3,3 km/h (1 Bft) SW 217 0 min 0,8 UV-I 213 W/m 9,5 C 14,7 C 6,4 km/h (2 Bft)
06.06.2020 17:57 14,6 C 71 % 1004,7 hPa 0,0 l/m 6,5 km/h (2 Bft) SW 219 1 min 0,8 UV-I 273 W/m 9,4 C 14,6 C 11,3 km/h (2 Bft)
06.06.2020 17:56 14,6 C 71 % 1004,7 hPa 0,0 l/m 4,6 km/h (1 Bft) S 187 0 min 0,7 UV-I 212 W/m 9,4 C 14,6 C 8,0 km/h (2 Bft)
06.06.2020 17:55 14,6 C 71 % 1004,7 hPa 0,0 l/m 6,9 km/h (2 Bft) W-SW 255 0 min 0,5 UV-I 155 W/m 9,4 C 14,3 C 11,3 km/h (2 Bft)
06.06.2020 17:54 14,6 C 71 % 1004,7 hPa 0,0 l/m 5,8 km/h (2 Bft) SW 236 0 min 0,5 UV-I 151 W/m 9,4 C 14,6 C 11,3 km/h (2 Bft)
06.06.2020 17:53 14,6 C 70 % 1004,7 hPa 0,0 l/m 6,9 km/h (2 Bft) W-SW 252 0 min 0,6 UV-I 150 W/m 9,2 C 14,3 C 11,3 km/h (2 Bft)
06.06.2020 17:52 14,6 C 70 % 1004,7 hPa 0,0 l/m 9,4 km/h (2 Bft) SW 224 0 min 0,5 UV-I 143 W/m 9,2 C 13,0 C 14,5 km/h (3 Bft)
06.06.2020 17:51 14,6 C 70 % 1004,7 hPa 0,0 l/m 6,3 km/h (2 Bft) W-SW 242 0 min 0,6 UV-I 139 W/m 9,2 C 14,6 C 11,3 km/h (2 Bft)
06.06.2020 17:50 14,6 C 70 % 1004,7 hPa 0,0 l/m 5,4 km/h (1 Bft) S-SW 208 0 min 0,6 UV-I 142 W/m 9,2 C 14,6 C 17,7 km/h (3 Bft)
06.06.2020 17:49 14,6 C 70 % 1004,7 hPa 0,0 l/m 3,9 km/h (1 Bft) W-SW 246 0 min 0,6 UV-I 149 W/m 9,2 C 14,6 C 4,8 km/h (1 Bft)
06.06.2020 17:48 14,7 C 71 % 1004,7 hPa 0,0 l/m 4,3 km/h (1 Bft) W-SW 254 0 min 0,6 UV-I 154 W/m 9,5 C 14,7 C 8,0 km/h (2 Bft)
06.06.2020 17:47 14,7 C 70 % 1004,7 hPa 0,0 l/m 5,4 km/h (1 Bft) S-SW 213 0 min 0,6 UV-I 146 W/m 9,3 C 14,7 C 11,3 km/h (2 Bft)
06.06.2020 17:46 14,7 C 71 % 1004,8 hPa 0,0 l/m 4,4 km/h (1 Bft) SW 215 0 min 0,5 UV-I 132 W/m 9,5 C 14,7 C 9,7 km/h (2 Bft)
06.06.2020 17:45 14,7 C 70 % 1004,8 hPa 0,0 l/m 3,0 km/h (1 Bft) W-SW 252 0 min 0,5 UV-I 121 W/m 9,3 C 14,7 C 4,8 km/h (1 Bft)
06.06.2020 17:44 14,8 C 71 % 1004,7 hPa 0,0 l/m 7,6 km/h (2 Bft) SW 233 0 min 0,1 UV-I 111 W/m 9,6 C 14,1 C 16,1 km/h (3 Bft)
06.06.2020 17:43 14,8 C 71 % 1004,7 hPa 0,0 l/m 6,8 km/h (2 Bft) W-SW 252 0 min 0,0 UV-I 107 W/m 9,6 C 14,6 C 12,9 km/h (3 Bft)
06.06.2020 17:42 14,9 C 71 % 1004,7 hPa 0,0 l/m 6,8 km/h (2 Bft) SW 228 0 min 0,1 UV-I 110 W/m 9,7 C 14,7 C 11,3 km/h (2 Bft)
06.06.2020 17:41 14,9 C 71 % 1004,7 hPa 0,0 l/m 5,2 km/h (1 Bft) W-SW 238 0 min 0,6 UV-I 115 W/m 9,7 C 14,9 C 11,3 km/h (2 Bft)
06.06.2020 17:40 14,9 C 71 % 1004,7 hPa 0,0 l/m 1,9 km/h (1 Bft) SW 218 0 min 0,7 UV-I 122 W/m 9,7 C 14,9 C 6,4 km/h (2 Bft)
06.06.2020 17:39 14,9 C 71 % 1004,7 hPa 0,0 l/m 4,6 km/h (1 Bft) SW 221 0 min 0,8 UV-I 135 W/m 9,7 C 14,9 C 6,4 km/h (2 Bft)
06.06.2020 17:38 14,9 C 71 % 1004,7 hPa 0,0 l/m 7,1 km/h (2 Bft) S-SW 213 0 min 0,9 UV-I 141 W/m 9,7 C 14,5 C 9,7 km/h (2 Bft)
06.06.2020 17:37 14,9 C 70 % 1004,7 hPa 0,0 l/m 8,6 km/h (2 Bft) S-SW 213 0 min 0,9 UV-I 154 W/m 9,5 C 13,7 C 12,9 km/h (3 Bft)
06.06.2020 17:36 14,9 C 71 % 1004,7 hPa 0,0 l/m 11,7 km/h (2 Bft) SW 215 1 min 1,1 UV-I 526 W/m 9,7 C 12,3 C 19,3 km/h (3 Bft)
06.06.2020 17:35 14,9 C 71 % 1004,6 hPa 0,0 l/m 3,0 km/h (1 Bft) S-SW 196 1 min 1,2 UV-I 526 W/m 9,7 C 14,9 C 6,4 km/h (2 Bft)
06.06.2020 17:34 14,8 C 71 % 1004,7 hPa 0,0 l/m 4,3 km/h (1 Bft) SW 236 1 min 1,2 UV-I 368 W/m 9,6 C 14,8 C 6,4 km/h (2 Bft)
06.06.2020 17:33 14,8 C 70 % 1004,7 hPa 0,0 l/m 6,4 km/h (2 Bft) W-SW 244 0 min 1,1 UV-I 209 W/m 9,4 C 14,8 C 8,0 km/h (2 Bft)
06.06.2020 17:32 14,8 C 70 % 1004,6 hPa 0,0 l/m 8,8 km/h (2 Bft) SW 219 0 min 1,0 UV-I 202 W/m 9,4 C 13,5 C 14,5 km/h (3 Bft)
06.06.2020 17:31 14,9 C 71 % 1004,7 hPa 0,0 l/m 12,0 km/h (2 Bft) W-SW 248 0 min 0,9 UV-I 187 W/m 9,7 C 12,2 C 20,9 km/h (4 Bft)
06.06.2020 17:30 14,8 C 71 % 1004,7 hPa 0,0 l/m 7,4 km/h (2 Bft) W 272 0 min 0,9 UV-I 175 W/m 9,6 C 14,2 C 12,9 km/h (3 Bft)
06.06.2020 17:29 14,9 C 71 % 1004,7 hPa 0,0 l/m 4,3 km/h (1 Bft) W-SW 240 0 min 0,9 UV-I 180 W/m 9,7 C 14,9 C 6,4 km/h (2 Bft)
06.06.2020 17:28 14,9 C 71 % 1004,7 hPa 0,0 l/m 6,6 km/h (2 Bft) SW 225 0 min 0,9 UV-I 186 W/m 9,7 C 14,8 C 9,7 km/h (2 Bft)
06.06.2020 17:27 14,9 C 71 % 1004,7 hPa 0,0 l/m 9,7 km/h (2 Bft) S 186 0 min 0,9 UV-I 197 W/m 9,7 C 13,1 C 17,7 km/h (3 Bft)
06.06.2020 17:26 14,9 C 71 % 1004,6 hPa 0,0 l/m 7,1 km/h (2 Bft) S 185 0 min 0,9 UV-I 205 W/m 9,7 C 14,5 C 11,3 km/h (2 Bft)
06.06.2020 17:25 14,9 C 71 % 1004,7 hPa 0,0 l/m 10,7 km/h (2 Bft) S 172 0 min 1,0 UV-I 209 W/m 9,7 C 12,7 C 14,5 km/h (3 Bft)
06.06.2020 17:24 14,9 C 71 % 1004,6 hPa 0,0 l/m 9,7 km/h (2 Bft) SW 236 0 min 1,1 UV-I 226 W/m 9,7 C 13,1 C 19,3 km/h (3 Bft)
06.06.2020 17:23 14,9 C 70 % 1004,6 hPa 0,0 l/m 6,2 km/h (2 Bft) S-SW 194 0 min 1,2 UV-I 236 W/m 9,5 C 14,9 C 9,7 km/h (2 Bft)
06.06.2020 17:22 15,0 C 70 % 1004,6 hPa 0,0 l/m 11,6 km/h (2 Bft) W-SW 251 0 min 1,0 UV-I 213 W/m 9,6 C 12,4 C 16,1 km/h (3 Bft)
06.06.2020 17:21 15,0 C 69 % 1004,6 hPa 0,0 l/m 6,9 km/h (2 Bft) S 187 0 min 1,0 UV-I 194 W/m 9,4 C 14,7 C 14,5 km/h (3 Bft)
06.06.2020 17:20 15,1 C 69 % 1004,6 hPa 0,0 l/m 8,2 km/h (2 Bft) W-SW 241 0 min 1,0 UV-I 188 W/m 9,5 C 14,1 C 12,9 km/h (3 Bft)
06.06.2020 17:19 15,1 C 69 % 1004,5 hPa 0,0 l/m 6,0 km/h (2 Bft) S-SW 205 0 min 1,0 UV-I 166 W/m 9,5 C 15,1 C 9,7 km/h (2 Bft)
06.06.2020 17:18 15,1 C 69 % 1004,5 hPa 0,0 l/m 7,3 km/h (2 Bft) SW 224 0 min 1,0 UV-I 149 W/m 9,5 C 14,6 C 14,5 km/h (3 Bft)
06.06.2020 17:17 15,1 C 69 % 1004,5 hPa 0,0 l/m 9,6 km/h (2 Bft) SW 227 0 min 1,1 UV-I 162 W/m 9,5 C 13,4 C 14,5 km/h (3 Bft)
06.06.2020 17:16 15,1 C 70 % 1004,6 hPa 0,0 l/m 10,8 km/h (2 Bft) W 265 0 min 1,2 UV-I 187 W/m 9,7 C 12,9 C 16,1 km/h (3 Bft)
06.06.2020 17:15 15,1 C 71 % 1004,6 hPa 0,0 l/m 9,6 km/h (2 Bft) W-SW 256 0 min 1,2 UV-I 244 W/m 9,9 C 13,4 C 17,7 km/h (3 Bft)
06.06.2020 17:14 15,0 C 71 % 1004,6 hPa 0,0 l/m 3,0 km/h (1 Bft) S-SW 192 0 min 1,7 UV-I 265 W/m 9,8 C 15,0 C 4,8 km/h (1 Bft)
06.06.2020 17:13 15,0 C 70 % 1004,6 hPa 0,0 l/m 2,7 km/h (1 Bft) W-NW 283 0 min 1,6 UV-I 265 W/m 9,6 C 15,0 C 4,8 km/h (1 Bft)
06.06.2020 17:12 14,9 C 70 % 1004,6 hPa 0,0 l/m 8,8 km/h (2 Bft) SW 218 0 min 1,3 UV-I 265 W/m 9,5 C 13,6 C 12,9 km/h (3 Bft)
06.06.2020 17:11 15,0 C 70 % 1004,5 hPa 0,0 l/m 6,0 km/h (2 Bft) W 266 0 min 0,8 UV-I 235 W/m 9,6 C 15,0 C 9,7 km/h (2 Bft)
06.06.2020 17:10 15,1 C 70 % 1004,5 hPa 0,0 l/m 5,6 km/h (1 Bft) SW 227 0 min 0,7 UV-I 159 W/m 9,7 C 15,1 C 9,7 km/h (2 Bft)
06.06.2020 17:09 15,2 C 70 % 1004,4 hPa 0,0 l/m 9,6 km/h (2 Bft) SW 233 0 min 0,7 UV-I 137 W/m 9,8 C 13,5 C 16,1 km/h (3 Bft)
06.06.2020 17:08 15,3 C 69 % 1004,3 hPa 0,0 l/m 13,5 km/h (3 Bft) SW 225 0 min 0,8 UV-I 141 W/m 9,6 C 12,1 C 20,9 km/h (4 Bft)
06.06.2020 17:07 15,5 C 69 % 1004,4 hPa 0,0 l/m 11,2 km/h (2 Bft) S 170 0 min 0,9 UV-I 152 W/m 9,8 C 13,2 C 17,7 km/h (3 Bft)
06.06.2020 17:06 15,6 C 69 % 1004,4 hPa 0,0 l/m 11,2 km/h (2 Bft) S 176 0 min 1,0 UV-I 167 W/m 9,9 C 13,3 C 17,7 km/h (3 Bft)
06.06.2020 17:05 15,7 C 69 % 1004,4 hPa 0,0 l/m 4,9 km/h (1 Bft) W-SW 238 0 min 1,3 UV-I 188 W/m 10,0 C 15,7 C 6,4 km/h (2 Bft)
06.06.2020 17:04 15,8 C 69 % 1004,3 hPa 0,0 l/m 10,3 km/h (2 Bft) S 177 0 min 1,3 UV-I 196 W/m 10,1 C 13,9 C 19,3 km/h (3 Bft)
06.06.2020 17:03 15,8 C 69 % 1004,3 hPa 0,0 l/m 7,9 km/h (2 Bft) S-SO 154 0 min 1,4 UV-I 192 W/m 10,1 C 15,0 C 14,5 km/h (3 Bft)
06.06.2020 17:02 15,8 C 70 % 1004,3 hPa 0,0 l/m 8,0 km/h (2 Bft) SW 219 1 min 1,6 UV-I 581 W/m 10,3 C 14,9 C 14,5 km/h (3 Bft)
06.06.2020 17:01 15,8 C 70 % 1004,3 hPa 0,0 l/m 6,6 km/h (2 Bft) W 259 1 min 2,0 UV-I 671 W/m 10,3 C 15,7 C 12,9 km/h (3 Bft)
06.06.2020 17:00 15,7 C 70 % 1004,3 hPa 0,0 l/m 5,7 km/h (1 Bft) W-SW 255 1 min 2,2 UV-I 656 W/m 10,2 C 15,7 C 8,0 km/h (2 Bft)
06.06.2020 16:59 15,7 C 71 % 1004,3 hPa 0,0 l/m 3,9 km/h (1 Bft) S-SW 207 1 min 2,2 UV-I 652 W/m 10,5 C 15,7 C 6,4 km/h (2 Bft)
06.06.2020 16:58 15,6 C 70 % 1004,4 hPa 0,0 l/m 9,3 km/h (2 Bft) W 262 1 min 2,2 UV-I 664 W/m 10,1 C 14,1 C 17,7 km/h (3 Bft)
06.06.2020 16:57 15,5 C 72 % 1004,3 hPa 0,0 l/m 11,0 km/h (2 Bft) W-SW 253 1 min 2,3 UV-I 671 W/m 10,5 C 13,2 C 14,5 km/h (3 Bft)
06.06.2020 16:56 15,4 C 71 % 1004,2 hPa 0,0 l/m 8,0 km/h (2 Bft) S-SW 213 1 min 2,3 UV-I 678 W/m 10,2 C 14,5 C 12,9 km/h (3 Bft)
06.06.2020 16:55 15,3 C 72 % 1004,2 hPa 0,0 l/m 8,9 km/h (2 Bft) W-SW 242 1 min 2,3 UV-I 659 W/m 10,3 C 14,0 C 14,5 km/h (3 Bft)
06.06.2020 16:54 15,3 C 72 % 1004,2 hPa 0,0 l/m 9,4 km/h (2 Bft) W-SW 251 1 min 2,3 UV-I 605 W/m 10,3 C 13,7 C 14,5 km/h (3 Bft)
06.06.2020 16:53 15,2 C 73 % 1004,2 hPa 0,0 l/m 8,5 km/h (2 Bft) W-SW 239 1 min 2,3 UV-I 644 W/m 10,4 C 14,1 C 16,1 km/h (3 Bft)
06.06.2020 16:52 15,1 C 73 % 1004,3 hPa 0,0 l/m 8,7 km/h (2 Bft) SW 217 1 min 2,3 UV-I 655 W/m 10,3 C 13,8 C 14,5 km/h (3 Bft)
06.06.2020 16:51 15,0 C 73 % 1004,3 hPa 0,0 l/m 8,7 km/h (2 Bft) SW 230 1 min 2,4 UV-I 698 W/m 10,2 C 13,7 C 17,7 km/h (3 Bft)
06.06.2020 16:50 14,9 C 73 % 1004,3 hPa 0,0 l/m 7,0 km/h (2 Bft) S 179 1 min 2,4 UV-I 497 W/m 10,1 C 14,6 C 14,5 km/h (3 Bft)
06.06.2020 16:49 14,8 C 74 % 1004,4 hPa 0,0 l/m 6,6 km/h (2 Bft) S 180 1 min 2,3 UV-I 459 W/m 10,2 C 14,7 C 12,9 km/h (3 Bft)
06.06.2020 16:48 14,7 C 74 % 1004,4 hPa 0,0 l/m 3,9 km/h (1 Bft) S 183 1 min 2,7 UV-I 459 W/m 10,1 C 14,7 C 9,7 km/h (2 Bft)
06.06.2020 16:47 14,5 C 74 % 1004,4 hPa 0,0 l/m 4,5 km/h (1 Bft) SW 223 1 min 2,5 UV-I 459 W/m 9,9 C 14,5 C 9,7 km/h (2 Bft)
06.06.2020 16:46 14,4 C 74 % 1004,4 hPa 0,0 l/m 4,3 km/h (1 Bft) S-SW 211 1 min 2,0 UV-I 404 W/m 9,8 C 14,4 C 6,4 km/h (2 Bft)
06.06.2020 16:45 14,4 C 73 % 1004,5 hPa 0,0 l/m 7,2 km/h (2 Bft) S-SW 209 0 min 1,7 UV-I 338 W/m 9,6 C 13,9 C 14,5 km/h (3 Bft)
06.06.2020 16:44 14,3 C 73 % 1004,5 hPa 0,0 l/m 10,7 km/h (2 Bft) SW 231 0 min 1,6 UV-I 345 W/m 9,5 C 12,0 C 16,1 km/h (3 Bft)
06.06.2020 16:43 14,3 C 73 % 1004,4 hPa 0,0 l/m 10,2 km/h (2 Bft) W-SW 248 0 min 1,4 UV-I 314 W/m 9,5 C 12,3 C 14,5 km/h (3 Bft)
06.06.2020 16:42 14,3 C 73 % 1004,4 hPa 0,0 l/m 6,0 km/h (2 Bft) S-SW 192 0 min 1,2 UV-I 255 W/m 9,5 C 14,3 C 12,9 km/h (3 Bft)
06.06.2020 16:41 14,3 C 73 % 1004,3 hPa 0,0 l/m 7,1 km/h (2 Bft) SW 231 0 min 1,3 UV-I 250 W/m 9,5 C 13,9 C 12,9 km/h (3 Bft)
06.06.2020 16:40 14,3 C 73 % 1004,3 hPa 0,0 l/m 6,7 km/h (2 Bft) SW 236 0 min 1,3 UV-I 266 W/m 9,5 C 14,1 C 12,9 km/h (3 Bft)
06.06.2020 16:39 14,3 C 73 % 1004,3 hPa 0,0 l/m 5,2 km/h (1 Bft) S-SW 213 0 min 1,3 UV-I 274 W/m 9,5 C 14,3 C 9,7 km/h (2 Bft)
06.06.2020 16:38 14,3 C 73 % 1004,4 hPa 0,0 l/m 8,2 km/h (2 Bft) W-SW 244 0 min 1,3 UV-I 254 W/m 9,5 C 13,3 C 17,7 km/h (3 Bft)
06.06.2020 16:37 14,3 C 73 % 1004,5 hPa 0,0 l/m 4,4 km/h (1 Bft) S 188 0 min 1,2 UV-I 234 W/m 9,5 C 14,3 C 14,5 km/h (3 Bft)
06.06.2020 16:36 14,3 C 73 % 1004,5 hPa 0,0 l/m 5,4 km/h (1 Bft) S-SW 209 0 min 1,1 UV-I 221 W/m 9,5 C 14,3 C 8,0 km/h (2 Bft)
06.06.2020 16:35 14,3 C 73 % 1004,5 hPa 0,0 l/m 6,0 km/h (2 Bft) S-SW 212 0 min 1,1 UV-I 212 W/m 9,5 C 14,3 C 11,3 km/h (2 Bft)
06.06.2020 16:34 14,4 C 73 % 1004,5 hPa 0,0 l/m 13,7 km/h (3 Bft) S-SW 208 0 min 1,1 UV-I 193 W/m 9,6 C 10,9 C 19,3 km/h (3 Bft)
06.06.2020 16:33 14,4 C 73 % 1004,5 hPa 0,0 l/m 5,7 km/h (1 Bft) S 180 0 min 1,0 UV-I 188 W/m 9,6 C 14,4 C 14,5 km/h (3 Bft)
06.06.2020 16:32 14,4 C 73 % 1004,5 hPa 0,0 l/m 6,7 km/h (2 Bft) W 259 0 min 1,0 UV-I 189 W/m 9,6 C 14,2 C 11,3 km/h (2 Bft)
06.06.2020 16:31 14,4 C 73 % 1004,4 hPa 0,0 l/m 9,2 km/h (2 Bft) SW 229 0 min 1,1 UV-I 201 W/m 9,6 C 12,8 C 12,9 km/h (3 Bft)
06.06.2020 16:30 14,5 C 72 % 1004,4 hPa 0,0 l/m 10,7 km/h (2 Bft) SW 232 0 min 1,3 UV-I 217 W/m 9,5 C 12,2 C 17,7 km/h (3 Bft)
06.06.2020 16:29 14,6 C 73 % 1004,5 hPa 0,0 l/m 10,9 km/h (2 Bft) SW 233 0 min 1,5 UV-I 235 W/m 9,8 C 12,3 C 22,5 km/h (4 Bft)
06.06.2020 16:28 14,6 C 72 % 1004,5 hPa 0,0 l/m 13,3 km/h (3 Bft) S 178 0 min 1,6 UV-I 258 W/m 9,6 C 11,3 C 20,9 km/h (4 Bft)
06.06.2020 16:27 14,6 C 72 % 1004,5 hPa 0,0 l/m 12,7 km/h (3 Bft) SW 220 0 min 1,6 UV-I 265 W/m 9,6 C 11,5 C 17,7 km/h (3 Bft)
06.06.2020 16:26 14,7 C 72 % 1004,4 hPa 0,0 l/m 13,9 km/h (3 Bft) SW 234 0 min 1,7 UV-I 268 W/m 9,7 C 11,2 C 20,9 km/h (4 Bft)
06.06.2020 16:25 14,7 C 73 % 1004,5 hPa 0,0 l/m 7,4 km/h (2 Bft) S-SW 198 0 min 1,7 UV-I 279 W/m 9,9 C 14,1 C 11,3 km/h (2 Bft)
06.06.2020 16:24 14,6 C 73 % 1004,5 hPa 0,0 l/m 8,5 km/h (2 Bft) SW 234 1 min 1,8 UV-I 398 W/m 9,8 C 13,4 C 16,1 km/h (3 Bft)
06.06.2020 16:23 14,6 C 73 % 1004,5 hPa 0,0 l/m 8,5 km/h (2 Bft) S 190 1 min 2,0 UV-I 534 W/m 9,8 C 13,4 C 16,1 km/h (3 Bft)
06.06.2020 16:22 14,5 C 73 % 1004,5 hPa 0,0 l/m 7,3 km/h (2 Bft) S 185 1 min 2,1 UV-I 482 W/m 9,7 C 14,0 C 9,7 km/h (2 Bft)
06.06.2020 16:21 14,4 C 73 % 1004,4 hPa 0,0 l/m 14,9 km/h (3 Bft) S-SW 199 1 min 2,2 UV-I 544 W/m 9,6 C 10,5 C 20,9 km/h (4 Bft)
06.06.2020 16:20 14,4 C 74 % 1004,4 hPa 0,0 l/m 10,8 km/h (2 Bft) W-SW 244 1 min 2,5 UV-I 554 W/m 9,8 C 12,1 C 17,7 km/h (3 Bft)
06.06.2020 16:19 14,3 C 73 % 1004,4 hPa 0,0 l/m 7,4 km/h (2 Bft) W-SW 243 1 min 2,5 UV-I 457 W/m 9,5 C 13,7 C 12,9 km/h (3 Bft)
06.06.2020 16:18 14,3 C 73 % 1004,5 hPa 0,0 l/m 9,7 km/h (2 Bft) SW 229 0 min 2,2 UV-I 381 W/m 9,5 C 12,5 C 16,1 km/h (3 Bft)
06.06.2020 16:17 14,3 C 72 % 1004,4 hPa 0,0 l/m 4,8 km/h (1 Bft) S-SW 195 0 min 1,7 UV-I 359 W/m 9,3 C 14,3 C 11,3 km/h (2 Bft)
06.06.2020 16:16 14,3 C 72 % 1004,4 hPa 0,0 l/m 8,0 km/h (2 Bft) SW 230 0 min 1,3 UV-I 299 W/m 9,3 C 13,4 C 11,3 km/h (2 Bft)
06.06.2020 16:15 14,3 C 72 % 1004,5 hPa 0,0 l/m 11,5 km/h (2 Bft) SW 222 0 min 1,1 UV-I 226 W/m 9,3 C 11,7 C 16,1 km/h (3 Bft)
06.06.2020 16:14 14,4 C 72 % 1004,6 hPa 0,0 l/m 9,5 km/h (2 Bft) S-SW 213 0 min 1,0 UV-I 183 W/m 9,4 C 12,7 C 17,7 km/h (3 Bft)
06.06.2020 16:13 14,4 C 72 % 1004,6 hPa 0,0 l/m 8,5 km/h (2 Bft) SW 231 0 min 1,0 UV-I 165 W/m 9,4 C 13,2 C 16,1 km/h (3 Bft)
06.06.2020 16:12 14,4 C 72 % 1004,7 hPa 0,0 l/m 14,6 km/h (3 Bft) SW 227 0 min 0,9 UV-I 152 W/m 9,4 C 10,6 C 20,9 km/h (4 Bft)
06.06.2020 16:11 14,5 C 72 % 1004,6 hPa 0,0 l/m 8,0 km/h (2 Bft) SW 225 0 min 1,0 UV-I 155 W/m 9,5 C 13,6 C 14,5 km/h (3 Bft)
06.06.2020 16:10 14,6 C 72 % 1004,6 hPa 0,0 l/m 11,2 km/h (2 Bft) SW 232 0 min 1,1 UV-I 167 W/m 9,6 C 12,1 C 16,1 km/h (3 Bft)
06.06.2020 16:09 14,6 C 72 % 1004,6 hPa 0,0 l/m 6,9 km/h (2 Bft) W-SW 238 0 min 1,5 UV-I 200 W/m 9,6 C 14,3 C 16,1 km/h (3 Bft)
06.06.2020 16:08 14,6 C 72 % 1004,6 hPa 0,0 l/m 12,2 km/h (2 Bft) S-SW 202 0 min 1,8 UV-I 276 W/m 9,6 C 11,7 C 16,1 km/h (3 Bft)
06.06.2020 16:07 14,6 C 73 % 1004,6 hPa 0,0 l/m 8,9 km/h (2 Bft) S 190 0 min 2,6 UV-I 334 W/m 9,8 C 13,2 C 20,9 km/h (4 Bft)
06.06.2020 16:06 14,6 C 73 % 1004,6 hPa 0,0 l/m 9,3 km/h (2 Bft) S 191 0 min 2,3 UV-I 334 W/m 9,8 C 13,0 C 14,5 km/h (3 Bft)
06.06.2020 16:05 14,7 C 72 % 1004,6 hPa 0,0 l/m 12,4 km/h (3 Bft) W-SW 239 0 min 1,9 UV-I 329 W/m 9,7 C 11,8 C 22,5 km/h (4 Bft)
06.06.2020 16:04 14,7 C 72 % 1004,6 hPa 0,0 l/m 14,0 km/h (3 Bft) S 180 0 min 1,9 UV-I 321 W/m 9,7 C 11,2 C 19,3 km/h (3 Bft)
06.06.2020 16:03 14,7 C 72 % 1004,6 hPa 0,0 l/m 13,2 km/h (3 Bft) S-SW 197 0 min 2,1 UV-I 370 W/m 9,7 C 11,5 C 22,5 km/h (4 Bft)
06.06.2020 16:02 14,7 C 72 % 1004,5 hPa 0,0 l/m 10,2 km/h (2 Bft) S-SW 198 0 min 2,1 UV-I 325 W/m 9,7 C 12,7 C 16,1 km/h (3 Bft)
06.06.2020 16:01 14,8 C 72 % 1004,5 hPa 0,0 l/m 11,0 km/h (2 Bft) SW 236 0 min 1,9 UV-I 396 W/m 9,8 C 12,5 C 19,3 km/h (3 Bft)
06.06.2020 16:00 14,8 C 72 % 1004,4 hPa 0,0 l/m 11,6 km/h (2 Bft) S-SW 211 1 min 2,1 UV-I 538 W/m 9,8 C 12,2 C 20,9 km/h (4 Bft)
06.06.2020 15:59 14,8 C 73 % 1004,3 hPa 0,0 l/m 16,8 km/h (3 Bft) SW 222 1 min 2,5 UV-I 481 W/m 10,0 C 10,4 C 25,7 km/h (4 Bft)
06.06.2020 15:58 14,8 C 73 % 1004,3 hPa 0,0 l/m 10,6 km/h (2 Bft) S 174 1 min 2,7 UV-I 441 W/m 10,0 C 12,6 C 16,1 km/h (3 Bft)
06.06.2020 15:57 14,8 C 73 % 1004,3 hPa 0,0 l/m 9,3 km/h (2 Bft) W-SW 240 1 min 2,5 UV-I 441 W/m 10,0 C 13,2 C 16,1 km/h (3 Bft)
06.06.2020 15:56 14,8 C 73 % 1004,3 hPa 0,0 l/m 8,4 km/h (2 Bft) SW 214 1 min 2,2 UV-I 441 W/m 10,0 C 13,7 C 12,9 km/h (3 Bft)
06.06.2020 15:55 14,7 C 73 % 1004,2 hPa 0,0 l/m 12,0 km/h (2 Bft) S-SW 209 1 min 2,4 UV-I 441 W/m 9,9 C 11,9 C 19,3 km/h (3 Bft)
06.06.2020 15:54 14,7 C 73 % 1004,3 hPa 0,0 l/m 10,9 km/h (2 Bft) S-SW 194 1 min 2,6 UV-I 418 W/m 9,9 C 12,4 C 22,5 km/h (4 Bft)
06.06.2020 15:53 14,7 C 73 % 1004,2 hPa 0,0 l/m 11,7 km/h (2 Bft) S-SW 198 1 min 2,6 UV-I 626 W/m 9,9 C 12,0 C 16,1 km/h (3 Bft)
06.06.2020 15:52 14,7 C 74 % 1004,2 hPa 0,0 l/m 16,4 km/h (3 Bft) SW 215 1 min 4,0 UV-I 765 W/m 10,1 C 10,4 C 24,1 km/h (4 Bft)
06.06.2020 15:51 14,7 C 73 % 1004,3 hPa 0,0 l/m 6,0 km/h (2 Bft) S-SO 159 1 min 3,6 UV-I 751 W/m 9,9 C 14,7 C 12,9 km/h (3 Bft)
06.06.2020 15:50 14,6 C 73 % 1004,3 hPa 0,0 l/m 10,5 km/h (2 Bft) SW 232 1 min 3,7 UV-I 937 W/m 9,8 C 12,4 C 16,1 km/h (3 Bft)
06.06.2020 15:49 14,6 C 74 % 1004,4 hPa 0,0 l/m 13,5 km/h (3 Bft) SW 231 1 min 3,6 UV-I 937 W/m 10,0 C 11,2 C 22,5 km/h (4 Bft)
06.06.2020 15:48 14,5 C 74 % 1004,3 hPa 0,0 l/m 8,4 km/h (2 Bft) S-SW 205 1 min 3,9 UV-I 712 W/m 9,9 C 13,4 C 11,3 km/h (2 Bft)
06.06.2020 15:47 14,4 C 74 % 1004,3 hPa 0,0 l/m 8,3 km/h (2 Bft) S-SW 206 1 min 3,8 UV-I 543 W/m 9,8 C 13,3 C 14,5 km/h (3 Bft)
06.06.2020 15:46 14,3 C 74 % 1004,3 hPa 0,0 l/m 7,6 km/h (2 Bft) S-SW 204 1 min 3,1 UV-I 543 W/m 9,7 C 13,6 C 12,9 km/h (3 Bft)
06.06.2020 15:45 14,3 C 74 % 1004,2 hPa 0,0 l/m 10,4 km/h (2 Bft) S-SW 205 1 min 2,8 UV-I 504 W/m 9,7 C 12,2 C 19,3 km/h (3 Bft)
06.06.2020 15:44 14,3 C 74 % 1004,3 hPa 0,0 l/m 12,5 km/h (3 Bft) S 173 1 min 2,7 UV-I 456 W/m 9,7 C 11,3 C 19,3 km/h (3 Bft)
06.06.2020 15:43 14,3 C 74 % 1004,2 hPa 0,0 l/m 14,6 km/h (3 Bft) S-SW 197 1 min 2,7 UV-I 466 W/m 9,7 C 10,5 C 22,5 km/h (4 Bft)
06.06.2020 15:42 14,4 C 74 % 1004,3 hPa 0,0 l/m 12,8 km/h (3 Bft) S 191 1 min 2,6 UV-I 455 W/m 9,8 C 11,3 C 19,3 km/h (3 Bft)
06.06.2020 15:41 14,4 C 74 % 1004,3 hPa 0,0 l/m 14,8 km/h (3 Bft) S 173 0 min 2,4 UV-I 410 W/m 9,8 C 10,5 C 22,5 km/h (4 Bft)
06.06.2020 15:40 14,5 C 74 % 1004,3 hPa 0,0 l/m 10,5 km/h (2 Bft) S-SW 193 0 min 2,4 UV-I 385 W/m 9,9 C 12,3 C 17,7 km/h (3 Bft)
06.06.2020 15:39 14,6 C 74 % 1004,3 hPa 0,0 l/m 16,0 km/h (3 Bft) S-SW 192 0 min 2,2 UV-I 350 W/m 10,0 C 10,4 C 22,5 km/h (4 Bft)
06.06.2020 15:38 14,6 C 74 % 1004,3 hPa 0,0 l/m 14,2 km/h (3 Bft) S 184 0 min 2,2 UV-I 326 W/m 10,0 C 11,0 C 20,9 km/h (4 Bft)
06.06.2020 15:37 14,6 C 74 % 1004,2 hPa 0,0 l/m 9,6 km/h (2 Bft) S 182 0 min 2,4 UV-I 390 W/m 10,0 C 12,9 C 14,5 km/h (3 Bft)
06.06.2020 15:36 14,5 C 74 % 1004,2 hPa 0,0 l/m 10,7 km/h (2 Bft) S-SW 200 1 min 3,4 UV-I 526 W/m 9,9 C 12,2 C 14,5 km/h (3 Bft)
06.06.2020 15:35 14,4 C 74 % 1004,2 hPa 0,0 l/m 10,9 km/h (2 Bft) W-SW 240 1 min 4,6 UV-I 526 W/m 9,8 C 12,0 C 16,1 km/h (3 Bft)
06.06.2020 15:34 14,4 C 73 % 1004,3 hPa 0,0 l/m 5,2 km/h (1 Bft) W-SW 256 1 min 3,4 UV-I 526 W/m 9,6 C 14,4 C 11,3 km/h (2 Bft)
06.06.2020 15:33 14,3 C 74 % 1004,2 hPa 0,0 l/m 5,3 km/h (1 Bft) SW 226 1 min 3,4 UV-I 526 W/m 9,7 C 14,3 C 9,7 km/h (2 Bft)
06.06.2020 15:32 14,3 C 73 % 1004,2 hPa 0,0 l/m 3,2 km/h (1 Bft) S 190 1 min 3,0 UV-I 527 W/m 9,5 C 14,3 C 6,4 km/h (2 Bft)
06.06.2020 15:31 14,3 C 73 % 1004,2 hPa 0,0 l/m 8,8 km/h (2 Bft) S 184 1 min 2,8 UV-I 492 W/m 9,5 C 12,9 C 12,9 km/h (3 Bft)
06.06.2020 15:30 14,2 C 74 % 1004,2 hPa 0,0 l/m 4,5 km/h (1 Bft) S 191 0 min 2,5 UV-I 421 W/m 9,6 C 14,2 C 9,7 km/h (2 Bft)
06.06.2020 15:29 14,2 C 74 % 1004,2 hPa 0,0 l/m 6,2 km/h (2 Bft) S 188 0 min 2,3 UV-I 395 W/m 9,6 C 14,2 C 11,3 km/h (2 Bft)
06.06.2020 15:28 14,1 C 73 % 1004,3 hPa 0,0 l/m 5,1 km/h (1 Bft) W-SW 254 0 min 2,3 UV-I 380 W/m 9,3 C 14,1 C 12,9 km/h (3 Bft)
06.06.2020 15:27 14,1 C 74 % 1004,3 hPa 0,0 l/m 9,5 km/h (2 Bft) SW 234 0 min 2,3 UV-I 360 W/m 9,5 C 12,4 C 14,5 km/h (3 Bft)
06.06.2020 15:26 14,1 C 74 % 1004,4 hPa 0,0 l/m 9,1 km/h (2 Bft) SO 142 0 min 2,5 UV-I 379 W/m 9,5 C 12,6 C 14,5 km/h (3 Bft)
06.06.2020 15:25 14,1 C 74 % 1004,4 hPa 0,0 l/m 9,6 km/h (2 Bft) S-SW 194 0 min 2,6 UV-I 381 W/m 9,5 C 12,3 C 14,5 km/h (3 Bft)
06.06.2020 15:24 14,0 C 72 % 1004,5 hPa 0,0 l/m 5,1 km/h (1 Bft) S-SW 192 1 min 2,7 UV-I 508 W/m 9,0 C 14,0 C 8,0 km/h (2 Bft)
06.06.2020 15:23 13,9 C 72 % 1004,5 hPa 0,0 l/m 2,3 km/h (1 Bft) S-SW 211 1 min 3,5 UV-I 605 W/m 8,9 C 13,9 C 4,8 km/h (1 Bft)
06.06.2020 15:22 13,8 C 73 % 1004,5 hPa 0,0 l/m 5,0 km/h (1 Bft) SW 215 1 min 3,1 UV-I 603 W/m 9,0 C 13,8 C 8,0 km/h (2 Bft)
06.06.2020 15:21 13,7 C 73 % 1004,5 hPa 0,0 l/m 8,5 km/h (2 Bft) S-SW 193 1 min 3,1 UV-I 521 W/m 8,9 C 12,5 C 11,3 km/h (2 Bft)
06.06.2020 15:20 13,6 C 73 % 1004,6 hPa 0,0 l/m 5,9 km/h (2 Bft) S-SO 159 0 min 2,7 UV-I 380 W/m 8,9 C 13,6 C 9,7 km/h (2 Bft)
06.06.2020 15:19 13,6 C 74 % 1004,7 hPa 0,0 l/m 5,6 km/h (1 Bft) S-SO 154 0 min 2,0 UV-I 339 W/m 9,1 C 13,6 C 9,7 km/h (2 Bft)
06.06.2020 15:18 13,5 C 74 % 1004,6 hPa 0,0 l/m 4,5 km/h (1 Bft) S-SW 209 0 min 2,0 UV-I 320 W/m 9,0 C 13,5 C 12,9 km/h (3 Bft)
06.06.2020 15:17 13,5 C 74 % 1004,7 hPa 0,0 l/m 3,8 km/h (1 Bft) SW 223 0 min 1,6 UV-I 280 W/m 9,0 C 13,5 C 6,4 km/h (2 Bft)
06.06.2020 15:16 13,4 C 74 % 1004,7 hPa 0,0 l/m 7,4 km/h (2 Bft) S-SW 203 0 min 1,4 UV-I 240 W/m 8,9 C 12,8 C 12,9 km/h (3 Bft)
06.06.2020 15:15 13,5 C 74 % 1004,7 hPa 0,0 l/m 9,4 km/h (2 Bft) SW 216 0 min 1,5 UV-I 237 W/m 9,0 C 11,8 C 14,5 km/h (3 Bft)
06.06.2020 15:14 13,4 C 74 % 1004,7 hPa 0,0 l/m 7,7 km/h (2 Bft) S-SW 203 0 min 1,9 UV-I 283 W/m 8,9 C 12,6 C 12,9 km/h (3 Bft)
06.06.2020 15:13 13,4 C 74 % 1004,7 hPa 0,0 l/m 7,0 km/h (2 Bft) S 172 0 min 2,1 UV-I 330 W/m 8,9 C 13,0 C 11,3 km/h (2 Bft)
06.06.2020 15:12 13,4 C 74 % 1004,7 hPa 0,0 l/m 6,2 km/h (2 Bft) S-SW 209 0 min 2,1 UV-I 332 W/m 8,9 C 13,4 C 9,7 km/h (2 Bft)
06.06.2020 15:11 13,4 C 73 % 1004,8 hPa 0,0 l/m 5,6 km/h (1 Bft) S-SW 196 0 min 1,9 UV-I 303 W/m 8,7 C 13,4 C 11,3 km/h (2 Bft)
06.06.2020 15:10 13,4 C 73 % 1004,7 hPa 0,0 l/m 6,8 km/h (2 Bft) S-SO 157 0 min 1,8 UV-I 275 W/m 8,7 C 13,2 C 9,7 km/h (2 Bft)
06.06.2020 15:09 13,4 C 74 % 1004,7 hPa 0,0 l/m 6,9 km/h (2 Bft) S-SW 207 0 min 1,8 UV-I 270 W/m 8,9 C 13,1 C 16,1 km/h (3 Bft)
06.06.2020 15:08 13,4 C 74 % 1004,7 hPa 0,0 l/m 4,4 km/h (1 Bft) SW 228 0 min 1,9 UV-I 274 W/m 8,9 C 13,4 C 11,3 km/h (2 Bft)
06.06.2020 15:07 13,4 C 73 % 1004,7 hPa 0,0 l/m 6,8 km/h (2 Bft) S-SW 198 0 min 2,0 UV-I 301 W/m 8,7 C 13,2 C 12,9 km/h (3 Bft)
06.06.2020 15:06 13,4 C 73 % 1004,7 hPa 0,0 l/m 4,2 km/h (1 Bft) SW 223 0 min 2,0 UV-I 314 W/m 8,7 C 13,4 C 8,0 km/h (2 Bft)
06.06.2020 15:05 13,4 C 73 % 1004,6 hPa 0,0 l/m 4,6 km/h (1 Bft) S-SW 197 0 min 2,0 UV-I 302 W/m 8,7 C 13,4 C 9,7 km/h (2 Bft)
06.06.2020 15:04 13,3 C 73 % 1004,6 hPa 0,0 l/m 7,5 km/h (2 Bft) W-SW 244 0 min 2,2 UV-I 332 W/m 8,6 C 12,6 C 11,3 km/h (2 Bft)
06.06.2020 15:03 13,3 C 73 % 1004,6 hPa 0,0 l/m 5,2 km/h (1 Bft) S-SO 161 0 min 2,2 UV-I 349 W/m 8,6 C 13,3 C 9,7 km/h (2 Bft)
06.06.2020 15:02 13,3 C 74 % 1004,6 hPa 0,0 l/m 7,2 km/h (2 Bft) SW 224 0 min 2,1 UV-I 337 W/m 8,8 C 12,8 C 14,5 km/h (3 Bft)
06.06.2020 15:01 13,3 C 73 % 1004,6 hPa 0,0 l/m 7,1 km/h (2 Bft) S-SW 199 0 min 2,1 UV-I 322 W/m 8,6 C 12,9 C 14,5 km/h (3 Bft)
06.06.2020 15:00 13,3 C 73 % 1004,7 hPa 0,0 l/m 7,0 km/h (2 Bft) S 182 0 min 2,1 UV-I 327 W/m 8,6 C 12,9 C 9,7 km/h (2 Bft)
06.06.2020 14:59 13,3 C 74 % 1004,7 hPa 0,0 l/m 7,9 km/h (2 Bft) S 173 0 min 2,1 UV-I 318 W/m 8,8 C 12,4 C 11,3 km/h (2 Bft)
06.06.2020 14:58 13,3 C 74 % 1004,7 hPa 0,0 l/m 5,8 km/h (2 Bft) SW 230 0 min 2,1 UV-I 311 W/m 8,8 C 13,3 C 11,3 km/h (2 Bft)
06.06.2020 14:57 13,3 C 74 % 1004,6 hPa 0,0 l/m 8,2 km/h (2 Bft) S 174 0 min 2,2 UV-I 338 W/m 8,8 C 12,2 C 12,9 km/h (3 Bft)
06.06.2020 14:56 13,3 C 74 % 1004,7 hPa 0,0 l/m 8,1 km/h (2 Bft) SW 217 0 min 2,1 UV-I 342 W/m 8,8 C 12,3 C 11,3 km/h (2 Bft)
06.06.2020 14:55 13,3 C 73 % 1004,6 hPa 0,0 l/m 8,0 km/h (2 Bft) S 178 0 min 2,1 UV-I 316 W/m 8,6 C 12,3 C 12,9 km/h (3 Bft)
06.06.2020 14:54 13,2 C 73 % 1004,6 hPa 0,0 l/m 5,4 km/h (1 Bft) S-SW 195 0 min 2,2 UV-I 331 W/m 8,5 C 13,2 C 9,7 km/h (2 Bft)
06.06.2020 14:53 13,2 C 73 % 1004,6 hPa 0,0 l/m 5,7 km/h (1 Bft) S-SW 209 0 min 2,5 UV-I 371 W/m 8,5 C 13,2 C 9,7 km/h (2 Bft)
06.06.2020 14:52 13,2 C 73 % 1004,7 hPa 0,0 l/m 4,4 km/h (1 Bft) S-SW 194 0 min 2,7 UV-I 436 W/m 8,5 C 13,2 C 9,7 km/h (2 Bft)
06.06.2020 14:51 13,1 C 74 % 1004,7 hPa 0,0 l/m 5,4 km/h (1 Bft) S-SW 202 0 min 2,4 UV-I 397 W/m 8,6 C 13,1 C 9,7 km/h (2 Bft)
06.06.2020 14:50 13,1 C 74 % 1004,7 hPa 0,0 l/m 5,0 km/h (1 Bft) S 182 0 min 2,0 UV-I 305 W/m 8,6 C 13,1 C 9,7 km/h (2 Bft)
06.06.2020 14:49 13,1 C 74 % 1004,8 hPa 0,0 l/m 6,9 km/h (2 Bft) SW 229 0 min 1,7 UV-I 256 W/m 8,6 C 12,8 C 12,9 km/h (3 Bft)
06.06.2020 14:48 13,1 C 74 % 1004,7 hPa 0,0 l/m 4,3 km/h (1 Bft) S 174 0 min 1,6 UV-I 247 W/m 8,6 C 13,1 C 8,0 km/h (2 Bft)
06.06.2020 14:47 13,1 C 74 % 1004,8 hPa 0,0 l/m 6,2 km/h (2 Bft) S-SW 197 0 min 1,7 UV-I 242 W/m 8,6 C 13,1 C 9,7 km/h (2 Bft)
06.06.2020 14:46 13,1 C 74 % 1004,7 hPa 0,0 l/m 5,6 km/h (1 Bft) S-SW 202 0 min 1,7 UV-I 246 W/m 8,6 C 13,1 C 8,0 km/h (2 Bft)
06.06.2020 14:45 13,1 C 74 % 1004,6 hPa 0,0 l/m 10,1 km/h (2 Bft) S 189 0 min 1,6 UV-I 237 W/m 8,6 C 11,0 C 12,9 km/h (3 Bft)
06.06.2020 14:44 13,1 C 74 % 1004,6 hPa 0,0 l/m 11,6 km/h (2 Bft) S-SO 159 0 min 1,7 UV-I 247 W/m 8,6 C 10,3 C 17,7 km/h (3 Bft)
06.06.2020 14:43 13,2 C 74 % 1004,6 hPa 0,0 l/m 8,5 km/h (2 Bft) S 184 0 min 1,8 UV-I 257 W/m 8,7 C 11,9 C 17,7 km/h (3 Bft)
06.06.2020 14:42 13,1 C 74 % 1004,7 hPa 0,0 l/m 6,7 km/h (2 Bft) S-SO 157 0 min 1,8 UV-I 257 W/m 8,6 C 12,9 C 9,7 km/h (2 Bft)
06.06.2020 14:41 13,2 C 74 % 1004,7 hPa 0,0 l/m 11,0 km/h (2 Bft) W-SW 240 0 min 1,7 UV-I 251 W/m 8,7 C 10,6 C 17,7 km/h (3 Bft)
06.06.2020 14:40 13,2 C 74 % 1004,7 hPa 0,0 l/m 9,0 km/h (2 Bft) W-SW 237 0 min 1,8 UV-I 265 W/m 8,7 C 11,6 C 12,9 km/h (3 Bft)
06.06.2020 14:39 13,2 C 74 % 1004,7 hPa 0,0 l/m 8,5 km/h (2 Bft) SW 232 0 min 2,1 UV-I 311 W/m 8,7 C 11,9 C 14,5 km/h (3 Bft)
06.06.2020 14:38 13,2 C 74 % 1004,7 hPa 0,0 l/m 10,7 km/h (2 Bft) SW 225 0 min 2,4 UV-I 364 W/m 8,7 C 10,8 C 19,3 km/h (3 Bft)
06.06.2020 14:37 13,2 C 74 % 1004,7 hPa 0,0 l/m 9,1 km/h (2 Bft) S-SW 198 0 min 2,5 UV-I 380 W/m 8,7 C 11,6 C 12,9 km/h (3 Bft)
06.06.2020 14:36 13,2 C 74 % 1004,7 hPa 0,0 l/m 14,8 km/h (3 Bft) W-SW 242 0 min 2,4 UV-I 353 W/m 8,7 C 9,1 C 22,5 km/h (4 Bft)
06.06.2020 14:35 13,2 C 74 % 1004,7 hPa 0,0 l/m 14,5 km/h (3 Bft) SW 221 0 min 2,4 UV-I 353 W/m 8,7 C 9,2 C 22,5 km/h (4 Bft)
06.06.2020 14:34 13,2 C 74 % 1004,7 hPa 0,0 l/m 8,6 km/h (2 Bft) SW 217 0 min 2,6 UV-I 371 W/m 8,7 C 11,9 C 12,9 km/h (3 Bft)
06.06.2020 14:33 13,3 C 74 % 1004,7 hPa 0,0 l/m 15,9 km/h (3 Bft) S 190 0 min 2,9 UV-I 415 W/m 8,8 C 8,8 C 24,1 km/h (4 Bft)
06.06.2020 14:32 13,3 C 74 % 1004,7 hPa 0,0 l/m 12,0 km/h (2 Bft) W-SW 237 1 min 3,4 UV-I 508 W/m 8,8 C 10,3 C 19,3 km/h (3 Bft)
06.06.2020 14:31 13,2 C 74 % 1004,8 hPa 0,0 l/m 10,0 km/h (2 Bft) W-SW 239 1 min 3,3 UV-I 516 W/m 8,7 C 11,1 C 16,1 km/h (3 Bft)
06.06.2020 14:30 13,3 C 74 % 1004,8 hPa 0,0 l/m 15,0 km/h (3 Bft) SW 232 1 min 3,1 UV-I 479 W/m 8,8 C 9,1 C 22,5 km/h (4 Bft)
06.06.2020 14:29 13,2 C 74 % 1004,8 hPa 0,0 l/m 11,4 km/h (2 Bft) W 270 0 min 3,0 UV-I 451 W/m 8,7 C 10,5 C 14,5 km/h (3 Bft)
06.06.2020 14:28 13,2 C 74 % 1004,8 hPa 0,0 l/m 8,4 km/h (2 Bft) SW 234 0 min 2,9 UV-I 438 W/m 8,7 C 12,0 C 11,3 km/h (2 Bft)
06.06.2020 14:27 13,2 C 74 % 1004,8 hPa 0,0 l/m 7,7 km/h (2 Bft) W-SW 240 0 min 2,7 UV-I 410 W/m 8,7 C 12,4 C 14,5 km/h (3 Bft)
06.06.2020 14:26 13,1 C 74 % 1004,7 hPa 0,0 l/m 9,5 km/h (2 Bft) S-SO 165 0 min 2,8 UV-I 404 W/m 8,6 C 11,3 C 17,7 km/h (3 Bft)
06.06.2020 14:25 13,1 C 74 % 1004,7 hPa 0,0 l/m 6,2 km/h (2 Bft) S-SW 202 0 min 2,9 UV-I 424 W/m 8,6 C 13,1 C 12,9 km/h (3 Bft)
06.06.2020 14:24 13,1 C 74 % 1004,7 hPa 0,0 l/m 11,5 km/h (2 Bft) S 175 0 min 3,1 UV-I 455 W/m 8,6 C 10,3 C 14,5 km/h (3 Bft)
06.06.2020 14:23 13,1 C 74 % 1004,7 hPa 0,0 l/m 11,9 km/h (2 Bft) S 183 0 min 3,0 UV-I 442 W/m 8,6 C 10,1 C 17,7 km/h (3 Bft)
06.06.2020 14:22 13,0 C 74 % 1004,7 hPa 0,0 l/m 8,9 km/h (2 Bft) SO 143 0 min 2,9 UV-I 423 W/m 8,5 C 11,5 C 16,1 km/h (3 Bft)
06.06.2020 14:21 13,0 C 74 % 1004,7 hPa 0,0 l/m 7,0 km/h (2 Bft) S 186 0 min 2,9 UV-I 420 W/m 8,5 C 12,6 C 11,3 km/h (2 Bft)
06.06.2020 14:20 12,9 C 74 % 1004,7 hPa 0,0 l/m 7,5 km/h (2 Bft) SW 217 0 min 3,0 UV-I 432 W/m 8,4 C 12,2 C 12,9 km/h (3 Bft)
06.06.2020 14:19 12,9 C 74 % 1004,7 hPa 0,0 l/m 8,0 km/h (2 Bft) S-SW 207 0 min 3,1 UV-I 438 W/m 8,4 C 11,9 C 12,9 km/h (3 Bft)
06.06.2020 14:18 12,9 C 74 % 1004,7 hPa 0,0 l/m 13,9 km/h (3 Bft) S 185 0 min 3,2 UV-I 452 W/m 8,4 C 9,1 C 19,3 km/h (3 Bft)
06.06.2020 14:17 12,8 C 74 % 1004,6 hPa 0,0 l/m 7,8 km/h (2 Bft) S-SW 194 1 min 3,6 UV-I 517 W/m 8,3 C 11,9 C 14,5 km/h (3 Bft)
06.06.2020 14:16 12,8 C 74 % 1004,6 hPa 0,0 l/m 6,9 km/h (2 Bft) SW 215 1 min 3,7 UV-I 571 W/m 8,3 C 12,5 C 9,7 km/h (2 Bft)
06.06.2020 14:15 12,8 C 74 % 1004,6 hPa 0,0 l/m 12,4 km/h (3 Bft) S-SW 202 1 min 3,2 UV-I 477 W/m 8,3 C 9,6 C 16,1 km/h (3 Bft)
06.06.2020 14:14 12,7 C 74 % 1004,7 hPa 0,0 l/m 7,1 km/h (2 Bft) S 188 0 min 2,9 UV-I 414 W/m 8,2 C 12,3 C 11,3 km/h (2 Bft)
06.06.2020 14:13 12,7 C 74 % 1004,6 hPa 0,0 l/m 8,0 km/h (2 Bft) S 186 0 min 2,8 UV-I 403 W/m 8,2 C 11,7 C 14,5 km/h (3 Bft)
06.06.2020 14:12 12,7 C 74 % 1004,7 hPa 0,0 l/m 14,4 km/h (3 Bft) W-SW 242 0 min 2,6 UV-I 397 W/m 8,2 C 8,6 C 20,9 km/h (4 Bft)
06.06.2020 14:11 12,7 C 74 % 1004,8 hPa 0,0 l/m 12,3 km/h (3 Bft) S-SW 203 0 min 2,3 UV-I 336 W/m 8,2 C 9,5 C 17,7 km/h (3 Bft)
06.06.2020 14:10 12,7 C 74 % 1004,8 hPa 0,0 l/m 5,5 km/h (1 Bft) S-SW 211 0 min 2,0 UV-I 286 W/m 8,2 C 12,7 C 8,0 km/h (2 Bft)
06.06.2020 14:09 12,7 C 74 % 1004,8 hPa 0,0 l/m 6,0 km/h (2 Bft) S-SW 205 0 min 1,7 UV-I 252 W/m 8,2 C 12,7 C 8,0 km/h (2 Bft)
06.06.2020 14:08 12,7 C 74 % 1004,7 hPa 0,0 l/m 4,0 km/h (1 Bft) S-SW 208 0 min 1,6 UV-I 235 W/m 8,2 C 12,7 C 6,4 km/h (2 Bft)
06.06.2020 14:07 12,7 C 74 % 1004,6 hPa 0,0 l/m 6,8 km/h (2 Bft) S-SW 197 0 min 1,6 UV-I 227 W/m 8,2 C 12,5 C 9,7 km/h (2 Bft)
06.06.2020 14:06 12,7 C 74 % 1004,6 hPa 0,0 l/m 4,4 km/h (1 Bft) S 189 0 min 1,6 UV-I 233 W/m 8,2 C 12,7 C 6,4 km/h (2 Bft)
06.06.2020 14:05 12,8 C 74 % 1004,6 hPa 0,0 l/m 10,6 km/h (2 Bft) S-SO 159 0 min 1,8 UV-I 266 W/m 8,3 C 10,4 C 14,5 km/h (3 Bft)
06.06.2020 14:04 12,8 C 74 % 1004,5 hPa 0,0 l/m 8,2 km/h (2 Bft) SW 223 0 min 1,9 UV-I 271 W/m 8,3 C 11,7 C 11,3 km/h (2 Bft)
06.06.2020 14:03 12,8 C 74 % 1004,6 hPa 0,0 l/m 11,3 km/h (2 Bft) SW 232 0 min 1,7 UV-I 244 W/m 8,3 C 10,1 C 14,5 km/h (3 Bft)
06.06.2020 14:02 12,8 C 74 % 1004,6 hPa 0,0 l/m 14,9 km/h (3 Bft) S 185 0 min 1,4 UV-I 215 W/m 8,3 C 8,6 C 24,1 km/h (4 Bft)
06.06.2020 14:01 12,9 C 74 % 1004,6 hPa 0,0 l/m 7,8 km/h (2 Bft) S-SW 192 0 min 1,4 UV-I 208 W/m 8,4 C 12,0 C 14,5 km/h (3 Bft)
06.06.2020 14:00 12,9 C 74 % 1004,6 hPa 0,0 l/m 7,4 km/h (2 Bft) S 186 0 min 1,5 UV-I 232 W/m 8,4 C 12,3 C 9,7 km/h (2 Bft)
06.06.2020 13:59 12,9 C 73 % 1004,6 hPa 0,0 l/m 3,6 km/h (1 Bft) SW 217 0 min 1,8 UV-I 266 W/m 8,2 C 12,9 C 6,4 km/h (2 Bft)
06.06.2020 13:58 12,9 C 73 % 1004,6 hPa 0,0 l/m 4,4 km/h (1 Bft) SW 223 0 min 2,1 UV-I 301 W/m 8,2 C 12,9 C 8,0 km/h (2 Bft)
06.06.2020 13:57 12,8 C 73 % 1004,6 hPa 0,0 l/m 3,9 km/h (1 Bft) S-SW 194 0 min 2,5 UV-I 354 W/m 8,1 C 12,8 C 6,4 km/h (2 Bft)
06.06.2020 13:56 12,8 C 73 % 1004,6 hPa 0,0 l/m 6,0 km/h (2 Bft) S-SW 194 0 min 2,8 UV-I 394 W/m 8,1 C 12,8 C 12,9 km/h (3 Bft)
06.06.2020 13:55 12,7 C 74 % 1004,6 hPa 0,0 l/m 5,9 km/h (2 Bft) S-SW 213 0 min 2,8 UV-I 403 W/m 8,2 C 12,7 C 11,3 km/h (2 Bft)
06.06.2020 13:54 12,7 C 74 % 1004,6 hPa 0,0 l/m 6,3 km/h (2 Bft) S 169 0 min 2,7 UV-I 385 W/m 8,2 C 12,7 C 8,0 km/h (2 Bft)
06.06.2020 13:53 12,6 C 74 % 1004,7 hPa 0,0 l/m 4,4 km/h (1 Bft) SW 217 0 min 2,5 UV-I 369 W/m 8,1 C 12,6 C 8,0 km/h (2 Bft)
06.06.2020 13:52 12,6 C 74 % 1004,7 hPa 0,0 l/m 0,3 km/h (0 Bft) S-SW 206 0 min 2,4 UV-I 343 W/m 8,1 C 12,6 C 1,6 km/h (1 Bft)
06.06.2020 13:51 12,6 C 74 % 1004,8 hPa 0,0 l/m 2,5 km/h (1 Bft) S-SW 206 0 min 2,2 UV-I 319 W/m 8,1 C 12,6 C 4,8 km/h (1 Bft)
06.06.2020 13:50 12,5 C 74 % 1004,8 hPa 0,0 l/m 2,1 km/h (1 Bft) W-SW 244 0 min 1,9 UV-I 277 W/m 8,0 C 12,5 C 4,8 km/h (1 Bft)
06.06.2020 13:49 12,5 C 74 % 1004,8 hPa 0,0 l/m 3,8 km/h (1 Bft) W-SW 243 0 min 1,7 UV-I 249 W/m 8,0 C 12,5 C 4,8 km/h (1 Bft)
06.06.2020 13:48 12,6 C 74 % 1004,8 hPa 0,0 l/m 5,7 km/h (1 Bft) W-SW 257 0 min 1,6 UV-I 231 W/m 8,1 C 12,6 C 11,3 km/h (2 Bft)
06.06.2020 13:47 12,5 C 74 % 1004,7 hPa 0,0 l/m 6,0 km/h (2 Bft) W-SW 238 0 min 1,8 UV-I 243 W/m 8,0 C 12,5 C 11,3 km/h (2 Bft)
06.06.2020 13:46 12,5 C 74 % 1004,7 hPa 0,0 l/m 7,0 km/h (2 Bft) W-SW 247 0 min 2,0 UV-I 273 W/m 8,0 C 12,1 C 12,9 km/h (3 Bft)
06.06.2020 13:45 12,5 C 74 % 1004,7 hPa 0,0 l/m 7,4 km/h (2 Bft) W 265 0 min 2,1 UV-I 292 W/m 8,0 C 11,9 C 9,7 km/h (2 Bft)
06.06.2020 13:44 12,6 C 74 % 1004,8 hPa 0,0 l/m 5,6 km/h (1 Bft) SW 214 0 min 2,2 UV-I 298 W/m 8,1 C 12,6 C 8,0 km/h (2 Bft)
06.06.2020 13:43 12,6 C 74 % 1004,7 hPa 0,0 l/m 12,1 km/h (2 Bft) S-SW 198 0 min 2,2 UV-I 299 W/m 8,1 C 9,5 C 19,3 km/h (3 Bft)
06.06.2020 13:42 12,6 C 74 % 1004,7 hPa 0,0 l/m 9,1 km/h (2 Bft) SW 228 0 min 2,3 UV-I 309 W/m 8,1 C 10,9 C 17,7 km/h (3 Bft)
06.06.2020 13:41 12,7 C 74 % 1004,7 hPa 0,0 l/m 6,7 km/h (2 Bft) S-SW 200 0 min 2,4 UV-I 331 W/m 8,2 C 12,5 C 11,3 km/h (2 Bft)
06.06.2020 13:40 12,7 C 74 % 1004,6 hPa 0,0 l/m 8,1 km/h (2 Bft) S-SW 193 0 min 2,6 UV-I 350 W/m 8,2 C 11,6 C 11,3 km/h (2 Bft)
06.06.2020 13:39 12,7 C 74 % 1004,8 hPa 0,0 l/m 8,1 km/h (2 Bft) S 185 0 min 2,5 UV-I 348 W/m 8,2 C 11,6 C 12,9 km/h (3 Bft)
06.06.2020 13:38 12,7 C 74 % 1004,8 hPa 0,0 l/m 5,8 km/h (2 Bft) S 189 0 min 2,4 UV-I 337 W/m 8,2 C 12,7 C 12,9 km/h (3 Bft)
06.06.2020 13:37 12,7 C 73 % 1004,8 hPa 0,0 l/m 10,2 km/h (2 Bft) SW 232 0 min 2,3 UV-I 323 W/m 8,0 C 10,5 C 17,7 km/h (3 Bft)
06.06.2020 13:36 12,7 C 73 % 1004,8 hPa 0,0 l/m 6,5 km/h (2 Bft) SW 224 0 min 2,3 UV-I 317 W/m 8,0 C 12,7 C 9,7 km/h (2 Bft)
06.06.2020 13:35 12,7 C 73 % 1004,7 hPa 0,0 l/m 4,6 km/h (1 Bft) SW 236 0 min 2,4 UV-I 325 W/m 8,0 C 12,7 C 9,7 km/h (2 Bft)
06.06.2020 13:34 12,7 C 72 % 1004,7 hPa 0,0 l/m 7,2 km/h (2 Bft) W-SW 243 0 min 2,5 UV-I 333 W/m 7,8 C 12,2 C 9,7 km/h (2 Bft)
06.06.2020 13:33 12,7 C 73 % 1004,7 hPa 0,0 l/m 2,6 km/h (1 Bft) SW 227 0 min 2,5 UV-I 344 W/m 8,0 C 12,7 C 4,8 km/h (1 Bft)
06.06.2020 13:32 12,6 C 73 % 1004,7 hPa 0,0 l/m 2,1 km/h (1 Bft) SW 217 0 min 2,4 UV-I 331 W/m 7,9 C 12,6 C 4,8 km/h (1 Bft)
06.06.2020 13:31 12,6 C 73 % 1004,8 hPa 0,0 l/m 4,8 km/h (1 Bft) SW 236 0 min 2,0 UV-I 306 W/m 7,9 C 12,6 C 6,4 km/h (2 Bft)
06.06.2020 13:30 12,6 C 72 % 1004,9 hPa 0,0 l/m 4,7 km/h (1 Bft) SW 227 0 min 1,9 UV-I 267 W/m 7,7 C 12,6 C 8,0 km/h (2 Bft)
06.06.2020 13:29 12,6 C 72 % 1004,8 hPa 0,0 l/m 1,3 km/h (1 Bft) SW 226 0 min 1,8 UV-I 258 W/m 7,7 C 12,6 C 3,2 km/h (1 Bft)
06.06.2020 13:28 12,6 C 71 % 1004,8 hPa 0,0 l/m 6,6 km/h (2 Bft) S-SW 198 0 min 2,1 UV-I 282 W/m 7,5 C 12,5 C 9,7 km/h (2 Bft)
06.06.2020 13:27 12,5 C 72 % 1004,7 hPa 0,0 l/m 2,6 km/h (1 Bft) S-SW 201 0 min 2,4 UV-I 326 W/m 7,6 C 12,5 C 6,4 km/h (2 Bft)
06.06.2020 13:26 12,4 C 72 % 1004,6 hPa 0,0 l/m 2,6 km/h (1 Bft) SW 236 0 min 2,9 UV-I 415 W/m 7,5 C 12,4 C 4,8 km/h (1 Bft)
06.06.2020 13:25 12,4 C 73 % 1004,5 hPa 0,0 l/m 1,0 km/h (0 Bft) SW 232 0 min 2,9 UV-I 435 W/m 7,7 C 12,4 C 1,6 km/h (1 Bft)
06.06.2020 13:24 12,4 C 73 % 1004,5 hPa 0,0 l/m 1,9 km/h (1 Bft) SW 234 0 min 2,4 UV-I 341 W/m 7,7 C 12,4 C 4,8 km/h (1 Bft)
06.06.2020 13:23 12,3 C 73 % 1004,6 hPa 0,0 l/m 3,0 km/h (1 Bft) W-SW 242 0 min 2,3 UV-I 314 W/m 7,6 C 12,3 C 4,8 km/h (1 Bft)
06.06.2020 13:22 12,3 C 73 % 1004,5 hPa 0,0 l/m 5,1 km/h (1 Bft) W 273 0 min 2,1 UV-I 302 W/m 7,6 C 12,3 C 12,9 km/h (3 Bft)
06.06.2020 13:21 12,3 C 72 % 1004,5 hPa 0,0 l/m 1,5 km/h (1 Bft) W 277 0 min 2,0 UV-I 293 W/m 7,4 C 12,3 C 3,2 km/h (1 Bft)
06.06.2020 13:20 12,3 C 73 % 1004,5 hPa 0,0 l/m 0,8 km/h (0 Bft) W-SW 250 0 min 2,2 UV-I 304 W/m 7,6 C 12,3 C 1,6 km/h (1 Bft)
06.06.2020 13:19 12,3 C 73 % 1004,6 hPa 0,0 l/m 3,8 km/h (1 Bft) W-SW 250 0 min 2,2 UV-I 312 W/m 7,6 C 12,3 C 4,8 km/h (1 Bft)
06.06.2020 13:18 12,3 C 73 % 1004,6 hPa 0,0 l/m 4,5 km/h (1 Bft) W-SW 246 0 min 2,0 UV-I 284 W/m 7,6 C 12,3 C 6,4 km/h (2 Bft)
06.06.2020 13:17 12,3 C 73 % 1004,6 hPa 0,0 l/m 3,8 km/h (1 Bft) SW 236 0 min 1,9 UV-I 267 W/m 7,6 C 12,3 C 6,4 km/h (2 Bft)
06.06.2020 13:16 12,3 C 73 % 1004,6 hPa 0,0 l/m 6,8 km/h (2 Bft) SW 217 0 min 1,9 UV-I 260 W/m 7,6 C 12,0 C 9,7 km/h (2 Bft)
06.06.2020 13:15 12,3 C 73 % 1004,6 hPa 0,0 l/m 6,2 km/h (2 Bft) S-SW 202 0 min 1,8 UV-I 256 W/m 7,6 C 12,3 C 9,7 km/h (2 Bft)
06.06.2020 13:14 12,3 C 73 % 1004,7 hPa 0,0 l/m 8,8 km/h (2 Bft) S-SW 197 0 min 1,9 UV-I 261 W/m 7,6 C 10,8 C 12,9 km/h (3 Bft)
06.06.2020 13:13 12,3 C 73 % 1004,7 hPa 0,0 l/m 11,3 km/h (2 Bft) S-SW 198 0 min 2,0 UV-I 273 W/m 7,6 C 9,5 C 14,5 km/h (3 Bft)
06.06.2020 13:12 12,4 C 73 % 1004,6 hPa 0,0 l/m 9,0 km/h (2 Bft) SW 221 0 min 2,1 UV-I 289 W/m 7,7 C 10,8 C 12,9 km/h (3 Bft)
06.06.2020 13:11 12,4 C 72 % 1004,6 hPa 0,0 l/m 10,0 km/h (2 Bft) S-SW 194 0 min 2,3 UV-I 318 W/m 7,5 C 10,2 C 16,1 km/h (3 Bft)
06.06.2020 13:10 12,4 C 72 % 1004,6 hPa 0,0 l/m 10,2 km/h (2 Bft) S-SW 194 0 min 2,8 UV-I 372 W/m 7,5 C 10,1 C 16,1 km/h (3 Bft)
06.06.2020 13:09 12,4 C 71 % 1004,5 hPa 0,0 l/m 5,9 km/h (2 Bft) SW 225 0 min 3,1 UV-I 433 W/m 7,3 C 12,4 C 11,3 km/h (2 Bft)
06.06.2020 13:08 12,4 C 72 % 1004,5 hPa 0,0 l/m 6,0 km/h (2 Bft) SW 227 0 min 3,0 UV-I 425 W/m 7,5 C 12,4 C 9,7 km/h (2 Bft)
06.06.2020 13:07 12,4 C 71 % 1004,6 hPa 0,0 l/m 8,1 km/h (2 Bft) W-SW 238 0 min 2,7 UV-I 375 W/m 7,3 C 11,3 C 16,1 km/h (3 Bft)
06.06.2020 13:06 12,3 C 71 % 1004,5 hPa 0,0 l/m 7,0 km/h (2 Bft) SW 227 0 min 2,6 UV-I 415 W/m 7,2 C 11,9 C 11,3 km/h (2 Bft)
06.06.2020 13:05 12,3 C 70 % 1004,5 hPa 0,0 l/m 8,6 km/h (2 Bft) SW 220 1 min 3,0 UV-I 561 W/m 7,0 C 10,9 C 11,3 km/h (2 Bft)
06.06.2020 13:04 12,3 C 69 % 1004,5 hPa 0,0 l/m 8,4 km/h (2 Bft) SW 226 1 min 3,9 UV-I 561 W/m 6,8 C 11,0 C 12,9 km/h (3 Bft)
06.06.2020 13:03 12,2 C 69 % 1004,5 hPa 0,0 l/m 2,7 km/h (1 Bft) W 261 1 min 3,8 UV-I 561 W/m 6,7 C 12,2 C 4,8 km/h (1 Bft)
06.06.2020 13:02 12,2 C 69 % 1004,5 hPa 0,0 l/m 8,7 km/h (2 Bft) W 280 1 min 3,7 UV-I 507 W/m 6,7 C 10,7 C 14,5 km/h (3 Bft)
06.06.2020 13:01 12,2 C 68 % 1004,5 hPa 0,0 l/m 7,8 km/h (2 Bft) W-SW 241 1 min 3,4 UV-I 497 W/m 6,5 C 11,3 C 11,3 km/h (2 Bft)
06.06.2020 13:00 12,2 C 66 % 1004,5 hPa 0,0 l/m 9,4 km/h (2 Bft) SW 234 0 min 3,1 UV-I 442 W/m 6,0 C 10,3 C 14,5 km/h (3 Bft)
06.06.2020 12:59 12,1 C 65 % 1004,5 hPa 0,0 l/m 8,0 km/h (2 Bft) W-SW 239 1 min 3,2 UV-I 497 W/m 5,7 C 11,1 C 16,1 km/h (3 Bft)
06.06.2020 12:58 12,0 C 63 % 1004,5 hPa 0,0 l/m 10,5 km/h (2 Bft) SW 235 1 min 3,7 UV-I 547 W/m 5,2 C 9,5 C 16,1 km/h (3 Bft)
06.06.2020 12:57 11,9 C 63 % 1004,5 hPa 0,0 l/m 5,3 km/h (1 Bft) W-SW 246 1 min 3,5 UV-I 547 W/m 5,1 C 11,9 C 8,0 km/h (2 Bft)
06.06.2020 12:56 11,8 C 64 % 1004,5 hPa 0,0 l/m 5,1 km/h (1 Bft) S-SO 159 1 min 3,6 UV-I 591 W/m 5,2 C 11,8 C 9,7 km/h (2 Bft)
06.06.2020 12:55 11,8 C 64 % 1004,5 hPa 0,0 l/m 3,4 km/h (1 Bft) S 184 1 min 3,2 UV-I 524 W/m 5,2 C 11,8 C 8,0 km/h (2 Bft)
06.06.2020 12:54 11,7 C 64 % 1004,5 hPa 0,0 l/m 7,2 km/h (2 Bft) W-SW 245 0 min 3,1 UV-I 461 W/m 5,1 C 11,2 C 9,7 km/h (2 Bft)
06.06.2020 12:53 11,7 C 62 % 1004,5 hPa 0,0 l/m 9,7 km/h (2 Bft) S-SW 210 0 min 3,0 UV-I 460 W/m 4,7 C 9,6 C 14,5 km/h (3 Bft)
06.06.2020 12:52 11,7 C 61 % 1004,4 hPa 0,0 l/m 7,3 km/h (2 Bft) SW 232 0 min 3,0 UV-I 411 W/m 4,4 C 11,1 C 12,9 km/h (3 Bft)
06.06.2020 12:51 11,7 C 61 % 1004,4 hPa 0,0 l/m 8,8 km/h (2 Bft) S 178 0 min 2,6 UV-I 376 W/m 4,4 C 10,1 C 14,5 km/h (3 Bft)
06.06.2020 12:50 11,7 C 61 % 1004,4 hPa 0,0 l/m 4,7 km/h (1 Bft) S-SW 195 0 min 2,3 UV-I 340 W/m 4,4 C 11,7 C 8,0 km/h (2 Bft)
06.06.2020 12:49 11,7 C 60 % 1004,4 hPa 0,0 l/m 5,2 km/h (1 Bft) S 180 0 min 2,1 UV-I 312 W/m 4,2 C 11,7 C 6,4 km/h (2 Bft)
06.06.2020 12:48 11,7 C 60 % 1004,4 hPa 0,0 l/m 3,3 km/h (1 Bft) S-SW 209 0 min 2,2 UV-I 311 W/m 4,2 C 11,7 C 4,8 km/h (1 Bft)
06.06.2020 12:47 11,7 C 60 % 1004,3 hPa 0,0 l/m 4,4 km/h (1 Bft) SW 229 0 min 2,3 UV-I 336 W/m 4,2 C 11,7 C 8,0 km/h (2 Bft)
06.06.2020 12:46 11,6 C 60 % 1004,4 hPa 0,0 l/m 2,0 km/h (1 Bft) SW 221 0 min 2,1 UV-I 323 W/m 4,1 C 11,6 C 3,2 km/h (1 Bft)
06.06.2020 12:45 11,6 C 60 % 1004,4 hPa 0,0 l/m 1,9 km/h (1 Bft) S-SW 208 0 min 1,9 UV-I 292 W/m 4,1 C 11,6 C 3,2 km/h (1 Bft)
06.06.2020 12:44 11,6 C 61 % 1004,4 hPa 0,0 l/m 1,3 km/h (1 Bft) S-SW 205 0 min 1,7 UV-I 265 W/m 4,3 C 11,6 C 3,2 km/h (1 Bft)
06.06.2020 12:43 11,5 C 61 % 1004,4 hPa 0,0 l/m 3,6 km/h (1 Bft) W-SW 247 0 min 1,6 UV-I 243 W/m 4,2 C 11,5 C 4,8 km/h (1 Bft)
06.06.2020 12:42 11,5 C 61 % 1004,5 hPa 0,0 l/m 5,5 km/h (1 Bft) S-SW 194 0 min 1,5 UV-I 242 W/m 4,2 C 11,5 C 8,0 km/h (2 Bft)
06.06.2020 12:41 11,5 C 61 % 1004,4 hPa 0,0 l/m 4,2 km/h (1 Bft) SW 225 0 min 1,7 UV-I 251 W/m 4,2 C 11,5 C 6,4 km/h (2 Bft)
06.06.2020 12:40 11,5 C 61 % 1004,4 hPa 0,0 l/m 3,4 km/h (1 Bft) S 186 0 min 1,6 UV-I 232 W/m 4,2 C 11,5 C 6,4 km/h (2 Bft)
06.06.2020 12:39 11,5 C 61 % 1004,5 hPa 0,0 l/m 3,8 km/h (1 Bft) S-SW 198 0 min 1,4 UV-I 204 W/m 4,2 C 11,5 C 8,0 km/h (2 Bft)
06.06.2020 12:38 11,5 C 61 % 1004,5 hPa 0,0 l/m 3,2 km/h (1 Bft) S-SW 201 0 min 1,2 UV-I 169 W/m 4,2 C 11,5 C 6,4 km/h (2 Bft)
06.06.2020 12:37 11,5 C 61 % 1004,4 hPa 0,0 l/m 4,6 km/h (1 Bft) S-SW 200 0 min 1,1 UV-I 168 W/m 4,2 C 11,5 C 6,4 km/h (2 Bft)
06.06.2020 12:36 11,5 C 61 % 1004,3 hPa 0,0 l/m 7,1 km/h (2 Bft) S-SW 209 0 min 1,3 UV-I 176 W/m 4,2 C 11,0 C 11,3 km/h (2 Bft)
06.06.2020 12:35 11,5 C 60 % 1004,4 hPa 0,0 l/m 7,5 km/h (2 Bft) SW 222 0 min 1,3 UV-I 187 W/m 4,0 C 10,8 C 11,3 km/h (2 Bft)
06.06.2020 12:34 11,6 C 60 % 1004,4 hPa 0,0 l/m 4,0 km/h (1 Bft) W-SW 243 0 min 1,2 UV-I 180 W/m 4,1 C 11,6 C 6,4 km/h (2 Bft)
06.06.2020 12:33 11,5 C 60 % 1004,3 hPa 0,0 l/m 1,1 km/h (1 Bft) S-SW 198 0 min 1,2 UV-I 178 W/m 4,0 C 11,5 C 1,6 km/h (1 Bft)
06.06.2020 12:32 11,5 C 60 % 1004,3 hPa 0,0 l/m 3,1 km/h (1 Bft) S-SW 198 0 min 1,2 UV-I 181 W/m 4,0 C 11,5 C 6,4 km/h (2 Bft)
06.06.2020 12:31 11,4 C 60 % 1004,4 hPa 0,0 l/m 4,6 km/h (1 Bft) S-SW 198 0 min 1,3 UV-I 184 W/m 3,9 C 11,4 C 6,4 km/h (2 Bft)
06.06.2020 12:30 11,4 C 60 % 1004,3 hPa 0,0 l/m 1,0 km/h (0 Bft) W-SW 252 0 min 1,3 UV-I 189 W/m 3,9 C 11,4 C 3,2 km/h (1 Bft)
06.06.2020 12:29 11,4 C 61 % 1004,4 hPa 0,0 l/m 0,3 km/h (0 Bft) S-SW 213 0 min 1,3 UV-I 194 W/m 4,2 C 11,4 C 1,6 km/h (1 Bft)
06.06.2020 12:28 11,3 C 61 % 1004,4 hPa 0,0 l/m 1,7 km/h (1 Bft) S-SW 213 0 min 1,2 UV-I 185 W/m 4,1 C 11,3 C 6,4 km/h (2 Bft)
06.06.2020 12:27 11,3 C 60 % 1004,4 hPa 0,0 l/m 3,9 km/h (1 Bft) SW 214 0 min 1,3 UV-I 190 W/m 3,8 C 11,3 C 9,7 km/h (2 Bft)
06.06.2020 12:26 11,3 C 60 % 1004,3 hPa 0,0 l/m 2,8 km/h (1 Bft) W-SW 240 0 min 1,4 UV-I 211 W/m 3,8 C 11,3 C 4,8 km/h (1 Bft)
06.06.2020 12:25 11,3 C 61 % 1004,3 hPa 0,0 l/m 5,2 km/h (1 Bft) SW 221 0 min 1,5 UV-I 233 W/m 4,1 C 11,3 C 6,4 km/h (2 Bft)
06.06.2020 12:24 11,3 C 61 % 1004,3 hPa 0,0 l/m 4,5 km/h (1 Bft) S 180 0 min 1,4 UV-I 223 W/m 4,1 C 11,3 C 8,0 km/h (2 Bft)
06.06.2020 12:23 11,3 C 61 % 1004,3 hPa 0,0 l/m 4,3 km/h (1 Bft) W-SW 238 0 min 1,4 UV-I 198 W/m 4,1 C 11,3 C 6,4 km/h (2 Bft)
06.06.2020 12:22 11,3 C 61 % 1004,3 hPa 0,0 l/m 5,3 km/h (1 Bft) S-SW 194 0 min 1,4 UV-I 212 W/m 4,1 C 11,3 C 8,0 km/h (2 Bft)
06.06.2020 12:21 11,3 C 61 % 1004,2 hPa 0,0 l/m 7,6 km/h (2 Bft) SW 223 0 min 1,5 UV-I 229 W/m 4,1 C 10,5 C 11,3 km/h (2 Bft)
06.06.2020 12:20 11,3 C 61 % 1004,3 hPa 0,0 l/m 5,2 km/h (1 Bft) SW 225 0 min 1,5 UV-I 225 W/m 4,1 C 11,3 C 12,9 km/h (3 Bft)
06.06.2020 12:19 11,3 C 61 % 1004,3 hPa 0,0 l/m 4,0 km/h (1 Bft) W-SW 242 0 min 1,5 UV-I 222 W/m 4,1 C 11,3 C 4,8 km/h (1 Bft)
06.06.2020 12:18 11,3 C 60 % 1004,3 hPa 0,0 l/m 2,3 km/h (1 Bft) W-SW 237 0 min 1,3 UV-I 198 W/m 3,8 C 11,3 C 6,4 km/h (2 Bft)
06.06.2020 12:17 11,2 C 61 % 1004,3 hPa 0,0 l/m 2,3 km/h (1 Bft) S 169 0 min 1,3 UV-I 192 W/m 4,0 C 11,2 C 6,4 km/h (2 Bft)
06.06.2020 12:16 11,2 C 61 % 1004,2 hPa 0,0 l/m 4,0 km/h (1 Bft) S 172 0 min 1,4 UV-I 208 W/m 4,0 C 11,2 C 8,0 km/h (2 Bft)
06.06.2020 12:15 11,2 C 61 % 1004,2 hPa 0,0 l/m 3,6 km/h (1 Bft) S-SW 210 0 min 1,5 UV-I 223 W/m 4,0 C 11,2 C 4,8 km/h (1 Bft)
06.06.2020 12:14 11,2 C 61 % 1004,2 hPa 0,0 l/m 8,5 km/h (2 Bft) S-SO 156 0 min 1,5 UV-I 231 W/m 4,0 C 9,8 C 11,3 km/h (2 Bft)
06.06.2020 12:13 11,2 C 60 % 1004,2 hPa 0,0 l/m 6,4 km/h (2 Bft) S-SW 192 0 min 1,6 UV-I 240 W/m 3,7 C 11,2 C 11,3 km/h (2 Bft)
06.06.2020 12:12 11,2 C 60 % 1004,1 hPa 0,0 l/m 5,0 km/h (1 Bft) S-SW 202 0 min 1,8 UV-I 255 W/m 3,7 C 11,2 C 9,7 km/h (2 Bft)
06.06.2020 12:11 11,2 C 60 % 1004,1 hPa 0,0 l/m 5,5 km/h (1 Bft) S-SW 194 0 min 1,8 UV-I 267 W/m 3,7 C 11,2 C 11,3 km/h (2 Bft)
06.06.2020 12:10 11,2 C 60 % 1004,1 hPa 0,0 l/m 5,6 km/h (1 Bft) S 182 0 min 1,8 UV-I 271 W/m 3,7 C 11,2 C 11,3 km/h (2 Bft)
06.06.2020 12:09 11,1 C 60 % 1004,2 hPa 0,0 l/m 4,8 km/h (1 Bft) S 188 0 min 1,7 UV-I 259 W/m 3,6 C 11,1 C 8,0 km/h (2 Bft)
06.06.2020 12:08 11,1 C 60 % 1004,2 hPa 0,0 l/m 3,2 km/h (1 Bft) S-SW 192 0 min 1,7 UV-I 257 W/m 3,6 C 11,1 C 4,8 km/h (1 Bft)
06.06.2020 12:07 11,1 C 60 % 1004,3 hPa 0,0 l/m 3,8 km/h (1 Bft) S 188 0 min 1,7 UV-I 263 W/m 3,6 C 11,1 C 8,0 km/h (2 Bft)
06.06.2020 12:06 11,1 C 60 % 1004,4 hPa 0,0 l/m 6,6 km/h (2 Bft) S-SO 149 0 min 1,6 UV-I 256 W/m 3,6 C 11,0 C 12,9 km/h (3 Bft)
06.06.2020 12:05 11,1 C 60 % 1004,4 hPa 0,0 l/m 2,5 km/h (1 Bft) S-SW 198 0 min 1,5 UV-I 239 W/m 3,6 C 11,1 C 4,8 km/h (1 Bft)
06.06.2020 12:04 11,0 C 60 % 1004,4 hPa 0,0 l/m 4,3 km/h (1 Bft) S 189 0 min 1,6 UV-I 236 W/m 3,5 C 11,0 C 6,4 km/h (2 Bft)
06.06.2020 12:03 10,9 C 60 % 1004,5 hPa 0,0 l/m 3,9 km/h (1 Bft) S 182 0 min 1,6 UV-I 237 W/m 3,4 C 10,9 C 8,0 km/h (2 Bft)
06.06.2020 12:02 10,9 C 60 % 1004,4 hPa 0,0 l/m 2,6 km/h (1 Bft) S-SO 166 0 min 1,6 UV-I 240 W/m 3,4 C 10,9 C 4,8 km/h (1 Bft)
06.06.2020 12:01 10,9 C 60 % 1004,4 hPa 0,0 l/m 2,5 km/h (1 Bft) S 171 0 min 1,6 UV-I 244 W/m 3,4 C 10,9 C 6,4 km/h (2 Bft)
06.06.2020 12:00 10,8 C 60 % 1004,3 hPa 0,0 l/m 2,5 km/h (1 Bft) S 169 0 min 1,6 UV-I 240 W/m 3,4 C 10,8 C 6,4 km/h (2 Bft)
06.06.2020 11:59 10,8 C 60 % 1004,4 hPa 0,0 l/m 3,5 km/h (1 Bft) S-SO 159 0 min 1,5 UV-I 235 W/m 3,4 C 10,8 C 8,0 km/h (2 Bft)
06.06.2020 11:58 10,8 C 60 % 1004,4 hPa 0,0 l/m 6,8 km/h (2 Bft) SW 218 0 min 1,4 UV-I 216 W/m 3,4 C 10,5 C 9,7 km/h (2 Bft)
06.06.2020 11:57 10,8 C 60 % 1004,3 hPa 0,0 l/m 4,3 km/h (1 Bft) SW 220 0 min 1,2 UV-I 181 W/m 3,4 C 10,8 C 6,4 km/h (2 Bft)
06.06.2020 11:56 10,7 C 60 % 1004,4 hPa 0,0 l/m 3,6 km/h (1 Bft) S-SW 203 0 min 1,2 UV-I 188 W/m 3,3 C 10,7 C 4,8 km/h (1 Bft)
06.06.2020 11:55 10,7 C 60 % 1004,3 hPa 0,0 l/m 4,5 km/h (1 Bft) S-SW 205 0 min 1,3 UV-I 204 W/m 3,3 C 10,7 C 6,4 km/h (2 Bft)
06.06.2020 11:54 10,7 C 60 % 1004,3 hPa 0,0 l/m 7,5 km/h (2 Bft) S-SW 195 0 min 1,4 UV-I 204 W/m 3,3 C 9,9 C 11,3 km/h (2 Bft)
06.06.2020 11:53 10,7 C 61 % 1004,3 hPa 0,0 l/m 6,3 km/h (2 Bft) S-SW 204 0 min 1,2 UV-I 186 W/m 3,5 C 10,7 C 9,7 km/h (2 Bft)
06.06.2020 11:52 10,7 C 60 % 1004,3 hPa 0,0 l/m 6,5 km/h (2 Bft) S-SW 198 0 min 1,2 UV-I 176 W/m 3,3 C 10,7 C 9,7 km/h (2 Bft)
06.06.2020 11:51 10,7 C 60 % 1004,3 hPa 0,0 l/m 5,9 km/h (2 Bft) W 259 0 min 1,3 UV-I 193 W/m 3,3 C 10,7 C 8,0 km/h (2 Bft)
06.06.2020 11:50 10,7 C 60 % 1004,4 hPa 0,0 l/m 5,3 km/h (1 Bft) S-SW 204 0 min 1,3 UV-I 192 W/m 3,3 C 10,7 C 8,0 km/h (2 Bft)
06.06.2020 11:49 10,7 C 60 % 1004,4 hPa 0,0 l/m 7,3 km/h (2 Bft) SW 234 0 min 1,1 UV-I 166 W/m 3,3 C 10,1 C 9,7 km/h (2 Bft)
06.06.2020 11:48 10,7 C 60 % 1004,4 hPa 0,0 l/m 2,6 km/h (1 Bft) SW 214 0 min 1,0 UV-I 153 W/m 3,3 C 10,7 C 6,4 km/h (2 Bft)
06.06.2020 11:47 10,7 C 60 % 1004,3 hPa 0,0 l/m 2,3 km/h (1 Bft) S-SW 196 0 min 1,1 UV-I 160 W/m 3,3 C 10,7 C 3,2 km/h (1 Bft)
06.06.2020 11:46 10,7 C 60 % 1004,3 hPa 0,0 l/m 6,6 km/h (2 Bft) SW 214 0 min 1,1 UV-I 170 W/m 3,3 C 10,6 C 11,3 km/h (2 Bft)
06.06.2020 11:45 10,6 C 60 % 1004,4 hPa 0,0 l/m 4,7 km/h (1 Bft) S-SW 192 0 min 1,2 UV-I 182 W/m 3,2 C 10,6 C 9,7 km/h (2 Bft)
06.06.2020 11:44 10,6 C 61 % 1004,4 hPa 0,0 l/m 2,7 km/h (1 Bft) S-SW 206 0 min 1,3 UV-I 191 W/m 3,4 C 10,6 C 4,8 km/h (1 Bft)
06.06.2020 11:43 10,6 C 61 % 1004,4 hPa 0,0 l/m 2,9 km/h (1 Bft) S 190 0 min 1,2 UV-I 174 W/m 3,4 C 10,6 C 6,4 km/h (2 Bft)
06.06.2020 11:42 10,6 C 61 % 1004,4 hPa 0,0 l/m 5,1 km/h (1 Bft) SW 227 0 min 1,0 UV-I 153 W/m 3,4 C 10,6 C 6,4 km/h (2 Bft)
06.06.2020 11:41 10,6 C 61 % 1004,4 hPa 0,0 l/m 4,8 km/h (1 Bft) SW 221 0 min 0,9 UV-I 142 W/m 3,4 C 10,6 C 8,0 km/h (2 Bft)
06.06.2020 11:40 10,5 C 61 % 1004,4 hPa 0,0 l/m 5,6 km/h (1 Bft) W-SW 244 0 min 0,9 UV-I 138 W/m 3,3 C 10,5 C 12,9 km/h (3 Bft)
06.06.2020 11:39 10,5 C 61 % 1004,4 hPa 0,0 l/m 5,9 km/h (2 Bft) SW 231 0 min 0,9 UV-I 135 W/m 3,3 C 10,5 C 8,0 km/h (2 Bft)
06.06.2020 11:38 10,5 C 61 % 1004,4 hPa 0,0 l/m 6,5 km/h (2 Bft) SW 223 0 min 0,9 UV-I 140 W/m 3,3 C 10,5 C 9,7 km/h (2 Bft)
06.06.2020 11:37 10,5 C 61 % 1004,3 hPa 0,0 l/m 4,0 km/h (1 Bft) SW 228 0 min 1,1 UV-I 168 W/m 3,3 C 10,5 C 8,0 km/h (2 Bft)
06.06.2020 11:36 10,5 C 61 % 1004,3 hPa 0,0 l/m 6,5 km/h (2 Bft) W-SW 258 0 min 1,5 UV-I 219 W/m 3,3 C 10,5 C 12,9 km/h (3 Bft)
06.06.2020 11:35 10,4 C 61 % 1004,3 hPa 0,0 l/m 3,6 km/h (1 Bft) S-SW 207 0 min 1,5 UV-I 226 W/m 3,2 C 10,4 C 6,4 km/h (2 Bft)
06.06.2020 11:34 10,4 C 61 % 1004,4 hPa 0,0 l/m 8,4 km/h (2 Bft) SW 235 0 min 1,2 UV-I 185 W/m 3,2 C 9,0 C 16,1 km/h (3 Bft)
06.06.2020 11:33 10,4 C 61 % 1004,3 hPa 0,0 l/m 10,1 km/h (2 Bft) W-SW 240 0 min 1,2 UV-I 182 W/m 3,2 C 8,0 C 16,1 km/h (3 Bft)
06.06.2020 11:32 10,4 C 61 % 1004,4 hPa 0,0 l/m 9,5 km/h (2 Bft) W-SW 247 0 min 1,2 UV-I 181 W/m 3,2 C 8,3 C 14,5 km/h (3 Bft)
06.06.2020 11:31 10,4 C 61 % 1004,4 hPa 0,0 l/m 5,8 km/h (2 Bft) SW 232 0 min 1,3 UV-I 194 W/m 3,2 C 10,4 C 11,3 km/h (2 Bft)
06.06.2020 11:30 10,4 C 61 % 1004,3 hPa 0,0 l/m 8,9 km/h (2 Bft) SW 221 0 min 1,2 UV-I 182 W/m 3,2 C 8,7 C 11,3 km/h (2 Bft)
06.06.2020 11:29 10,4 C 61 % 1004,3 hPa 0,0 l/m 7,0 km/h (2 Bft) W 263 0 min 1,0 UV-I 160 W/m 3,2 C 10,0 C 9,7 km/h (2 Bft)
06.06.2020 11:28 10,4 C 61 % 1004,3 hPa 0,0 l/m 6,7 km/h (2 Bft) W-SW 244 0 min 1,0 UV-I 152 W/m 3,2 C 10,2 C 11,3 km/h (2 Bft)
06.06.2020 11:27 10,4 C 61 % 1004,3 hPa 0,0 l/m 5,4 km/h (1 Bft) W-SW 240 0 min 1,0 UV-I 156 W/m 3,2 C 10,4 C 8,0 km/h (2 Bft)
06.06.2020 11:26 10,4 C 61 % 1004,2 hPa 0,0 l/m 3,3 km/h (1 Bft) W-SW 250 0 min 1,0 UV-I 151 W/m 3,2 C 10,4 C 4,8 km/h (1 Bft)
06.06.2020 11:25 10,4 C 61 % 1004,2 hPa 0,0 l/m 2,5 km/h (1 Bft) S-SW 210 0 min 0,9 UV-I 128 W/m 3,2 C 10,4 C 4,8 km/h (1 Bft)
06.06.2020 11:24 10,4 C 62 % 1004,2 hPa 0,0 l/m 3,5 km/h (1 Bft) S-SW 211 0 min 0,9 UV-I 132 W/m 3,4 C 10,4 C 6,4 km/h (2 Bft)
06.06.2020 11:23 10,4 C 62 % 1004,1 hPa 0,0 l/m 5,8 km/h (2 Bft) S-SW 212 0 min 0,8 UV-I 128 W/m 3,4 C 10,4 C 11,3 km/h (2 Bft)
06.06.2020 11:22 10,4 C 62 % 1004,1 hPa 0,0 l/m 4,7 km/h (1 Bft) S 186 0 min 0,8 UV-I 121 W/m 3,4 C 10,4 C 8,0 km/h (2 Bft)
06.06.2020 11:21 10,4 C 62 % 1004,1 hPa 0,0 l/m 8,4 km/h (2 Bft) S-SW 205 0 min 0,8 UV-I 116 W/m 3,4 C 9,0 C 12,9 km/h (3 Bft)
06.06.2020 11:20 10,4 C 62 % 1004,2 hPa 0,0 l/m 7,6 km/h (2 Bft) SW 227 0 min 0,8 UV-I 118 W/m 3,4 C 9,5 C 9,7 km/h (2 Bft)
06.06.2020 11:19 10,4 C 62 % 1004,1 hPa 0,0 l/m 5,2 km/h (1 Bft) SW 228 0 min 0,9 UV-I 135 W/m 3,4 C 10,4 C 8,0 km/h (2 Bft)
06.06.2020 11:18 10,5 C 62 % 1004,1 hPa 0,0 l/m 5,7 km/h (1 Bft) W-SW 251 0 min 0,9 UV-I 138 W/m 3,5 C 10,5 C 9,7 km/h (2 Bft)
06.06.2020 11:17 10,5 C 62 % 1004,0 hPa 0,0 l/m 6,2 km/h (2 Bft) S-SW 194 0 min 0,9 UV-I 138 W/m 3,5 C 10,5 C 9,7 km/h (2 Bft)
06.06.2020 11:16 10,6 C 62 % 1004,0 hPa 0,0 l/m 10,8 km/h (2 Bft) W-SW 253 0 min 0,9 UV-I 142 W/m 3,6 C 7,8 C 12,9 km/h (3 Bft)
06.06.2020 11:15 10,7 C 62 % 1003,9 hPa 0,0 l/m 6,4 km/h (2 Bft) S 185 0 min 1,0 UV-I 148 W/m 3,7 C 10,7 C 9,7 km/h (2 Bft)
06.06.2020 11:14 10,7 C 61 % 1003,9 hPa 0,0 l/m 4,2 km/h (1 Bft) S-SW 207 0 min 0,9 UV-I 136 W/m 3,5 C 10,7 C 6,4 km/h (2 Bft)
06.06.2020 11:13 10,7 C 61 % 1003,9 hPa 0,0 l/m 3,5 km/h (1 Bft) S-SW 207 0 min 0,9 UV-I 133 W/m 3,5 C 10,7 C 6,4 km/h (2 Bft)
06.06.2020 11:12 10,7 C 61 % 1003,9 hPa 0,0 l/m 2,5 km/h (1 Bft) SW 221 0 min 0,9 UV-I 140 W/m 3,5 C 10,7 C 4,8 km/h (1 Bft)
06.06.2020 11:11 10,7 C 61 % 1003,9 hPa 0,0 l/m 6,7 km/h (2 Bft) SW 234 0 min 1,0 UV-I 153 W/m 3,5 C 10,5 C 9,7 km/h (2 Bft)
06.06.2020 11:10 10,8 C 61 % 1003,9 hPa 0,0 l/m 6,6 km/h (2 Bft) W-SW 237 0 min 1,0 UV-I 149 W/m 3,6 C 10,7 C 9,7 km/h (2 Bft)
06.06.2020 11:09 10,8 C 61 % 1003,9 hPa 0,0 l/m 5,1 km/h (1 Bft) W-SW 247 0 min 1,1 UV-I 168 W/m 3,6 C 10,8 C 6,4 km/h (2 Bft)
06.06.2020 11:08 10,8 C 60 % 1003,9 hPa 0,0 l/m 6,3 km/h (2 Bft) SW 222 0 min 1,3 UV-I 200 W/m 3,4 C 10,8 C 9,7 km/h (2 Bft)
06.06.2020 11:07 10,8 C 60 % 1003,9 hPa 0,0 l/m 3,7 km/h (1 Bft) S-SW 195 0 min 1,5 UV-I 233 W/m 3,4 C 10,8 C 6,4 km/h (2 Bft)
06.06.2020 11:06 10,7 C 60 % 1003,8 hPa 0,0 l/m 2,4 km/h (1 Bft) S 179 0 min 1,5 UV-I 234 W/m 3,3 C 10,7 C 4,8 km/h (1 Bft)
06.06.2020 11:05 10,7 C 61 % 1003,9 hPa 0,0 l/m 1,3 km/h (1 Bft) W-SW 244 0 min 1,5 UV-I 235 W/m 3,5 C 10,7 C 3,2 km/h (1 Bft)
06.06.2020 11:04 10,7 C 61 % 1003,9 hPa 0,0 l/m 3,3 km/h (1 Bft) W-SW 248 0 min 1,6 UV-I 251 W/m 3,5 C 10,7 C 4,8 km/h (1 Bft)
06.06.2020 11:03 10,7 C 61 % 1003,8 hPa 0,0 l/m 6,1 km/h (2 Bft) W-SW 239 0 min 1,6 UV-I 260 W/m 3,5 C 10,7 C 9,7 km/h (2 Bft)
06.06.2020 11:02 10,7 C 61 % 1003,8 hPa 0,0 l/m 11,5 km/h (2 Bft) SW 232 0 min 1,7 UV-I 274 W/m 3,5 C 7,6 C 16,1 km/h (3 Bft)
06.06.2020 11:01 10,7 C 61 % 1003,8 hPa 0,0 l/m 8,4 km/h (2 Bft) W-SW 237 0 min 1,7 UV-I 275 W/m 3,5 C 9,3 C 14,5 km/h (3 Bft)
06.06.2020 11:00 10,7 C 61 % 1003,8 hPa 0,0 l/m 3,4 km/h (1 Bft) S-SW 205 0 min 1,8 UV-I 286 W/m 3,5 C 10,7 C 6,4 km/h (2 Bft)
06.06.2020 10:59 10,7 C 61 % 1003,8 hPa 0,0 l/m 3,8 km/h (1 Bft) W-SW 242 0 min 1,8 UV-I 292 W/m 3,5 C 10,7 C 6,4 km/h (2 Bft)
06.06.2020 10:58 10,7 C 61 % 1003,8 hPa 0,0 l/m 5,6 km/h (1 Bft) S-SW 202 0 min 1,5 UV-I 247 W/m 3,5 C 10,7 C 11,3 km/h (2 Bft)
06.06.2020 10:57 10,7 C 60 % 1003,9 hPa 0,0 l/m 4,4 km/h (1 Bft) W-SW 258 0 min 1,5 UV-I 237 W/m 3,3 C 10,7 C 8,0 km/h (2 Bft)
06.06.2020 10:56 10,7 C 61 % 1003,9 hPa 0,0 l/m 6,5 km/h (2 Bft) S-SO 167 0 min 1,3 UV-I 225 W/m 3,5 C 10,7 C 9,7 km/h (2 Bft)
06.06.2020 10:55 10,7 C 61 % 1003,9 hPa 0,0 l/m 9,5 km/h (2 Bft) W-SW 242 0 min 1,3 UV-I 215 W/m 3,5 C 8,7 C 14,5 km/h (3 Bft)
06.06.2020 10:54 10,7 C 61 % 1003,8 hPa 0,0 l/m 6,0 km/h (2 Bft) SW 217 0 min 1,3 UV-I 210 W/m 3,5 C 10,7 C 9,7 km/h (2 Bft)
06.06.2020 10:53 10,8 C 61 % 1003,9 hPa 0,0 l/m 5,1 km/h (1 Bft) SW 232 0 min 1,2 UV-I 201 W/m 3,6 C 10,8 C 8,0 km/h (2 Bft)
06.06.2020 10:52 10,8 C 60 % 1003,8 hPa 0,0 l/m 6,3 km/h (2 Bft) S 187 0 min 1,3 UV-I 211 W/m 3,4 C 10,8 C 9,7 km/h (2 Bft)
06.06.2020 10:51 10,7 C 60 % 1003,8 hPa 0,0 l/m 1,5 km/h (1 Bft) S 185 0 min 1,3 UV-I 208 W/m 3,3 C 10,7 C 3,2 km/h (1 Bft)
06.06.2020 10:50 10,7 C 60 % 1003,8 hPa 0,0 l/m 2,1 km/h (1 Bft) S-SW 198 0 min 1,1 UV-I 182 W/m 3,3 C 10,7 C 6,4 km/h (2 Bft)
06.06.2020 10:49 10,7 C 60 % 1003,7 hPa 0,0 l/m 4,8 km/h (1 Bft) S-SW 204 0 min 1,1 UV-I 178 W/m 3,3 C 10,7 C 6,4 km/h (2 Bft)
06.06.2020 10:48 10,7 C 60 % 1003,7 hPa 0,0 l/m 3,7 km/h (1 Bft) S-SW 194 0 min 1,0 UV-I 173 W/m 3,3 C 10,7 C 6,4 km/h (2 Bft)
06.06.2020 10:47 10,7 C 60 % 1003,8 hPa 0,0 l/m 3,2 km/h (1 Bft) SW 221 0 min 1,0 UV-I 180 W/m 3,3 C 10,7 C 6,4 km/h (2 Bft)
06.06.2020 10:46 10,7 C 60 % 1003,8 hPa 0,0 l/m 3,5 km/h (1 Bft) S-SW 198 0 min 1,1 UV-I 202 W/m 3,3 C 10,7 C 6,4 km/h (2 Bft)
06.06.2020 10:45 10,7 C 60 % 1003,8 hPa 0,0 l/m 3,0 km/h (1 Bft) W 266 0 min 1,3 UV-I 219 W/m 3,3 C 10,7 C 4,8 km/h (1 Bft)
06.06.2020 10:44 10,7 C 60 % 1003,8 hPa 0,0 l/m 2,7 km/h (1 Bft) S-SO 159 0 min 1,3 UV-I 222 W/m 3,3 C 10,7 C 4,8 km/h (1 Bft)
06.06.2020 10:43 10,6 C 60 % 1003,7 hPa 0,0 l/m 2,1 km/h (1 Bft) S-SW 209 0 min 1,4 UV-I 234 W/m 3,2 C 10,6 C 4,8 km/h (1 Bft)
06.06.2020 10:42 10,6 C 60 % 1003,6 hPa 0,0 l/m 4,6 km/h (1 Bft) SW 236 0 min 1,5 UV-I 257 W/m 3,2 C 10,6 C 6,4 km/h (2 Bft)
06.06.2020 10:41 10,6 C 60 % 1003,7 hPa 0,0 l/m 2,7 km/h (1 Bft) S 187 0 min 1,6 UV-I 268 W/m 3,2 C 10,6 C 4,8 km/h (1 Bft)
06.06.2020 10:40 10,6 C 60 % 1003,7 hPa 0,0 l/m 4,4 km/h (1 Bft) S-SW 199 0 min 1,6 UV-I 259 W/m 3,2 C 10,6 C 8,0 km/h (2 Bft)
06.06.2020 10:39 10,6 C 60 % 1003,7 hPa 0,0 l/m 8,5 km/h (2 Bft) S-SO 163 0 min 1,6 UV-I 248 W/m 3,2 C 9,2 C 12,9 km/h (3 Bft)
06.06.2020 10:38 10,6 C 60 % 1003,7 hPa 0,0 l/m 4,6 km/h (1 Bft) W-SW 240 0 min 1,6 UV-I 254 W/m 3,2 C 10,6 C 8,0 km/h (2 Bft)
06.06.2020 10:37 10,5 C 60 % 1003,7 hPa 0,0 l/m 3,7 km/h (1 Bft) W-SW 238 0 min 1,6 UV-I 266 W/m 3,1 C 10,5 C 6,4 km/h (2 Bft)
06.06.2020 10:36 10,4 C 60 % 1003,7 hPa 0,0 l/m 5,0 km/h (1 Bft) S-SW 205 0 min 1,6 UV-I 270 W/m 3,0 C 10,4 C 8,0 km/h (2 Bft)
06.06.2020 10:35 10,4 C 60 % 1003,7 hPa 0,0 l/m 4,3 km/h (1 Bft) SW 223 0 min 1,6 UV-I 273 W/m 3,0 C 10,4 C 6,4 km/h (2 Bft)
06.06.2020 10:34 10,4 C 60 % 1003,8 hPa 0,0 l/m 5,8 km/h (2 Bft) SW 221 0 min 1,5 UV-I 254 W/m 3,0 C 10,4 C 8,0 km/h (2 Bft)
06.06.2020 10:33 10,4 C 60 % 1003,8 hPa 0,0 l/m 5,2 km/h (1 Bft) S-SW 204 0 min 1,4 UV-I 236 W/m 3,0 C 10,4 C 8,0 km/h (2 Bft)
06.06.2020 10:32 10,4 C 60 % 1003,8 hPa 0,0 l/m 5,7 km/h (1 Bft) S 186 0 min 1,4 UV-I 236 W/m 3,0 C 10,4 C 9,7 km/h (2 Bft)
06.06.2020 10:31 10,4 C 60 % 1003,8 hPa 0,0 l/m 3,6 km/h (1 Bft) S-SW 198 0 min 1,4 UV-I 234 W/m 3,0 C 10,4 C 6,4 km/h (2 Bft)
06.06.2020 10:30 10,4 C 60 % 1003,7 hPa 0,0 l/m 5,6 km/h (1 Bft) W-SW 242 0 min 1,3 UV-I 225 W/m 3,0 C 10,4 C 9,7 km/h (2 Bft)
06.06.2020 10:29 10,3 C 60 % 1003,8 hPa 0,0 l/m 5,4 km/h (1 Bft) W 259 0 min 1,3 UV-I 214 W/m 2,9 C 10,3 C 8,0 km/h (2 Bft)
06.06.2020 10:28 10,3 C 60 % 1003,7 hPa 0,0 l/m 3,2 km/h (1 Bft) W-SW 250 0 min 1,3 UV-I 211 W/m 2,9 C 10,3 C 6,4 km/h (2 Bft)
06.06.2020 10:27 10,4 C 60 % 1003,7 hPa 0,0 l/m 3,8 km/h (1 Bft) S-SW 196 0 min 1,3 UV-I 211 W/m 3,0 C 10,4 C 4,8 km/h (1 Bft)
06.06.2020 10:26 10,3 C 60 % 1003,7 hPa 0,0 l/m 3,6 km/h (1 Bft) S-SW 206 0 min 1,1 UV-I 195 W/m 2,9 C 10,3 C 6,4 km/h (2 Bft)
06.06.2020 10:25 10,3 C 60 % 1003,7 hPa 0,0 l/m 5,9 km/h (2 Bft) SW 233 0 min 1,1 UV-I 188 W/m 2,9 C 10,3 C 8,0 km/h (2 Bft)
06.06.2020 10:24 10,4 C 60 % 1003,6 hPa 0,0 l/m 6,2 km/h (2 Bft) S-SW 211 0 min 1,2 UV-I 196 W/m 3,0 C 10,4 C 11,3 km/h (2 Bft)
06.06.2020 10:23 10,4 C 60 % 1003,6 hPa 0,0 l/m 1,9 km/h (1 Bft) S-SW 198 0 min 1,2 UV-I 196 W/m 3,0 C 10,4 C 3,2 km/h (1 Bft)
06.06.2020 10:22 10,4 C 60 % 1003,6 hPa 0,0 l/m 2,0 km/h (1 Bft) SW 227 0 min 1,1 UV-I 185 W/m 3,0 C 10,4 C 3,2 km/h (1 Bft)
06.06.2020 10:21 10,4 C 60 % 1003,6 hPa 0,0 l/m 1,8 km/h (1 Bft) S-SW 212 0 min 1,1 UV-I 187 W/m 3,0 C 10,4 C 3,2 km/h (1 Bft)
06.06.2020 10:20 10,3 C 60 % 1003,6 hPa 0,0 l/m 1,4 km/h (1 Bft) S 188 0 min 1,1 UV-I 198 W/m 2,9 C 10,3 C 3,2 km/h (1 Bft)
06.06.2020 10:19 10,3 C 60 % 1003,5 hPa 0,0 l/m 3,7 km/h (1 Bft) S 188 0 min 1,2 UV-I 210 W/m 2,9 C 10,3 C 6,4 km/h (2 Bft)
06.06.2020 10:18 10,3 C 60 % 1003,5 hPa 0,0 l/m 3,4 km/h (1 Bft) SW 224 0 min 1,2 UV-I 214 W/m 2,9 C 10,3 C 4,8 km/h (1 Bft)
06.06.2020 10:17 10,3 C 60 % 1003,5 hPa 0,0 l/m 3,3 km/h (1 Bft) S 183 0 min 1,2 UV-I 209 W/m 2,9 C 10,3 C 9,7 km/h (2 Bft)
06.06.2020 10:16 10,3 C 60 % 1003,5 hPa 0,0 l/m 5,8 km/h (2 Bft) SW 214 0 min 1,2 UV-I 208 W/m 2,9 C 10,3 C 11,3 km/h (2 Bft)
06.06.2020 10:15 10,3 C 60 % 1003,6 hPa 0,0 l/m 3,7 km/h (1 Bft) S 178 0 min 1,3 UV-I 217 W/m 2,9 C 10,3 C 6,4 km/h (2 Bft)
06.06.2020 10:14 10,3 C 60 % 1003,5 hPa 0,0 l/m 5,3 km/h (1 Bft) SW 214 0 min 1,3 UV-I 228 W/m 2,9 C 10,3 C 8,0 km/h (2 Bft)
06.06.2020 10:13 10,3 C 60 % 1003,6 hPa 0,0 l/m 3,2 km/h (1 Bft) S-SO 159 0 min 1,3 UV-I 226 W/m 2,9 C 10,3 C 6,4 km/h (2 Bft)
06.06.2020 10:12 10,3 C 60 % 1003,6 hPa 0,0 l/m 2,0 km/h (1 Bft) S 186 0 min 1,2 UV-I 204 W/m 2,9 C 10,3 C 3,2 km/h (1 Bft)
06.06.2020 10:11 10,3 C 60 % 1003,6 hPa 0,0 l/m 2,4 km/h (1 Bft) S-SW 201 0 min 1,0 UV-I 174 W/m 2,9 C 10,3 C 4,8 km/h (1 Bft)
06.06.2020 10:10 10,3 C 60 % 1003,6 hPa 0,0 l/m 3,0 km/h (1 Bft) S 178 0 min 0,9 UV-I 165 W/m 2,9 C 10,3 C 6,4 km/h (2 Bft)
06.06.2020 10:09 10,3 C 60 % 1003,6 hPa 0,0 l/m 1,7 km/h (1 Bft) S 184 0 min 1,0 UV-I 170 W/m 2,9 C 10,3 C 3,2 km/h (1 Bft)
06.06.2020 10:08 10,3 C 60 % 1003,7 hPa 0,0 l/m 3,8 km/h (1 Bft) S 183 0 min 1,0 UV-I 175 W/m 2,9 C 10,3 C 6,4 km/h (2 Bft)
06.06.2020 10:07 10,2 C 60 % 1003,6 hPa 0,0 l/m 2,2 km/h (1 Bft) S-SW 193 0 min 1,0 UV-I 172 W/m 2,8 C 10,2 C 4,8 km/h (1 Bft)
06.06.2020 10:06 10,2 C 60 % 1003,6 hPa 0,0 l/m 1,9 km/h (1 Bft) S 182 0 min 0,9 UV-I 168 W/m 2,8 C 10,2 C 3,2 km/h (1 Bft)
06.06.2020 10:05 10,2 C 60 % 1003,6 hPa 0,0 l/m 1,3 km/h (1 Bft) S 172 0 min 0,9 UV-I 171 W/m 2,8 C 10,2 C 3,2 km/h (1 Bft)
06.06.2020 10:04 10,2 C 60 % 1003,6 hPa 0,0 l/m 1,4 km/h (1 Bft) SW 216 0 min 0,9 UV-I 168 W/m 2,8 C 10,2 C 3,2 km/h (1 Bft)
06.06.2020 10:03 10,1 C 60 % 1003,6 hPa 0,0 l/m 2,0 km/h (1 Bft) S 188 0 min 0,9 UV-I 162 W/m 2,7 C 10,1 C 3,2 km/h (1 Bft)
06.06.2020 10:02 10,1 C 60 % 1003,6 hPa 0,0 l/m 1,9 km/h (1 Bft) S 189 0 min 0,9 UV-I 159 W/m 2,7 C 10,1 C 3,2 km/h (1 Bft)
06.06.2020 10:01 10,1 C 60 % 1003,6 hPa 0,0 l/m 1,4 km/h (1 Bft) S-SW 192 0 min 0,8 UV-I 154 W/m 2,7 C 10,1 C 3,2 km/h (1 Bft)
06.06.2020 10:00 10,1 C 60 % 1003,7 hPa 0,0 l/m 3,0 km/h (1 Bft) S-SW 192 0 min 0,8 UV-I 149 W/m 2,7 C 10,1 C 6,4 km/h (2 Bft)
_ Min-Zeit 01:17 09:03 10:19 - 08:03 - - - - - 01:17 11:02 08:03
Minimum _ 8,0 C 56 % 1003,5 hPa - 0,0 km/h (0 Bft) - - - - - 0,5 C 7,6 C 0,0 km/h (0 Bft)
_ Max-Zeit 17:04 21:30 09:05 07:52 15:59 - - 20:34 15:35 15:50 16:57 17:01 15:59
Maximum _ 15,8 C 74 % 1007,5 hPa 0,2 l/m 16,8 km/h
SW (3 Bft)
- - 1 min 4,6 UV-I 937 W/m 10,5 C 15,7 C 25,7 km/h
SW (4 Bft)
Durchschnitt _ 11,5 C 64 % 1005,3 hPa #4,0 l/m 3,1 km/h (1 Bft) S - #0 min. 0,5 UV-I 68 W/m 4,9 C 11,2 C 5,5 km/h (1 Bft)